<?xml version="1.0" encoding="UTF-8" standalone="no" ?>
<gpx xmlns="http://www.topografix.com/GPX/1/1" xmlns:xsi="http://www.w3.org/2001/XMLSchema-instance" xsi:schemaLocation="http://www.topografix.com/GPX/1/1 http://www.topografix.com/GPX/1/1/gpx.xsd" version="1.1" creator="VisuGPX - https://www.visugpx.com">
  <metadata>
    <name>04-JUIN-14 16:58:10</name>
    <desc><![CDATA[

]]></desc>
  </metadata>
  <trk>
    <name><![CDATA[04-JUIN-14 16:58:10]]></name>
    <trkseg>
      <trkpt lat="44.59918" lon="2.40091">
        <ele>362.07</ele>
        <time>2014-06-04T06:36:39Z</time>
      </trkpt>
      <trkpt lat="44.59921" lon="2.40075">
        <ele>361.59</ele>
        <time>2014-06-04T06:36:53Z</time>
      </trkpt>
      <trkpt lat="44.59921" lon="2.40068">
        <ele>358.23</ele>
        <time>2014-06-04T06:37:00Z</time>
      </trkpt>
      <trkpt lat="44.59921" lon="2.40066">
        <ele>362.07</ele>
        <time>2014-06-04T06:37:01Z</time>
      </trkpt>
      <trkpt lat="44.59922" lon="2.40043">
        <ele>360.63</ele>
        <time>2014-06-04T06:37:17Z</time>
      </trkpt>
      <trkpt lat="44.59925" lon="2.4002">
        <ele>359.19</ele>
        <time>2014-06-04T06:37:33Z</time>
      </trkpt>
      <trkpt lat="44.59926" lon="2.40013">
        <ele>353.42</ele>
        <time>2014-06-04T06:37:40Z</time>
      </trkpt>
      <trkpt lat="44.59926" lon="2.40012">
        <ele>362.55</ele>
        <time>2014-06-04T06:37:41Z</time>
      </trkpt>
      <trkpt lat="44.59925" lon="2.40005">
        <ele>353.42</ele>
        <time>2014-06-04T06:37:45Z</time>
      </trkpt>
      <trkpt lat="44.59925" lon="2.40003">
        <ele>364.48</ele>
        <time>2014-06-04T06:37:46Z</time>
      </trkpt>
      <trkpt lat="44.59925" lon="2.4">
        <ele>357.75</ele>
        <time>2014-06-04T06:37:47Z</time>
      </trkpt>
      <trkpt lat="44.59922" lon="2.39991">
        <ele>356.79</ele>
        <time>2014-06-04T06:37:52Z</time>
      </trkpt>
      <trkpt lat="44.59918" lon="2.39975">
        <ele>358.23</ele>
        <time>2014-06-04T06:38:02Z</time>
      </trkpt>
      <trkpt lat="44.59917" lon="2.39973">
        <ele>361.59</ele>
        <time>2014-06-04T06:38:04Z</time>
      </trkpt>
      <trkpt lat="44.59916" lon="2.3997">
        <ele>358.71</ele>
        <time>2014-06-04T06:38:05Z</time>
      </trkpt>
      <trkpt lat="44.59914" lon="2.39952">
        <ele>358.71</ele>
        <time>2014-06-04T06:38:21Z</time>
      </trkpt>
      <trkpt lat="44.59914" lon="2.3995">
        <ele>358.71</ele>
        <time>2014-06-04T06:38:22Z</time>
      </trkpt>
      <trkpt lat="44.59907" lon="2.39914">
        <ele>357.75</ele>
        <time>2014-06-04T06:38:38Z</time>
      </trkpt>
      <trkpt lat="44.59906" lon="2.39906">
        <ele>356.79</ele>
        <time>2014-06-04T06:38:43Z</time>
      </trkpt>
      <trkpt lat="44.59912" lon="2.39875">
        <ele>353.9</ele>
        <time>2014-06-04T06:39:01Z</time>
      </trkpt>
      <trkpt lat="44.59918" lon="2.39857">
        <ele>352.46</ele>
        <time>2014-06-04T06:39:18Z</time>
      </trkpt>
      <trkpt lat="44.59922" lon="2.39826">
        <ele>350.54</ele>
        <time>2014-06-04T06:39:34Z</time>
      </trkpt>
      <trkpt lat="44.59922" lon="2.39817">
        <ele>349.58</ele>
        <time>2014-06-04T06:39:39Z</time>
      </trkpt>
      <trkpt lat="44.59923" lon="2.39785">
        <ele>346.69</ele>
        <time>2014-06-04T06:39:58Z</time>
      </trkpt>
      <trkpt lat="44.59918" lon="2.39755">
        <ele>343.33</ele>
        <time>2014-06-04T06:40:17Z</time>
      </trkpt>
      <trkpt lat="44.59909" lon="2.39721">
        <ele>341.89</ele>
        <time>2014-06-04T06:40:40Z</time>
      </trkpt>
      <trkpt lat="44.59905" lon="2.39706">
        <ele>339.96</ele>
        <time>2014-06-04T06:40:58Z</time>
      </trkpt>
      <trkpt lat="44.59907" lon="2.39672">
        <ele>339</ele>
        <time>2014-06-04T06:41:20Z</time>
      </trkpt>
      <trkpt lat="44.59901" lon="2.39649">
        <ele>337.56</ele>
        <time>2014-06-04T06:41:42Z</time>
      </trkpt>
      <trkpt lat="44.59894" lon="2.3965">
        <ele>337.56</ele>
        <time>2014-06-04T06:42:06Z</time>
      </trkpt>
      <trkpt lat="44.59892" lon="2.39652">
        <ele>337.56</ele>
        <time>2014-06-04T06:42:28Z</time>
      </trkpt>
      <trkpt lat="44.5989" lon="2.39646">
        <ele>338.04</ele>
        <time>2014-06-04T06:42:54Z</time>
      </trkpt>
      <trkpt lat="44.59891" lon="2.39645">
        <ele>339</ele>
        <time>2014-06-04T06:42:58Z</time>
      </trkpt>
      <trkpt lat="44.5989" lon="2.39649">
        <ele>338.52</ele>
        <time>2014-06-04T06:43:20Z</time>
      </trkpt>
      <trkpt lat="44.59889" lon="2.39642">
        <ele>337.56</ele>
        <time>2014-06-04T06:43:41Z</time>
      </trkpt>
      <trkpt lat="44.59885" lon="2.39636">
        <ele>338.04</ele>
        <time>2014-06-04T06:44:07Z</time>
      </trkpt>
      <trkpt lat="44.59888" lon="2.39636">
        <ele>338.04</ele>
        <time>2014-06-04T06:44:33Z</time>
      </trkpt>
      <trkpt lat="44.5989" lon="2.39638">
        <ele>338.04</ele>
        <time>2014-06-04T06:44:54Z</time>
      </trkpt>
      <trkpt lat="44.59894" lon="2.39642">
        <ele>338.52</ele>
        <time>2014-06-04T06:45:15Z</time>
      </trkpt>
      <trkpt lat="44.599" lon="2.39638">
        <ele>338.52</ele>
        <time>2014-06-04T06:45:32Z</time>
      </trkpt>
      <trkpt lat="44.59896" lon="2.39636">
        <ele>337.56</ele>
        <time>2014-06-04T06:45:45Z</time>
      </trkpt>
      <trkpt lat="44.59904" lon="2.39655">
        <ele>338.52</ele>
        <time>2014-06-04T06:46:02Z</time>
      </trkpt>
      <trkpt lat="44.59909" lon="2.39652">
        <ele>338.04</ele>
        <time>2014-06-04T06:46:23Z</time>
      </trkpt>
      <trkpt lat="44.59901" lon="2.39649">
        <ele>338.04</ele>
        <time>2014-06-04T06:46:49Z</time>
      </trkpt>
      <trkpt lat="44.59907" lon="2.39655">
        <ele>338.04</ele>
        <time>2014-06-04T06:47:09Z</time>
      </trkpt>
      <trkpt lat="44.59902" lon="2.39655">
        <ele>337.56</ele>
        <time>2014-06-04T06:47:38Z</time>
      </trkpt>
      <trkpt lat="44.59903" lon="2.39653">
        <ele>338.52</ele>
        <time>2014-06-04T06:47:48Z</time>
      </trkpt>
      <trkpt lat="44.59905" lon="2.39652">
        <ele>338.52</ele>
        <time>2014-06-04T06:47:56Z</time>
      </trkpt>
      <trkpt lat="44.59898" lon="2.39649">
        <ele>338.04</ele>
        <time>2014-06-04T06:48:20Z</time>
      </trkpt>
      <trkpt lat="44.5989" lon="2.39651">
        <ele>338.04</ele>
        <time>2014-06-04T06:48:43Z</time>
      </trkpt>
      <trkpt lat="44.5989" lon="2.3965">
        <ele>337.08</ele>
        <time>2014-06-04T06:48:57Z</time>
      </trkpt>
      <trkpt lat="44.59885" lon="2.39654">
        <ele>338.04</ele>
        <time>2014-06-04T06:49:15Z</time>
      </trkpt>
      <trkpt lat="44.59891" lon="2.39661">
        <ele>338.04</ele>
        <time>2014-06-04T06:49:38Z</time>
      </trkpt>
      <trkpt lat="44.59896" lon="2.39682">
        <ele>337.08</ele>
        <time>2014-06-04T06:50:00Z</time>
      </trkpt>
      <trkpt lat="44.59896" lon="2.39704">
        <ele>337.08</ele>
        <time>2014-06-04T06:50:15Z</time>
      </trkpt>
      <trkpt lat="44.59896" lon="2.39704">
        <ele>335.64</ele>
        <time>2014-06-04T06:50:16Z</time>
      </trkpt>
      <trkpt lat="44.59895" lon="2.39688">
        <ele>333.71</ele>
        <time>2014-06-04T06:50:40Z</time>
      </trkpt>
      <trkpt lat="44.5989" lon="2.39674">
        <ele>331.31</ele>
        <time>2014-06-04T06:51:00Z</time>
      </trkpt>
      <trkpt lat="44.59889" lon="2.39672">
        <ele>330.83</ele>
        <time>2014-06-04T06:51:02Z</time>
      </trkpt>
      <trkpt lat="44.59883" lon="2.39657">
        <ele>329.39</ele>
        <time>2014-06-04T06:51:13Z</time>
      </trkpt>
      <trkpt lat="44.5988" lon="2.3963">
        <ele>327.47</ele>
        <time>2014-06-04T06:51:31Z</time>
      </trkpt>
      <trkpt lat="44.59882" lon="2.39611">
        <ele>325.54</ele>
        <time>2014-06-04T06:51:44Z</time>
      </trkpt>
      <trkpt lat="44.59883" lon="2.39608">
        <ele>326.99</ele>
        <time>2014-06-04T06:51:45Z</time>
      </trkpt>
      <trkpt lat="44.59881" lon="2.3959">
        <ele>325.06</ele>
        <time>2014-06-04T06:51:58Z</time>
      </trkpt>
      <trkpt lat="44.5988" lon="2.39585">
        <ele>324.58</ele>
        <time>2014-06-04T06:52:01Z</time>
      </trkpt>
      <trkpt lat="44.59877" lon="2.39565">
        <ele>323.62</ele>
        <time>2014-06-04T06:52:14Z</time>
      </trkpt>
      <trkpt lat="44.59877" lon="2.39563">
        <ele>322.18</ele>
        <time>2014-06-04T06:52:15Z</time>
      </trkpt>
      <trkpt lat="44.59859" lon="2.39542">
        <ele>319.3</ele>
        <time>2014-06-04T06:52:36Z</time>
      </trkpt>
      <trkpt lat="44.59844" lon="2.39528">
        <ele>317.37</ele>
        <time>2014-06-04T06:52:54Z</time>
      </trkpt>
      <trkpt lat="44.59843" lon="2.39514">
        <ele>313.53</ele>
        <time>2014-06-04T06:53:09Z</time>
      </trkpt>
      <trkpt lat="44.59832" lon="2.39492">
        <ele>312.57</ele>
        <time>2014-06-04T06:53:27Z</time>
      </trkpt>
      <trkpt lat="44.59822" lon="2.39476">
        <ele>309.2</ele>
        <time>2014-06-04T06:53:44Z</time>
      </trkpt>
      <trkpt lat="44.59813" lon="2.3946">
        <ele>306.32</ele>
        <time>2014-06-04T06:54:03Z</time>
      </trkpt>
      <trkpt lat="44.59812" lon="2.39445">
        <ele>302.95</ele>
        <time>2014-06-04T06:54:17Z</time>
      </trkpt>
      <trkpt lat="44.5981" lon="2.3944">
        <ele>302.47</ele>
        <time>2014-06-04T06:54:22Z</time>
      </trkpt>
      <trkpt lat="44.59809" lon="2.39423">
        <ele>299.11</ele>
        <time>2014-06-04T06:54:38Z</time>
      </trkpt>
      <trkpt lat="44.59808" lon="2.39406">
        <ele>296.7</ele>
        <time>2014-06-04T06:54:58Z</time>
      </trkpt>
      <trkpt lat="44.59815" lon="2.39391">
        <ele>292.86</ele>
        <time>2014-06-04T06:55:16Z</time>
      </trkpt>
      <trkpt lat="44.5981" lon="2.3937">
        <ele>289.49</ele>
        <time>2014-06-04T06:55:34Z</time>
      </trkpt>
      <trkpt lat="44.59812" lon="2.39356">
        <ele>286.61</ele>
        <time>2014-06-04T06:55:48Z</time>
      </trkpt>
      <trkpt lat="44.59819" lon="2.39345">
        <ele>283.73</ele>
        <time>2014-06-04T06:56:05Z</time>
      </trkpt>
      <trkpt lat="44.59813" lon="2.39345">
        <ele>284.69</ele>
        <time>2014-06-04T06:56:27Z</time>
      </trkpt>
      <trkpt lat="44.59814" lon="2.39347">
        <ele>285.17</ele>
        <time>2014-06-04T06:56:40Z</time>
      </trkpt>
      <trkpt lat="44.59814" lon="2.39347">
        <ele>286.61</ele>
        <time>2014-06-04T06:56:41Z</time>
      </trkpt>
      <trkpt lat="44.59814" lon="2.39346">
        <ele>283.73</ele>
        <time>2014-06-04T06:56:42Z</time>
      </trkpt>
      <trkpt lat="44.59814" lon="2.39346">
        <ele>287.57</ele>
        <time>2014-06-04T06:56:43Z</time>
      </trkpt>
      <trkpt lat="44.59814" lon="2.39345">
        <ele>285.17</ele>
        <time>2014-06-04T06:56:44Z</time>
      </trkpt>
      <trkpt lat="44.59814" lon="2.39344">
        <ele>288.05</ele>
        <time>2014-06-04T06:56:45Z</time>
      </trkpt>
      <trkpt lat="44.59814" lon="2.39344">
        <ele>285.65</ele>
        <time>2014-06-04T06:56:46Z</time>
      </trkpt>
      <trkpt lat="44.59817" lon="2.39343">
        <ele>284.69</ele>
        <time>2014-06-04T06:57:05Z</time>
      </trkpt>
      <trkpt lat="44.59817" lon="2.39343">
        <ele>284.69</ele>
        <time>2014-06-04T06:57:18Z</time>
      </trkpt>
      <trkpt lat="44.59817" lon="2.39343">
        <ele>285.65</ele>
        <time>2014-06-04T06:57:19Z</time>
      </trkpt>
      <trkpt lat="44.59814" lon="2.39346">
        <ele>284.21</ele>
        <time>2014-06-04T06:57:29Z</time>
      </trkpt>
      <trkpt lat="44.59814" lon="2.39347">
        <ele>285.65</ele>
        <time>2014-06-04T06:57:30Z</time>
      </trkpt>
      <trkpt lat="44.59812" lon="2.39333">
        <ele>284.21</ele>
        <time>2014-06-04T06:57:58Z</time>
      </trkpt>
      <trkpt lat="44.59808" lon="2.39324">
        <ele>281.8</ele>
        <time>2014-06-04T06:58:16Z</time>
      </trkpt>
      <trkpt lat="44.59804" lon="2.39323">
        <ele>282.77</ele>
        <time>2014-06-04T06:58:30Z</time>
      </trkpt>
      <trkpt lat="44.59803" lon="2.39324">
        <ele>280.36</ele>
        <time>2014-06-04T06:58:34Z</time>
      </trkpt>
      <trkpt lat="44.59803" lon="2.39324">
        <ele>281.8</ele>
        <time>2014-06-04T06:58:35Z</time>
      </trkpt>
      <trkpt lat="44.59804" lon="2.39324">
        <ele>279.88</ele>
        <time>2014-06-04T06:58:38Z</time>
      </trkpt>
      <trkpt lat="44.59804" lon="2.39324">
        <ele>282.28</ele>
        <time>2014-06-04T06:58:39Z</time>
      </trkpt>
      <trkpt lat="44.59804" lon="2.39323">
        <ele>280.84</ele>
        <time>2014-06-04T06:58:40Z</time>
      </trkpt>
      <trkpt lat="44.59804" lon="2.39323">
        <ele>282.77</ele>
        <time>2014-06-04T06:58:41Z</time>
      </trkpt>
      <trkpt lat="44.59804" lon="2.39323">
        <ele>280.84</ele>
        <time>2014-06-04T06:58:42Z</time>
      </trkpt>
      <trkpt lat="44.59803" lon="2.39322">
        <ele>280.84</ele>
        <time>2014-06-04T06:59:00Z</time>
      </trkpt>
      <trkpt lat="44.59802" lon="2.39313">
        <ele>277.96</ele>
        <time>2014-06-04T06:59:14Z</time>
      </trkpt>
      <trkpt lat="44.59801" lon="2.39308">
        <ele>276.52</ele>
        <time>2014-06-04T06:59:23Z</time>
      </trkpt>
      <trkpt lat="44.59803" lon="2.39306">
        <ele>277.96</ele>
        <time>2014-06-04T06:59:26Z</time>
      </trkpt>
      <trkpt lat="44.59803" lon="2.39305">
        <ele>276.04</ele>
        <time>2014-06-04T06:59:27Z</time>
      </trkpt>
      <trkpt lat="44.59805" lon="2.39303">
        <ele>275.07</ele>
        <time>2014-06-04T06:59:29Z</time>
      </trkpt>
      <trkpt lat="44.59808" lon="2.39298">
        <ele>274.11</ele>
        <time>2014-06-04T06:59:37Z</time>
      </trkpt>
      <trkpt lat="44.59809" lon="2.39294">
        <ele>273.63</ele>
        <time>2014-06-04T06:59:43Z</time>
      </trkpt>
      <trkpt lat="44.59811" lon="2.39287">
        <ele>274.59</ele>
        <time>2014-06-04T06:59:53Z</time>
      </trkpt>
      <trkpt lat="44.59812" lon="2.39287">
        <ele>273.15</ele>
        <time>2014-06-04T06:59:54Z</time>
      </trkpt>
      <trkpt lat="44.59815" lon="2.39282">
        <ele>272.67</ele>
        <time>2014-06-04T07:00:03Z</time>
      </trkpt>
      <trkpt lat="44.59816" lon="2.39277">
        <ele>271.71</ele>
        <time>2014-06-04T07:00:07Z</time>
      </trkpt>
      <trkpt lat="44.59815" lon="2.39277">
        <ele>271.71</ele>
        <time>2014-06-04T07:00:28Z</time>
      </trkpt>
      <trkpt lat="44.59801" lon="2.39292">
        <ele>272.19</ele>
        <time>2014-06-04T07:00:51Z</time>
      </trkpt>
      <trkpt lat="44.59797" lon="2.39301">
        <ele>272.19</ele>
        <time>2014-06-04T07:01:20Z</time>
      </trkpt>
      <trkpt lat="44.59799" lon="2.39306">
        <ele>272.67</ele>
        <time>2014-06-04T07:01:42Z</time>
      </trkpt>
      <trkpt lat="44.59807" lon="2.39311">
        <ele>272.19</ele>
        <time>2014-06-04T07:01:56Z</time>
      </trkpt>
      <trkpt lat="44.59812" lon="2.39334">
        <ele>271.71</ele>
        <time>2014-06-04T07:02:11Z</time>
      </trkpt>
      <trkpt lat="44.59812" lon="2.39333">
        <ele>272.19</ele>
        <time>2014-06-04T07:02:36Z</time>
      </trkpt>
      <trkpt lat="44.59813" lon="2.39322">
        <ele>271.71</ele>
        <time>2014-06-04T07:03:15Z</time>
      </trkpt>
      <trkpt lat="44.59812" lon="2.39323">
        <ele>271.71</ele>
        <time>2014-06-04T07:03:45Z</time>
      </trkpt>
      <trkpt lat="44.59812" lon="2.39309">
        <ele>271.23</ele>
        <time>2014-06-04T07:03:59Z</time>
      </trkpt>
      <trkpt lat="44.59813" lon="2.39299">
        <ele>270.75</ele>
        <time>2014-06-04T07:04:04Z</time>
      </trkpt>
      <trkpt lat="44.59817" lon="2.39275">
        <ele>268.83</ele>
        <time>2014-06-04T07:04:13Z</time>
      </trkpt>
      <trkpt lat="44.59822" lon="2.39254">
        <ele>269.31</ele>
        <time>2014-06-04T07:04:24Z</time>
      </trkpt>
      <trkpt lat="44.59822" lon="2.39242">
        <ele>267.38</ele>
        <time>2014-06-04T07:04:37Z</time>
      </trkpt>
      <trkpt lat="44.59825" lon="2.39222">
        <ele>268.35</ele>
        <time>2014-06-04T07:04:53Z</time>
      </trkpt>
      <trkpt lat="44.59827" lon="2.39222">
        <ele>267.38</ele>
        <time>2014-06-04T07:05:02Z</time>
      </trkpt>
      <trkpt lat="44.59829" lon="2.39208">
        <ele>265.94</ele>
        <time>2014-06-04T07:05:07Z</time>
      </trkpt>
      <trkpt lat="44.59828" lon="2.39201">
        <ele>267.86</ele>
        <time>2014-06-04T07:05:09Z</time>
      </trkpt>
      <trkpt lat="44.59821" lon="2.39181">
        <ele>269.31</ele>
        <time>2014-06-04T07:05:15Z</time>
      </trkpt>
      <trkpt lat="44.59799" lon="2.39133">
        <ele>273.15</ele>
        <time>2014-06-04T07:05:32Z</time>
      </trkpt>
      <trkpt lat="44.59797" lon="2.39131">
        <ele>273.63</ele>
        <time>2014-06-04T07:05:33Z</time>
      </trkpt>
      <trkpt lat="44.59777" lon="2.39111">
        <ele>276.52</ele>
        <time>2014-06-04T07:05:43Z</time>
      </trkpt>
      <trkpt lat="44.59775" lon="2.39109">
        <ele>276.04</ele>
        <time>2014-06-04T07:05:44Z</time>
      </trkpt>
      <trkpt lat="44.59774" lon="2.3909">
        <ele>277</ele>
        <time>2014-06-04T07:06:01Z</time>
      </trkpt>
      <trkpt lat="44.5977" lon="2.39091">
        <ele>280.84</ele>
        <time>2014-06-04T07:06:10Z</time>
      </trkpt>
      <trkpt lat="44.59763" lon="2.39076">
        <ele>282.28</ele>
        <time>2014-06-04T07:06:27Z</time>
      </trkpt>
      <trkpt lat="44.59761" lon="2.39071">
        <ele>285.17</ele>
        <time>2014-06-04T07:06:39Z</time>
      </trkpt>
      <trkpt lat="44.59759" lon="2.39065">
        <ele>288.53</ele>
        <time>2014-06-04T07:07:01Z</time>
      </trkpt>
      <trkpt lat="44.59755" lon="2.39061">
        <ele>289.97</ele>
        <time>2014-06-04T07:07:19Z</time>
      </trkpt>
      <trkpt lat="44.59749" lon="2.3906">
        <ele>292.38</ele>
        <time>2014-06-04T07:07:36Z</time>
      </trkpt>
      <trkpt lat="44.59744" lon="2.39055">
        <ele>292.86</ele>
        <time>2014-06-04T07:07:44Z</time>
      </trkpt>
      <trkpt lat="44.59743" lon="2.39054">
        <ele>294.78</ele>
        <time>2014-06-04T07:07:46Z</time>
      </trkpt>
      <trkpt lat="44.59739" lon="2.39047">
        <ele>298.15</ele>
        <time>2014-06-04T07:08:00Z</time>
      </trkpt>
      <trkpt lat="44.59735" lon="2.39045">
        <ele>299.59</ele>
        <time>2014-06-04T07:08:17Z</time>
      </trkpt>
      <trkpt lat="44.5973" lon="2.39038">
        <ele>302.47</ele>
        <time>2014-06-04T07:08:26Z</time>
      </trkpt>
      <trkpt lat="44.59731" lon="2.39022">
        <ele>302.47</ele>
        <time>2014-06-04T07:08:40Z</time>
      </trkpt>
      <trkpt lat="44.59729" lon="2.39023">
        <ele>305.36</ele>
        <time>2014-06-04T07:08:47Z</time>
      </trkpt>
      <trkpt lat="44.5972" lon="2.39025">
        <ele>308.72</ele>
        <time>2014-06-04T07:09:03Z</time>
      </trkpt>
      <trkpt lat="44.59715" lon="2.39035">
        <ele>311.6</ele>
        <time>2014-06-04T07:09:19Z</time>
      </trkpt>
      <trkpt lat="44.59702" lon="2.39026">
        <ele>314.49</ele>
        <time>2014-06-04T07:09:36Z</time>
      </trkpt>
      <trkpt lat="44.59699" lon="2.39016">
        <ele>318.33</ele>
        <time>2014-06-04T07:09:50Z</time>
      </trkpt>
      <trkpt lat="44.59692" lon="2.39">
        <ele>321.22</ele>
        <time>2014-06-04T07:10:09Z</time>
      </trkpt>
      <trkpt lat="44.59689" lon="2.38982">
        <ele>324.58</ele>
        <time>2014-06-04T07:10:27Z</time>
      </trkpt>
      <trkpt lat="44.59686" lon="2.38976">
        <ele>327.95</ele>
        <time>2014-06-04T07:10:38Z</time>
      </trkpt>
      <trkpt lat="44.59686" lon="2.38976">
        <ele>327.47</ele>
        <time>2014-06-04T07:10:39Z</time>
      </trkpt>
      <trkpt lat="44.59685" lon="2.38968">
        <ele>330.35</ele>
        <time>2014-06-04T07:10:53Z</time>
      </trkpt>
      <trkpt lat="44.59683" lon="2.3896">
        <ele>332.27</ele>
        <time>2014-06-04T07:11:09Z</time>
      </trkpt>
      <trkpt lat="44.59682" lon="2.38955">
        <ele>335.64</ele>
        <time>2014-06-04T07:11:20Z</time>
      </trkpt>
      <trkpt lat="44.59681" lon="2.38955">
        <ele>336.12</ele>
        <time>2014-06-04T07:11:24Z</time>
      </trkpt>
      <trkpt lat="44.5968" lon="2.38953">
        <ele>337.08</ele>
        <time>2014-06-04T07:11:31Z</time>
      </trkpt>
      <trkpt lat="44.59679" lon="2.38948">
        <ele>339.96</ele>
        <time>2014-06-04T07:11:41Z</time>
      </trkpt>
      <trkpt lat="44.59673" lon="2.38937">
        <ele>342.37</ele>
        <time>2014-06-04T07:11:58Z</time>
      </trkpt>
      <trkpt lat="44.59667" lon="2.38922">
        <ele>346.69</ele>
        <time>2014-06-04T07:12:16Z</time>
      </trkpt>
      <trkpt lat="44.59664" lon="2.38913">
        <ele>348.62</ele>
        <time>2014-06-04T07:12:26Z</time>
      </trkpt>
      <trkpt lat="44.59662" lon="2.38895">
        <ele>350.54</ele>
        <time>2014-06-04T07:12:44Z</time>
      </trkpt>
      <trkpt lat="44.59662" lon="2.38877">
        <ele>351.98</ele>
        <time>2014-06-04T07:13:01Z</time>
      </trkpt>
      <trkpt lat="44.59659" lon="2.38865">
        <ele>354.38</ele>
        <time>2014-06-04T07:13:20Z</time>
      </trkpt>
      <trkpt lat="44.5965" lon="2.3886">
        <ele>357.75</ele>
        <time>2014-06-04T07:13:29Z</time>
      </trkpt>
      <trkpt lat="44.59648" lon="2.38853">
        <ele>358.71</ele>
        <time>2014-06-04T07:13:35Z</time>
      </trkpt>
      <trkpt lat="44.59645" lon="2.38849">
        <ele>359.67</ele>
        <time>2014-06-04T07:13:39Z</time>
      </trkpt>
      <trkpt lat="44.59644" lon="2.38847">
        <ele>360.15</ele>
        <time>2014-06-04T07:13:41Z</time>
      </trkpt>
      <trkpt lat="44.59638" lon="2.38837">
        <ele>363.04</ele>
        <time>2014-06-04T07:13:55Z</time>
      </trkpt>
      <trkpt lat="44.59636" lon="2.38835">
        <ele>363.52</ele>
        <time>2014-06-04T07:13:58Z</time>
      </trkpt>
      <trkpt lat="44.59636" lon="2.38828">
        <ele>364.48</ele>
        <time>2014-06-04T07:14:05Z</time>
      </trkpt>
      <trkpt lat="44.59631" lon="2.38815">
        <ele>366.88</ele>
        <time>2014-06-04T07:14:21Z</time>
      </trkpt>
      <trkpt lat="44.59631" lon="2.38814">
        <ele>368.32</ele>
        <time>2014-06-04T07:14:22Z</time>
      </trkpt>
      <trkpt lat="44.5963" lon="2.38813">
        <ele>366.4</ele>
        <time>2014-06-04T07:14:23Z</time>
      </trkpt>
      <trkpt lat="44.5963" lon="2.38813">
        <ele>368.8</ele>
        <time>2014-06-04T07:14:24Z</time>
      </trkpt>
      <trkpt lat="44.59627" lon="2.38812">
        <ele>369.28</ele>
        <time>2014-06-04T07:14:28Z</time>
      </trkpt>
      <trkpt lat="44.5962" lon="2.38797">
        <ele>372.65</ele>
        <time>2014-06-04T07:14:46Z</time>
      </trkpt>
      <trkpt lat="44.59613" lon="2.38785">
        <ele>375.53</ele>
        <time>2014-06-04T07:15:00Z</time>
      </trkpt>
      <trkpt lat="44.5961" lon="2.38779">
        <ele>376.97</ele>
        <time>2014-06-04T07:15:08Z</time>
      </trkpt>
      <trkpt lat="44.59611" lon="2.38778">
        <ele>377.94</ele>
        <time>2014-06-04T07:15:10Z</time>
      </trkpt>
      <trkpt lat="44.59616" lon="2.38755">
        <ele>377.94</ele>
        <time>2014-06-04T07:15:27Z</time>
      </trkpt>
      <trkpt lat="44.59632" lon="2.38742">
        <ele>380.82</ele>
        <time>2014-06-04T07:15:44Z</time>
      </trkpt>
      <trkpt lat="44.5963" lon="2.38735">
        <ele>383.22</ele>
        <time>2014-06-04T07:16:00Z</time>
      </trkpt>
      <trkpt lat="44.5963" lon="2.38741">
        <ele>386.59</ele>
        <time>2014-06-04T07:16:14Z</time>
      </trkpt>
      <trkpt lat="44.59627" lon="2.38732">
        <ele>389.95</ele>
        <time>2014-06-04T07:16:29Z</time>
      </trkpt>
      <trkpt lat="44.59628" lon="2.38729">
        <ele>391.39</ele>
        <time>2014-06-04T07:16:33Z</time>
      </trkpt>
      <trkpt lat="44.5963" lon="2.38715">
        <ele>393.8</ele>
        <time>2014-06-04T07:16:49Z</time>
      </trkpt>
      <trkpt lat="44.5963" lon="2.38707">
        <ele>395.72</ele>
        <time>2014-06-04T07:17:02Z</time>
      </trkpt>
      <trkpt lat="44.59619" lon="2.38704">
        <ele>395.72</ele>
        <time>2014-06-04T07:17:31Z</time>
      </trkpt>
      <trkpt lat="44.59622" lon="2.38696">
        <ele>398.12</ele>
        <time>2014-06-04T07:17:42Z</time>
      </trkpt>
      <trkpt lat="44.59616" lon="2.38702">
        <ele>401.01</ele>
        <time>2014-06-04T07:17:59Z</time>
      </trkpt>
      <trkpt lat="44.59617" lon="2.38709">
        <ele>401.01</ele>
        <time>2014-06-04T07:18:14Z</time>
      </trkpt>
      <trkpt lat="44.59618" lon="2.3872">
        <ele>401.49</ele>
        <time>2014-06-04T07:18:32Z</time>
      </trkpt>
      <trkpt lat="44.59618" lon="2.38721">
        <ele>400.53</ele>
        <time>2014-06-04T07:18:34Z</time>
      </trkpt>
      <trkpt lat="44.59621" lon="2.388">
        <ele>401.01</ele>
        <time>2014-06-04T07:19:03Z</time>
      </trkpt>
      <trkpt lat="44.59615" lon="2.38717">
        <ele>400.53</ele>
        <time>2014-06-04T07:19:47Z</time>
      </trkpt>
      <trkpt lat="44.59617" lon="2.38713">
        <ele>401.49</ele>
        <time>2014-06-04T07:20:05Z</time>
      </trkpt>
      <trkpt lat="44.59624" lon="2.38703">
        <ele>401.01</ele>
        <time>2014-06-04T07:20:30Z</time>
      </trkpt>
      <trkpt lat="44.59623" lon="2.38706">
        <ele>401.01</ele>
        <time>2014-06-04T07:20:49Z</time>
      </trkpt>
      <trkpt lat="44.59625" lon="2.38707">
        <ele>400.53</ele>
        <time>2014-06-04T07:21:08Z</time>
      </trkpt>
      <trkpt lat="44.5963" lon="2.38702">
        <ele>400.05</ele>
        <time>2014-06-04T07:21:37Z</time>
      </trkpt>
      <trkpt lat="44.5962" lon="2.38706">
        <ele>399.57</ele>
        <time>2014-06-04T07:22:06Z</time>
      </trkpt>
      <trkpt lat="44.59622" lon="2.38708">
        <ele>400.05</ele>
        <time>2014-06-04T07:22:27Z</time>
      </trkpt>
      <trkpt lat="44.59624" lon="2.38714">
        <ele>399.57</ele>
        <time>2014-06-04T07:22:53Z</time>
      </trkpt>
      <trkpt lat="44.59636" lon="2.38705">
        <ele>399.08</ele>
        <time>2014-06-04T07:23:20Z</time>
      </trkpt>
      <trkpt lat="44.59628" lon="2.38706">
        <ele>398.6</ele>
        <time>2014-06-04T07:23:43Z</time>
      </trkpt>
      <trkpt lat="44.59628" lon="2.38706">
        <ele>393.8</ele>
        <time>2014-06-04T07:23:44Z</time>
      </trkpt>
      <trkpt lat="44.59629" lon="2.38706">
        <ele>399.57</ele>
        <time>2014-06-04T07:23:45Z</time>
      </trkpt>
      <trkpt lat="44.5963" lon="2.38705">
        <ele>404.37</ele>
        <time>2014-06-04T07:23:53Z</time>
      </trkpt>
      <trkpt lat="44.5963" lon="2.38704">
        <ele>404.37</ele>
        <time>2014-06-04T07:23:54Z</time>
      </trkpt>
      <trkpt lat="44.59629" lon="2.38704">
        <ele>399.57</ele>
        <time>2014-06-04T07:23:55Z</time>
      </trkpt>
      <trkpt lat="44.59628" lon="2.38704">
        <ele>399.08</ele>
        <time>2014-06-04T07:23:57Z</time>
      </trkpt>
      <trkpt lat="44.59621" lon="2.38712">
        <ele>399.08</ele>
        <time>2014-06-04T07:24:22Z</time>
      </trkpt>
      <trkpt lat="44.59619" lon="2.38705">
        <ele>399.08</ele>
        <time>2014-06-04T07:24:43Z</time>
      </trkpt>
      <trkpt lat="44.59628" lon="2.38709">
        <ele>399.08</ele>
        <time>2014-06-04T07:25:08Z</time>
      </trkpt>
      <trkpt lat="44.59634" lon="2.38705">
        <ele>399.08</ele>
        <time>2014-06-04T07:25:27Z</time>
      </trkpt>
      <trkpt lat="44.5963" lon="2.38707">
        <ele>399.08</ele>
        <time>2014-06-04T07:25:51Z</time>
      </trkpt>
      <trkpt lat="44.5962" lon="2.38703">
        <ele>398.6</ele>
        <time>2014-06-04T07:26:16Z</time>
      </trkpt>
      <trkpt lat="44.59631" lon="2.38703">
        <ele>399.08</ele>
        <time>2014-06-04T07:26:37Z</time>
      </trkpt>
      <trkpt lat="44.59626" lon="2.38705">
        <ele>398.12</ele>
        <time>2014-06-04T07:27:01Z</time>
      </trkpt>
      <trkpt lat="44.59623" lon="2.38708">
        <ele>398.12</ele>
        <time>2014-06-04T07:27:33Z</time>
      </trkpt>
      <trkpt lat="44.59623" lon="2.38704">
        <ele>398.12</ele>
        <time>2014-06-04T07:27:59Z</time>
      </trkpt>
      <trkpt lat="44.5963" lon="2.38705">
        <ele>398.12</ele>
        <time>2014-06-04T07:28:18Z</time>
      </trkpt>
      <trkpt lat="44.59624" lon="2.38702">
        <ele>397.64</ele>
        <time>2014-06-04T07:28:41Z</time>
      </trkpt>
      <trkpt lat="44.59619" lon="2.38707">
        <ele>397.16</ele>
        <time>2014-06-04T07:29:11Z</time>
      </trkpt>
      <trkpt lat="44.59621" lon="2.38706">
        <ele>397.16</ele>
        <time>2014-06-04T07:29:35Z</time>
      </trkpt>
      <trkpt lat="44.59623" lon="2.38707">
        <ele>397.64</ele>
        <time>2014-06-04T07:30:00Z</time>
      </trkpt>
      <trkpt lat="44.59618" lon="2.38694">
        <ele>397.16</ele>
        <time>2014-06-04T07:30:18Z</time>
      </trkpt>
      <trkpt lat="44.59616" lon="2.3868">
        <ele>400.53</ele>
        <time>2014-06-04T07:30:34Z</time>
      </trkpt>
      <trkpt lat="44.59607" lon="2.38693">
        <ele>403.89</ele>
        <time>2014-06-04T07:30:54Z</time>
      </trkpt>
      <trkpt lat="44.59598" lon="2.38705">
        <ele>405.81</ele>
        <time>2014-06-04T07:31:10Z</time>
      </trkpt>
      <trkpt lat="44.59591" lon="2.38727">
        <ele>407.74</ele>
        <time>2014-06-04T07:31:30Z</time>
      </trkpt>
      <trkpt lat="44.59586" lon="2.38738">
        <ele>409.66</ele>
        <time>2014-06-04T07:31:47Z</time>
      </trkpt>
      <trkpt lat="44.59588" lon="2.38734">
        <ele>409.18</ele>
        <time>2014-06-04T07:32:10Z</time>
      </trkpt>
      <trkpt lat="44.59585" lon="2.38744">
        <ele>412.54</ele>
        <time>2014-06-04T07:32:27Z</time>
      </trkpt>
      <trkpt lat="44.59579" lon="2.38757">
        <ele>414.95</ele>
        <time>2014-06-04T07:32:46Z</time>
      </trkpt>
      <trkpt lat="44.59573" lon="2.3877">
        <ele>417.35</ele>
        <time>2014-06-04T07:33:05Z</time>
      </trkpt>
      <trkpt lat="44.59573" lon="2.38779">
        <ele>418.31</ele>
        <time>2014-06-04T07:33:23Z</time>
      </trkpt>
      <trkpt lat="44.59571" lon="2.38791">
        <ele>421.19</ele>
        <time>2014-06-04T07:33:37Z</time>
      </trkpt>
      <trkpt lat="44.59569" lon="2.38806">
        <ele>424.56</ele>
        <time>2014-06-04T07:33:51Z</time>
      </trkpt>
      <trkpt lat="44.59566" lon="2.38824">
        <ele>426.96</ele>
        <time>2014-06-04T07:34:11Z</time>
      </trkpt>
      <trkpt lat="44.5956" lon="2.3884">
        <ele>428.89</ele>
        <time>2014-06-04T07:34:29Z</time>
      </trkpt>
      <trkpt lat="44.59553" lon="2.38849">
        <ele>432.25</ele>
        <time>2014-06-04T07:34:49Z</time>
      </trkpt>
      <trkpt lat="44.5955" lon="2.38864">
        <ele>435.13</ele>
        <time>2014-06-04T07:35:12Z</time>
      </trkpt>
      <trkpt lat="44.59548" lon="2.38874">
        <ele>438.02</ele>
        <time>2014-06-04T07:35:31Z</time>
      </trkpt>
      <trkpt lat="44.59543" lon="2.3889">
        <ele>440.9</ele>
        <time>2014-06-04T07:35:52Z</time>
      </trkpt>
      <trkpt lat="44.59541" lon="2.38906">
        <ele>443.79</ele>
        <time>2014-06-04T07:36:12Z</time>
      </trkpt>
      <trkpt lat="44.59529" lon="2.38913">
        <ele>445.23</ele>
        <time>2014-06-04T07:36:32Z</time>
      </trkpt>
      <trkpt lat="44.59514" lon="2.38913">
        <ele>447.63</ele>
        <time>2014-06-04T07:36:53Z</time>
      </trkpt>
      <trkpt lat="44.59502" lon="2.38914">
        <ele>449.07</ele>
        <time>2014-06-04T07:37:11Z</time>
      </trkpt>
      <trkpt lat="44.59492" lon="2.38912">
        <ele>451</ele>
        <time>2014-06-04T07:37:30Z</time>
      </trkpt>
      <trkpt lat="44.59478" lon="2.38906">
        <ele>453.4</ele>
        <time>2014-06-04T07:37:48Z</time>
      </trkpt>
      <trkpt lat="44.59466" lon="2.38896">
        <ele>455.8</ele>
        <time>2014-06-04T07:38:08Z</time>
      </trkpt>
      <trkpt lat="44.59457" lon="2.38884">
        <ele>458.21</ele>
        <time>2014-06-04T07:38:27Z</time>
      </trkpt>
      <trkpt lat="44.5945" lon="2.38876">
        <ele>461.09</ele>
        <time>2014-06-04T07:38:40Z</time>
      </trkpt>
      <trkpt lat="44.59435" lon="2.3887">
        <ele>463.97</ele>
        <time>2014-06-04T07:38:57Z</time>
      </trkpt>
      <trkpt lat="44.59426" lon="2.38861">
        <ele>467.34</ele>
        <time>2014-06-04T07:39:14Z</time>
      </trkpt>
      <trkpt lat="44.59415" lon="2.38856">
        <ele>470.7</ele>
        <time>2014-06-04T07:39:29Z</time>
      </trkpt>
      <trkpt lat="44.594" lon="2.3885">
        <ele>474.07</ele>
        <time>2014-06-04T07:39:47Z</time>
      </trkpt>
      <trkpt lat="44.59388" lon="2.38841">
        <ele>477.43</ele>
        <time>2014-06-04T07:40:02Z</time>
      </trkpt>
      <trkpt lat="44.59375" lon="2.38828">
        <ele>479.84</ele>
        <time>2014-06-04T07:40:20Z</time>
      </trkpt>
      <trkpt lat="44.59363" lon="2.38815">
        <ele>482.24</ele>
        <time>2014-06-04T07:40:37Z</time>
      </trkpt>
      <trkpt lat="44.59354" lon="2.38803">
        <ele>484.16</ele>
        <time>2014-06-04T07:40:51Z</time>
      </trkpt>
      <trkpt lat="44.59339" lon="2.38792">
        <ele>487.05</ele>
        <time>2014-06-04T07:41:09Z</time>
      </trkpt>
      <trkpt lat="44.59326" lon="2.38781">
        <ele>489.45</ele>
        <time>2014-06-04T07:41:28Z</time>
      </trkpt>
      <trkpt lat="44.59323" lon="2.38771">
        <ele>490.89</ele>
        <time>2014-06-04T07:41:44Z</time>
      </trkpt>
      <trkpt lat="44.59333" lon="2.38767">
        <ele>493.29</ele>
        <time>2014-06-04T07:41:59Z</time>
      </trkpt>
      <trkpt lat="44.59343" lon="2.38769">
        <ele>495.7</ele>
        <time>2014-06-04T07:42:16Z</time>
      </trkpt>
      <trkpt lat="44.59349" lon="2.38759">
        <ele>498.1</ele>
        <time>2014-06-04T07:42:32Z</time>
      </trkpt>
      <trkpt lat="44.59347" lon="2.38746">
        <ele>500.98</ele>
        <time>2014-06-04T07:42:47Z</time>
      </trkpt>
      <trkpt lat="44.59353" lon="2.38727">
        <ele>503.39</ele>
        <time>2014-06-04T07:43:04Z</time>
      </trkpt>
      <trkpt lat="44.59358" lon="2.38712">
        <ele>506.75</ele>
        <time>2014-06-04T07:43:19Z</time>
      </trkpt>
      <trkpt lat="44.59365" lon="2.38701">
        <ele>510.12</ele>
        <time>2014-06-04T07:43:36Z</time>
      </trkpt>
      <trkpt lat="44.59371" lon="2.38688">
        <ele>511.56</ele>
        <time>2014-06-04T07:43:51Z</time>
      </trkpt>
      <trkpt lat="44.59371" lon="2.38687">
        <ele>512.52</ele>
        <time>2014-06-04T07:43:53Z</time>
      </trkpt>
      <trkpt lat="44.59376" lon="2.38679">
        <ele>513.48</ele>
        <time>2014-06-04T07:44:02Z</time>
      </trkpt>
      <trkpt lat="44.59383" lon="2.38662">
        <ele>516.37</ele>
        <time>2014-06-04T07:44:19Z</time>
      </trkpt>
      <trkpt lat="44.59389" lon="2.38645">
        <ele>518.29</ele>
        <time>2014-06-04T07:44:34Z</time>
      </trkpt>
      <trkpt lat="44.59394" lon="2.38626">
        <ele>519.73</ele>
        <time>2014-06-04T07:44:50Z</time>
      </trkpt>
      <trkpt lat="44.59398" lon="2.38604">
        <ele>522.61</ele>
        <time>2014-06-04T07:45:07Z</time>
      </trkpt>
      <trkpt lat="44.594" lon="2.38591">
        <ele>522.61</ele>
        <time>2014-06-04T07:45:22Z</time>
      </trkpt>
      <trkpt lat="44.59404" lon="2.38574">
        <ele>524.54</ele>
        <time>2014-06-04T07:45:37Z</time>
      </trkpt>
      <trkpt lat="44.59408" lon="2.38551">
        <ele>525.98</ele>
        <time>2014-06-04T07:45:55Z</time>
      </trkpt>
      <trkpt lat="44.59405" lon="2.38537">
        <ele>526.46</ele>
        <time>2014-06-04T07:46:17Z</time>
      </trkpt>
      <trkpt lat="44.59403" lon="2.38534">
        <ele>526.94</ele>
        <time>2014-06-04T07:46:37Z</time>
      </trkpt>
      <trkpt lat="44.59404" lon="2.38535">
        <ele>525.98</ele>
        <time>2014-06-04T07:47:08Z</time>
      </trkpt>
      <trkpt lat="44.59403" lon="2.38537">
        <ele>525.98</ele>
        <time>2014-06-04T07:47:41Z</time>
      </trkpt>
      <trkpt lat="44.59402" lon="2.38531">
        <ele>525.5</ele>
        <time>2014-06-04T07:48:15Z</time>
      </trkpt>
      <trkpt lat="44.59393" lon="2.3852">
        <ele>526.46</ele>
        <time>2014-06-04T07:48:34Z</time>
      </trkpt>
      <trkpt lat="44.5938" lon="2.38505">
        <ele>527.9</ele>
        <time>2014-06-04T07:48:52Z</time>
      </trkpt>
      <trkpt lat="44.5937" lon="2.38488">
        <ele>530.3</ele>
        <time>2014-06-04T07:49:10Z</time>
      </trkpt>
      <trkpt lat="44.59358" lon="2.38472">
        <ele>531.27</ele>
        <time>2014-06-04T07:49:29Z</time>
      </trkpt>
      <trkpt lat="44.59346" lon="2.3846">
        <ele>534.63</ele>
        <time>2014-06-04T07:49:46Z</time>
      </trkpt>
      <trkpt lat="44.59343" lon="2.3846">
        <ele>534.63</ele>
        <time>2014-06-04T07:50:07Z</time>
      </trkpt>
      <trkpt lat="44.59342" lon="2.38457">
        <ele>535.11</ele>
        <time>2014-06-04T07:50:35Z</time>
      </trkpt>
      <trkpt lat="44.59334" lon="2.3844">
        <ele>536.55</ele>
        <time>2014-06-04T07:50:50Z</time>
      </trkpt>
      <trkpt lat="44.5933" lon="2.38431">
        <ele>538.48</ele>
        <time>2014-06-04T07:51:08Z</time>
      </trkpt>
      <trkpt lat="44.59331" lon="2.38434">
        <ele>537.99</ele>
        <time>2014-06-04T07:51:33Z</time>
      </trkpt>
      <trkpt lat="44.59331" lon="2.38428">
        <ele>537.99</ele>
        <time>2014-06-04T07:51:57Z</time>
      </trkpt>
      <trkpt lat="44.59333" lon="2.3843">
        <ele>537.99</ele>
        <time>2014-06-04T07:52:18Z</time>
      </trkpt>
      <trkpt lat="44.59328" lon="2.38427">
        <ele>537.51</ele>
        <time>2014-06-04T07:52:48Z</time>
      </trkpt>
      <trkpt lat="44.59328" lon="2.38427">
        <ele>538.96</ele>
        <time>2014-06-04T07:53:06Z</time>
      </trkpt>
      <trkpt lat="44.59325" lon="2.38424">
        <ele>537.99</ele>
        <time>2014-06-04T07:53:33Z</time>
      </trkpt>
      <trkpt lat="44.59326" lon="2.38428">
        <ele>538.48</ele>
        <time>2014-06-04T07:54:04Z</time>
      </trkpt>
      <trkpt lat="44.59319" lon="2.3841">
        <ele>539.92</ele>
        <time>2014-06-04T07:54:21Z</time>
      </trkpt>
      <trkpt lat="44.59313" lon="2.38392">
        <ele>542.32</ele>
        <time>2014-06-04T07:54:38Z</time>
      </trkpt>
      <trkpt lat="44.59311" lon="2.3838">
        <ele>543.76</ele>
        <time>2014-06-04T07:54:46Z</time>
      </trkpt>
      <trkpt lat="44.5931" lon="2.38361">
        <ele>545.2</ele>
        <time>2014-06-04T07:55:01Z</time>
      </trkpt>
      <trkpt lat="44.5931" lon="2.38341">
        <ele>544.72</ele>
        <time>2014-06-04T07:55:15Z</time>
      </trkpt>
      <trkpt lat="44.59304" lon="2.38314">
        <ele>544.72</ele>
        <time>2014-06-04T07:55:32Z</time>
      </trkpt>
      <trkpt lat="44.59295" lon="2.38278">
        <ele>544.72</ele>
        <time>2014-06-04T07:55:53Z</time>
      </trkpt>
      <trkpt lat="44.59287" lon="2.38253">
        <ele>544.24</ele>
        <time>2014-06-04T07:56:09Z</time>
      </trkpt>
      <trkpt lat="44.59281" lon="2.3823">
        <ele>544.72</ele>
        <time>2014-06-04T07:56:23Z</time>
      </trkpt>
      <trkpt lat="44.59272" lon="2.3819">
        <ele>545.2</ele>
        <time>2014-06-04T07:56:45Z</time>
      </trkpt>
      <trkpt lat="44.59268" lon="2.38156">
        <ele>546.65</ele>
        <time>2014-06-04T07:57:04Z</time>
      </trkpt>
      <trkpt lat="44.59261" lon="2.38124">
        <ele>547.13</ele>
        <time>2014-06-04T07:57:22Z</time>
      </trkpt>
      <trkpt lat="44.59256" lon="2.38099">
        <ele>548.57</ele>
        <time>2014-06-04T07:57:40Z</time>
      </trkpt>
      <trkpt lat="44.59254" lon="2.38077">
        <ele>550.97</ele>
        <time>2014-06-04T07:57:53Z</time>
      </trkpt>
      <trkpt lat="44.5925" lon="2.38053">
        <ele>553.86</ele>
        <time>2014-06-04T07:58:08Z</time>
      </trkpt>
      <trkpt lat="44.59246" lon="2.38028">
        <ele>555.3</ele>
        <time>2014-06-04T07:58:25Z</time>
      </trkpt>
      <trkpt lat="44.59239" lon="2.37999">
        <ele>556.74</ele>
        <time>2014-06-04T07:58:46Z</time>
      </trkpt>
      <trkpt lat="44.59229" lon="2.37963">
        <ele>556.26</ele>
        <time>2014-06-04T07:59:09Z</time>
      </trkpt>
      <trkpt lat="44.59227" lon="2.37955">
        <ele>556.26</ele>
        <time>2014-06-04T07:59:13Z</time>
      </trkpt>
      <trkpt lat="44.59217" lon="2.3792">
        <ele>557.22</ele>
        <time>2014-06-04T07:59:33Z</time>
      </trkpt>
      <trkpt lat="44.59216" lon="2.37916">
        <ele>556.26</ele>
        <time>2014-06-04T07:59:51Z</time>
      </trkpt>
      <trkpt lat="44.5921" lon="2.3791">
        <ele>556.74</ele>
        <time>2014-06-04T08:00:10Z</time>
      </trkpt>
      <trkpt lat="44.59216" lon="2.37912">
        <ele>556.74</ele>
        <time>2014-06-04T08:00:31Z</time>
      </trkpt>
      <trkpt lat="44.59224" lon="2.37904">
        <ele>556.74</ele>
        <time>2014-06-04T08:00:46Z</time>
      </trkpt>
      <trkpt lat="44.59239" lon="2.37889">
        <ele>555.78</ele>
        <time>2014-06-04T08:01:05Z</time>
      </trkpt>
      <trkpt lat="44.59262" lon="2.37871">
        <ele>554.82</ele>
        <time>2014-06-04T08:01:26Z</time>
      </trkpt>
      <trkpt lat="44.59278" lon="2.37839">
        <ele>553.38</ele>
        <time>2014-06-04T08:01:50Z</time>
      </trkpt>
      <trkpt lat="44.5929" lon="2.37807">
        <ele>551.93</ele>
        <time>2014-06-04T08:02:11Z</time>
      </trkpt>
      <trkpt lat="44.59293" lon="2.378">
        <ele>552.41</ele>
        <time>2014-06-04T08:02:15Z</time>
      </trkpt>
      <trkpt lat="44.59305" lon="2.37779">
        <ele>551.93</ele>
        <time>2014-06-04T08:02:30Z</time>
      </trkpt>
      <trkpt lat="44.59321" lon="2.37762">
        <ele>552.9</ele>
        <time>2014-06-04T08:02:48Z</time>
      </trkpt>
      <trkpt lat="44.59338" lon="2.37743">
        <ele>553.86</ele>
        <time>2014-06-04T08:03:06Z</time>
      </trkpt>
      <trkpt lat="44.59362" lon="2.3772">
        <ele>556.74</ele>
        <time>2014-06-04T08:03:28Z</time>
      </trkpt>
      <trkpt lat="44.59381" lon="2.37699">
        <ele>558.18</ele>
        <time>2014-06-04T08:03:47Z</time>
      </trkpt>
      <trkpt lat="44.59387" lon="2.37688">
        <ele>558.18</ele>
        <time>2014-06-04T08:03:57Z</time>
      </trkpt>
      <trkpt lat="44.5938" lon="2.37661">
        <ele>557.7</ele>
        <time>2014-06-04T08:04:16Z</time>
      </trkpt>
      <trkpt lat="44.59381" lon="2.37657">
        <ele>557.22</ele>
        <time>2014-06-04T08:04:18Z</time>
      </trkpt>
      <trkpt lat="44.59381" lon="2.37623">
        <ele>555.3</ele>
        <time>2014-06-04T08:04:38Z</time>
      </trkpt>
      <trkpt lat="44.59373" lon="2.37599">
        <ele>552.9</ele>
        <time>2014-06-04T08:04:54Z</time>
      </trkpt>
      <trkpt lat="44.59358" lon="2.37582">
        <ele>550.01</ele>
        <time>2014-06-04T08:05:10Z</time>
      </trkpt>
      <trkpt lat="44.5934" lon="2.3756">
        <ele>547.13</ele>
        <time>2014-06-04T08:05:28Z</time>
      </trkpt>
      <trkpt lat="44.59322" lon="2.37529">
        <ele>545.69</ele>
        <time>2014-06-04T08:05:48Z</time>
      </trkpt>
      <trkpt lat="44.59303" lon="2.37507">
        <ele>544.72</ele>
        <time>2014-06-04T08:06:07Z</time>
      </trkpt>
      <trkpt lat="44.59298" lon="2.37505">
        <ele>543.76</ele>
        <time>2014-06-04T08:06:12Z</time>
      </trkpt>
      <trkpt lat="44.59275" lon="2.37492">
        <ele>542.8</ele>
        <time>2014-06-04T08:06:32Z</time>
      </trkpt>
      <trkpt lat="44.59272" lon="2.37489">
        <ele>541.84</ele>
        <time>2014-06-04T08:06:35Z</time>
      </trkpt>
      <trkpt lat="44.5926" lon="2.3746">
        <ele>540.88</ele>
        <time>2014-06-04T08:06:51Z</time>
      </trkpt>
      <trkpt lat="44.59258" lon="2.37448">
        <ele>539.92</ele>
        <time>2014-06-04T08:06:58Z</time>
      </trkpt>
      <trkpt lat="44.59259" lon="2.37411">
        <ele>539.44</ele>
        <time>2014-06-04T08:07:19Z</time>
      </trkpt>
      <trkpt lat="44.59264" lon="2.37378">
        <ele>538.48</ele>
        <time>2014-06-04T08:07:37Z</time>
      </trkpt>
      <trkpt lat="44.59266" lon="2.3735">
        <ele>537.51</ele>
        <time>2014-06-04T08:07:52Z</time>
      </trkpt>
      <trkpt lat="44.59275" lon="2.37323">
        <ele>535.59</ele>
        <time>2014-06-04T08:08:07Z</time>
      </trkpt>
      <trkpt lat="44.59283" lon="2.37297">
        <ele>533.67</ele>
        <time>2014-06-04T08:08:25Z</time>
      </trkpt>
      <trkpt lat="44.59293" lon="2.37264">
        <ele>531.27</ele>
        <time>2014-06-04T08:08:46Z</time>
      </trkpt>
      <trkpt lat="44.59301" lon="2.37231">
        <ele>528.86</ele>
        <time>2014-06-04T08:09:04Z</time>
      </trkpt>
      <trkpt lat="44.59305" lon="2.37203">
        <ele>526.46</ele>
        <time>2014-06-04T08:09:20Z</time>
      </trkpt>
      <trkpt lat="44.59311" lon="2.37176">
        <ele>524.54</ele>
        <time>2014-06-04T08:09:36Z</time>
      </trkpt>
      <trkpt lat="44.59316" lon="2.37147">
        <ele>523.09</ele>
        <time>2014-06-04T08:09:53Z</time>
      </trkpt>
      <trkpt lat="44.59319" lon="2.37122">
        <ele>520.21</ele>
        <time>2014-06-04T08:10:08Z</time>
      </trkpt>
      <trkpt lat="44.59324" lon="2.371">
        <ele>517.81</ele>
        <time>2014-06-04T08:10:24Z</time>
      </trkpt>
      <trkpt lat="44.59328" lon="2.3707">
        <ele>515.88</ele>
        <time>2014-06-04T08:10:40Z</time>
      </trkpt>
      <trkpt lat="44.59326" lon="2.37055">
        <ele>513.96</ele>
        <time>2014-06-04T08:10:49Z</time>
      </trkpt>
      <trkpt lat="44.59318" lon="2.37025">
        <ele>510.6</ele>
        <time>2014-06-04T08:11:07Z</time>
      </trkpt>
      <trkpt lat="44.59311" lon="2.36994">
        <ele>508.19</ele>
        <time>2014-06-04T08:11:26Z</time>
      </trkpt>
      <trkpt lat="44.59304" lon="2.36967">
        <ele>505.79</ele>
        <time>2014-06-04T08:11:42Z</time>
      </trkpt>
      <trkpt lat="44.59295" lon="2.36951">
        <ele>504.35</ele>
        <time>2014-06-04T08:11:56Z</time>
      </trkpt>
      <trkpt lat="44.59279" lon="2.36946">
        <ele>501.95</ele>
        <time>2014-06-04T08:12:11Z</time>
      </trkpt>
      <trkpt lat="44.59259" lon="2.36961">
        <ele>498.58</ele>
        <time>2014-06-04T08:12:28Z</time>
      </trkpt>
      <trkpt lat="44.59239" lon="2.36968">
        <ele>497.14</ele>
        <time>2014-06-04T08:12:46Z</time>
      </trkpt>
      <trkpt lat="44.59218" lon="2.36965">
        <ele>496.18</ele>
        <time>2014-06-04T08:13:04Z</time>
      </trkpt>
      <trkpt lat="44.592" lon="2.36985">
        <ele>495.22</ele>
        <time>2014-06-04T08:13:23Z</time>
      </trkpt>
      <trkpt lat="44.59191" lon="2.3701">
        <ele>493.77</ele>
        <time>2014-06-04T08:13:39Z</time>
      </trkpt>
      <trkpt lat="44.59182" lon="2.37031">
        <ele>492.33</ele>
        <time>2014-06-04T08:13:55Z</time>
      </trkpt>
      <trkpt lat="44.59169" lon="2.37054">
        <ele>491.37</ele>
        <time>2014-06-04T08:14:14Z</time>
      </trkpt>
      <trkpt lat="44.59151" lon="2.37076">
        <ele>490.41</ele>
        <time>2014-06-04T08:14:33Z</time>
      </trkpt>
      <trkpt lat="44.59133" lon="2.37096">
        <ele>488.49</ele>
        <time>2014-06-04T08:14:52Z</time>
      </trkpt>
      <trkpt lat="44.59116" lon="2.37115">
        <ele>487.53</ele>
        <time>2014-06-04T08:15:08Z</time>
      </trkpt>
      <trkpt lat="44.59096" lon="2.37137">
        <ele>485.12</ele>
        <time>2014-06-04T08:15:26Z</time>
      </trkpt>
      <trkpt lat="44.59075" lon="2.37151">
        <ele>484.16</ele>
        <time>2014-06-04T08:15:46Z</time>
      </trkpt>
      <trkpt lat="44.59073" lon="2.37154">
        <ele>483.2</ele>
        <time>2014-06-04T08:15:50Z</time>
      </trkpt>
      <trkpt lat="44.59054" lon="2.37161">
        <ele>482.72</ele>
        <time>2014-06-04T08:16:09Z</time>
      </trkpt>
      <trkpt lat="44.59037" lon="2.37152">
        <ele>483.2</ele>
        <time>2014-06-04T08:16:24Z</time>
      </trkpt>
      <trkpt lat="44.59021" lon="2.37144">
        <ele>483.2</ele>
        <time>2014-06-04T08:16:39Z</time>
      </trkpt>
      <trkpt lat="44.59" lon="2.37144">
        <ele>483.2</ele>
        <time>2014-06-04T08:16:55Z</time>
      </trkpt>
      <trkpt lat="44.58978" lon="2.37137">
        <ele>482.24</ele>
        <time>2014-06-04T08:17:14Z</time>
      </trkpt>
      <trkpt lat="44.58951" lon="2.37126">
        <ele>480.8</ele>
        <time>2014-06-04T08:17:34Z</time>
      </trkpt>
      <trkpt lat="44.58943" lon="2.37129">
        <ele>481.28</ele>
        <time>2014-06-04T08:17:44Z</time>
      </trkpt>
      <trkpt lat="44.58925" lon="2.37132">
        <ele>480.8</ele>
        <time>2014-06-04T08:18:00Z</time>
      </trkpt>
      <trkpt lat="44.58899" lon="2.37137">
        <ele>481.28</ele>
        <time>2014-06-04T08:18:20Z</time>
      </trkpt>
      <trkpt lat="44.58883" lon="2.37139">
        <ele>480.8</ele>
        <time>2014-06-04T08:18:35Z</time>
      </trkpt>
      <trkpt lat="44.5886" lon="2.3714">
        <ele>480.8</ele>
        <time>2014-06-04T08:18:53Z</time>
      </trkpt>
      <trkpt lat="44.58839" lon="2.37148">
        <ele>480.8</ele>
        <time>2014-06-04T08:19:10Z</time>
      </trkpt>
      <trkpt lat="44.58831" lon="2.3713">
        <ele>480.32</ele>
        <time>2014-06-04T08:19:28Z</time>
      </trkpt>
      <trkpt lat="44.58848" lon="2.37122">
        <ele>481.76</ele>
        <time>2014-06-04T08:19:46Z</time>
      </trkpt>
      <trkpt lat="44.58867" lon="2.37109">
        <ele>482.24</ele>
        <time>2014-06-04T08:20:03Z</time>
      </trkpt>
      <trkpt lat="44.5889" lon="2.37095">
        <ele>483.2</ele>
        <time>2014-06-04T08:20:22Z</time>
      </trkpt>
      <trkpt lat="44.58911" lon="2.37086">
        <ele>483.68</ele>
        <time>2014-06-04T08:20:40Z</time>
      </trkpt>
      <trkpt lat="44.58934" lon="2.37081">
        <ele>485.6</ele>
        <time>2014-06-04T08:20:59Z</time>
      </trkpt>
      <trkpt lat="44.58951" lon="2.37072">
        <ele>486.56</ele>
        <time>2014-06-04T08:21:16Z</time>
      </trkpt>
      <trkpt lat="44.58971" lon="2.37057">
        <ele>487.05</ele>
        <time>2014-06-04T08:21:34Z</time>
      </trkpt>
      <trkpt lat="44.58986" lon="2.37048">
        <ele>488.01</ele>
        <time>2014-06-04T08:21:49Z</time>
      </trkpt>
      <trkpt lat="44.59007" lon="2.37034">
        <ele>488.49</ele>
        <time>2014-06-04T08:22:08Z</time>
      </trkpt>
      <trkpt lat="44.59018" lon="2.37026">
        <ele>489.93</ele>
        <time>2014-06-04T08:22:23Z</time>
      </trkpt>
      <trkpt lat="44.59029" lon="2.3701">
        <ele>488.49</ele>
        <time>2014-06-04T08:22:39Z</time>
      </trkpt>
      <trkpt lat="44.59041" lon="2.36988">
        <ele>487.05</ele>
        <time>2014-06-04T08:22:57Z</time>
      </trkpt>
      <trkpt lat="44.59051" lon="2.36957">
        <ele>484.64</ele>
        <time>2014-06-04T08:23:18Z</time>
      </trkpt>
      <trkpt lat="44.59046" lon="2.36929">
        <ele>483.2</ele>
        <time>2014-06-04T08:23:38Z</time>
      </trkpt>
      <trkpt lat="44.59034" lon="2.36906">
        <ele>482.24</ele>
        <time>2014-06-04T08:23:56Z</time>
      </trkpt>
      <trkpt lat="44.5902" lon="2.36899">
        <ele>480.8</ele>
        <time>2014-06-04T08:24:12Z</time>
      </trkpt>
      <trkpt lat="44.59002" lon="2.36881">
        <ele>479.84</ele>
        <time>2014-06-04T08:24:30Z</time>
      </trkpt>
      <trkpt lat="44.58978" lon="2.36861">
        <ele>479.35</ele>
        <time>2014-06-04T08:24:47Z</time>
      </trkpt>
      <trkpt lat="44.58974" lon="2.36829">
        <ele>478.39</ele>
        <time>2014-06-04T08:25:06Z</time>
      </trkpt>
      <trkpt lat="44.58991" lon="2.36813">
        <ele>477.43</ele>
        <time>2014-06-04T08:25:23Z</time>
      </trkpt>
      <trkpt lat="44.5901" lon="2.36797">
        <ele>476.95</ele>
        <time>2014-06-04T08:25:42Z</time>
      </trkpt>
      <trkpt lat="44.59026" lon="2.36773">
        <ele>476.47</ele>
        <time>2014-06-04T08:25:59Z</time>
      </trkpt>
      <trkpt lat="44.59046" lon="2.3675">
        <ele>475.51</ele>
        <time>2014-06-04T08:26:19Z</time>
      </trkpt>
      <trkpt lat="44.59069" lon="2.36725">
        <ele>474.55</ele>
        <time>2014-06-04T08:26:41Z</time>
      </trkpt>
      <trkpt lat="44.59082" lon="2.36705">
        <ele>474.07</ele>
        <time>2014-06-04T08:26:58Z</time>
      </trkpt>
      <trkpt lat="44.5909" lon="2.36683">
        <ele>473.11</ele>
        <time>2014-06-04T08:27:17Z</time>
      </trkpt>
      <trkpt lat="44.59091" lon="2.36678">
        <ele>473.59</ele>
        <time>2014-06-04T08:27:33Z</time>
      </trkpt>
      <trkpt lat="44.5909" lon="2.36674">
        <ele>474.07</ele>
        <time>2014-06-04T08:27:48Z</time>
      </trkpt>
      <trkpt lat="44.59089" lon="2.36678">
        <ele>473.59</ele>
        <time>2014-06-04T08:28:05Z</time>
      </trkpt>
      <trkpt lat="44.59088" lon="2.36675">
        <ele>472.63</ele>
        <time>2014-06-04T08:28:23Z</time>
      </trkpt>
      <trkpt lat="44.5909" lon="2.3668">
        <ele>473.11</ele>
        <time>2014-06-04T08:28:42Z</time>
      </trkpt>
      <trkpt lat="44.5909" lon="2.36684">
        <ele>473.59</ele>
        <time>2014-06-04T08:29:15Z</time>
      </trkpt>
      <trkpt lat="44.59093" lon="2.36678">
        <ele>473.59</ele>
        <time>2014-06-04T08:29:37Z</time>
      </trkpt>
      <trkpt lat="44.59096" lon="2.36679">
        <ele>473.59</ele>
        <time>2014-06-04T08:30:00Z</time>
      </trkpt>
      <trkpt lat="44.59104" lon="2.36677">
        <ele>473.59</ele>
        <time>2014-06-04T08:30:18Z</time>
      </trkpt>
      <trkpt lat="44.59102" lon="2.3668">
        <ele>473.59</ele>
        <time>2014-06-04T08:30:36Z</time>
      </trkpt>
      <trkpt lat="44.59103" lon="2.36679">
        <ele>472.63</ele>
        <time>2014-06-04T08:30:55Z</time>
      </trkpt>
      <trkpt lat="44.59099" lon="2.36679">
        <ele>473.59</ele>
        <time>2014-06-04T08:31:15Z</time>
      </trkpt>
      <trkpt lat="44.59099" lon="2.36681">
        <ele>473.11</ele>
        <time>2014-06-04T08:31:39Z</time>
      </trkpt>
      <trkpt lat="44.59096" lon="2.36669">
        <ele>474.55</ele>
        <time>2014-06-04T08:31:56Z</time>
      </trkpt>
      <trkpt lat="44.59081" lon="2.36652">
        <ele>475.99</ele>
        <time>2014-06-04T08:32:15Z</time>
      </trkpt>
      <trkpt lat="44.59075" lon="2.36633">
        <ele>478.39</ele>
        <time>2014-06-04T08:32:31Z</time>
      </trkpt>
      <trkpt lat="44.59075" lon="2.36622">
        <ele>479.35</ele>
        <time>2014-06-04T08:32:39Z</time>
      </trkpt>
      <trkpt lat="44.59071" lon="2.36606">
        <ele>479.84</ele>
        <time>2014-06-04T08:32:48Z</time>
      </trkpt>
      <trkpt lat="44.59068" lon="2.36601">
        <ele>485.12</ele>
        <time>2014-06-04T08:32:50Z</time>
      </trkpt>
      <trkpt lat="44.59067" lon="2.366">
        <ele>480.8</ele>
        <time>2014-06-04T08:32:51Z</time>
      </trkpt>
      <trkpt lat="44.59051" lon="2.36585">
        <ele>482.24</ele>
        <time>2014-06-04T08:33:07Z</time>
      </trkpt>
      <trkpt lat="44.59027" lon="2.36595">
        <ele>485.12</ele>
        <time>2014-06-04T08:33:29Z</time>
      </trkpt>
      <trkpt lat="44.59008" lon="2.36601">
        <ele>486.56</ele>
        <time>2014-06-04T08:33:50Z</time>
      </trkpt>
      <trkpt lat="44.58985" lon="2.36605">
        <ele>488.97</ele>
        <time>2014-06-04T08:34:10Z</time>
      </trkpt>
      <trkpt lat="44.58962" lon="2.36611">
        <ele>491.37</ele>
        <time>2014-06-04T08:34:30Z</time>
      </trkpt>
      <trkpt lat="44.58936" lon="2.36618">
        <ele>493.29</ele>
        <time>2014-06-04T08:34:51Z</time>
      </trkpt>
      <trkpt lat="44.5893" lon="2.36602">
        <ele>494.26</ele>
        <time>2014-06-04T08:35:05Z</time>
      </trkpt>
      <trkpt lat="44.5893" lon="2.36598">
        <ele>494.26</ele>
        <time>2014-06-04T08:35:07Z</time>
      </trkpt>
      <trkpt lat="44.5894" lon="2.36579">
        <ele>496.18</ele>
        <time>2014-06-04T08:35:24Z</time>
      </trkpt>
      <trkpt lat="44.58934" lon="2.36558">
        <ele>498.1</ele>
        <time>2014-06-04T08:35:41Z</time>
      </trkpt>
      <trkpt lat="44.58919" lon="2.36541">
        <ele>499.54</ele>
        <time>2014-06-04T08:35:58Z</time>
      </trkpt>
      <trkpt lat="44.58905" lon="2.36527">
        <ele>501.46</ele>
        <time>2014-06-04T08:36:15Z</time>
      </trkpt>
      <trkpt lat="44.58893" lon="2.36504">
        <ele>502.91</ele>
        <time>2014-06-04T08:36:34Z</time>
      </trkpt>
      <trkpt lat="44.58907" lon="2.36492">
        <ele>504.35</ele>
        <time>2014-06-04T08:36:54Z</time>
      </trkpt>
      <trkpt lat="44.58924" lon="2.36491">
        <ele>505.31</ele>
        <time>2014-06-04T08:37:08Z</time>
      </trkpt>
      <trkpt lat="44.5894" lon="2.3649">
        <ele>507.23</ele>
        <time>2014-06-04T08:37:25Z</time>
      </trkpt>
      <trkpt lat="44.58953" lon="2.36489">
        <ele>508.19</ele>
        <time>2014-06-04T08:37:39Z</time>
      </trkpt>
      <trkpt lat="44.5897" lon="2.3648">
        <ele>510.6</ele>
        <time>2014-06-04T08:37:58Z</time>
      </trkpt>
      <trkpt lat="44.58963" lon="2.36477">
        <ele>511.08</ele>
        <time>2014-06-04T08:38:14Z</time>
      </trkpt>
      <trkpt lat="44.58949" lon="2.36475">
        <ele>512.04</ele>
        <time>2014-06-04T08:38:30Z</time>
      </trkpt>
      <trkpt lat="44.58935" lon="2.3647">
        <ele>513.48</ele>
        <time>2014-06-04T08:38:46Z</time>
      </trkpt>
      <trkpt lat="44.58917" lon="2.36467">
        <ele>515.88</ele>
        <time>2014-06-04T08:39:03Z</time>
      </trkpt>
      <trkpt lat="44.589" lon="2.36455">
        <ele>517.81</ele>
        <time>2014-06-04T08:39:24Z</time>
      </trkpt>
      <trkpt lat="44.58882" lon="2.36442">
        <ele>520.21</ele>
        <time>2014-06-04T08:39:44Z</time>
      </trkpt>
      <trkpt lat="44.58865" lon="2.36434">
        <ele>521.65</ele>
        <time>2014-06-04T08:40:02Z</time>
      </trkpt>
      <trkpt lat="44.58849" lon="2.36428">
        <ele>523.58</ele>
        <time>2014-06-04T08:40:19Z</time>
      </trkpt>
      <trkpt lat="44.58831" lon="2.36421">
        <ele>524.54</ele>
        <time>2014-06-04T08:40:39Z</time>
      </trkpt>
      <trkpt lat="44.58812" lon="2.36419">
        <ele>526.94</ele>
        <time>2014-06-04T08:41:00Z</time>
      </trkpt>
      <trkpt lat="44.58795" lon="2.36414">
        <ele>527.42</ele>
        <time>2014-06-04T08:41:16Z</time>
      </trkpt>
      <trkpt lat="44.58775" lon="2.36416">
        <ele>529.82</ele>
        <time>2014-06-04T08:41:33Z</time>
      </trkpt>
      <trkpt lat="44.58758" lon="2.36415">
        <ele>533.19</ele>
        <time>2014-06-04T08:41:48Z</time>
      </trkpt>
      <trkpt lat="44.58738" lon="2.36413">
        <ele>536.55</ele>
        <time>2014-06-04T08:42:05Z</time>
      </trkpt>
      <trkpt lat="44.58726" lon="2.36413">
        <ele>539.44</ele>
        <time>2014-06-04T08:42:16Z</time>
      </trkpt>
      <trkpt lat="44.58711" lon="2.36415">
        <ele>542.8</ele>
        <time>2014-06-04T08:42:29Z</time>
      </trkpt>
      <trkpt lat="44.587" lon="2.3642">
        <ele>544.72</ele>
        <time>2014-06-04T08:42:47Z</time>
      </trkpt>
      <trkpt lat="44.58699" lon="2.3642">
        <ele>544.24</ele>
        <time>2014-06-04T08:43:10Z</time>
      </trkpt>
      <trkpt lat="44.587" lon="2.36419">
        <ele>544.24</ele>
        <time>2014-06-04T08:43:30Z</time>
      </trkpt>
      <trkpt lat="44.587" lon="2.3642">
        <ele>544.24</ele>
        <time>2014-06-04T08:43:49Z</time>
      </trkpt>
      <trkpt lat="44.58698" lon="2.36421">
        <ele>544.24</ele>
        <time>2014-06-04T08:44:14Z</time>
      </trkpt>
      <trkpt lat="44.587" lon="2.36419">
        <ele>545.2</ele>
        <time>2014-06-04T08:44:32Z</time>
      </trkpt>
      <trkpt lat="44.58704" lon="2.36421">
        <ele>544.72</ele>
        <time>2014-06-04T08:44:54Z</time>
      </trkpt>
      <trkpt lat="44.587" lon="2.36423">
        <ele>544.72</ele>
        <time>2014-06-04T08:45:21Z</time>
      </trkpt>
      <trkpt lat="44.58701" lon="2.36421">
        <ele>545.69</ele>
        <time>2014-06-04T08:45:44Z</time>
      </trkpt>
      <trkpt lat="44.58699" lon="2.36417">
        <ele>544.24</ele>
        <time>2014-06-04T08:46:04Z</time>
      </trkpt>
      <trkpt lat="44.58701" lon="2.36422">
        <ele>544.72</ele>
        <time>2014-06-04T08:46:31Z</time>
      </trkpt>
      <trkpt lat="44.58701" lon="2.36419">
        <ele>544.72</ele>
        <time>2014-06-04T08:46:49Z</time>
      </trkpt>
      <trkpt lat="44.58701" lon="2.36422">
        <ele>544.24</ele>
        <time>2014-06-04T08:47:06Z</time>
      </trkpt>
      <trkpt lat="44.58698" lon="2.3642">
        <ele>544.24</ele>
        <time>2014-06-04T08:47:27Z</time>
      </trkpt>
      <trkpt lat="44.58699" lon="2.3642">
        <ele>544.72</ele>
        <time>2014-06-04T08:47:47Z</time>
      </trkpt>
      <trkpt lat="44.58696" lon="2.36419">
        <ele>545.69</ele>
        <time>2014-06-04T08:48:13Z</time>
      </trkpt>
      <trkpt lat="44.58697" lon="2.36417">
        <ele>545.2</ele>
        <time>2014-06-04T08:48:37Z</time>
      </trkpt>
      <trkpt lat="44.587" lon="2.36413">
        <ele>545.69</ele>
        <time>2014-06-04T08:48:43Z</time>
      </trkpt>
      <trkpt lat="44.58719" lon="2.36382">
        <ele>544.72</ele>
        <time>2014-06-04T08:49:09Z</time>
      </trkpt>
      <trkpt lat="44.58738" lon="2.36359">
        <ele>544.24</ele>
        <time>2014-06-04T08:49:30Z</time>
      </trkpt>
      <trkpt lat="44.58759" lon="2.36337">
        <ele>544.72</ele>
        <time>2014-06-04T08:49:50Z</time>
      </trkpt>
      <trkpt lat="44.58789" lon="2.36295">
        <ele>543.76</ele>
        <time>2014-06-04T08:50:19Z</time>
      </trkpt>
      <trkpt lat="44.58809" lon="2.36267">
        <ele>542.8</ele>
        <time>2014-06-04T08:50:39Z</time>
      </trkpt>
      <trkpt lat="44.58831" lon="2.3623">
        <ele>543.28</ele>
        <time>2014-06-04T08:51:04Z</time>
      </trkpt>
      <trkpt lat="44.58846" lon="2.36199">
        <ele>543.28</ele>
        <time>2014-06-04T08:51:25Z</time>
      </trkpt>
      <trkpt lat="44.58853" lon="2.36165">
        <ele>543.76</ele>
        <time>2014-06-04T08:51:45Z</time>
      </trkpt>
      <trkpt lat="44.5885" lon="2.36132">
        <ele>544.24</ele>
        <time>2014-06-04T08:52:02Z</time>
      </trkpt>
      <trkpt lat="44.58852" lon="2.361">
        <ele>544.24</ele>
        <time>2014-06-04T08:52:21Z</time>
      </trkpt>
      <trkpt lat="44.58854" lon="2.3606">
        <ele>545.2</ele>
        <time>2014-06-04T08:52:42Z</time>
      </trkpt>
      <trkpt lat="44.58859" lon="2.36018">
        <ele>546.17</ele>
        <time>2014-06-04T08:53:04Z</time>
      </trkpt>
      <trkpt lat="44.58864" lon="2.35974">
        <ele>548.09</ele>
        <time>2014-06-04T08:53:27Z</time>
      </trkpt>
      <trkpt lat="44.58868" lon="2.35933">
        <ele>548.57</ele>
        <time>2014-06-04T08:53:48Z</time>
      </trkpt>
      <trkpt lat="44.58871" lon="2.3589">
        <ele>548.57</ele>
        <time>2014-06-04T08:54:09Z</time>
      </trkpt>
      <trkpt lat="44.58876" lon="2.35855">
        <ele>548.09</ele>
        <time>2014-06-04T08:54:29Z</time>
      </trkpt>
      <trkpt lat="44.58877" lon="2.35816">
        <ele>548.09</ele>
        <time>2014-06-04T08:54:49Z</time>
      </trkpt>
      <trkpt lat="44.5888" lon="2.35786">
        <ele>547.61</ele>
        <time>2014-06-04T08:55:07Z</time>
      </trkpt>
      <trkpt lat="44.5888" lon="2.35744">
        <ele>548.57</ele>
        <time>2014-06-04T08:55:29Z</time>
      </trkpt>
      <trkpt lat="44.5888" lon="2.35706">
        <ele>548.09</ele>
        <time>2014-06-04T08:55:48Z</time>
      </trkpt>
      <trkpt lat="44.58879" lon="2.35679">
        <ele>547.61</ele>
        <time>2014-06-04T08:56:02Z</time>
      </trkpt>
      <trkpt lat="44.58876" lon="2.3564">
        <ele>548.09</ele>
        <time>2014-06-04T08:56:23Z</time>
      </trkpt>
      <trkpt lat="44.58873" lon="2.35607">
        <ele>547.13</ele>
        <time>2014-06-04T08:56:39Z</time>
      </trkpt>
      <trkpt lat="44.5887" lon="2.35578">
        <ele>546.65</ele>
        <time>2014-06-04T08:56:55Z</time>
      </trkpt>
      <trkpt lat="44.58867" lon="2.35545">
        <ele>545.69</ele>
        <time>2014-06-04T08:57:13Z</time>
      </trkpt>
      <trkpt lat="44.58864" lon="2.35511">
        <ele>545.2</ele>
        <time>2014-06-04T08:57:32Z</time>
      </trkpt>
      <trkpt lat="44.5886" lon="2.35477">
        <ele>545.2</ele>
        <time>2014-06-04T08:57:49Z</time>
      </trkpt>
      <trkpt lat="44.58856" lon="2.35439">
        <ele>544.72</ele>
        <time>2014-06-04T08:58:10Z</time>
      </trkpt>
      <trkpt lat="44.58853" lon="2.35397">
        <ele>544.72</ele>
        <time>2014-06-04T08:58:33Z</time>
      </trkpt>
      <trkpt lat="44.5885" lon="2.35356">
        <ele>543.76</ele>
        <time>2014-06-04T08:58:55Z</time>
      </trkpt>
      <trkpt lat="44.58854" lon="2.3531">
        <ele>544.24</ele>
        <time>2014-06-04T08:59:19Z</time>
      </trkpt>
      <trkpt lat="44.58859" lon="2.35274">
        <ele>544.72</ele>
        <time>2014-06-04T08:59:39Z</time>
      </trkpt>
      <trkpt lat="44.58865" lon="2.35234">
        <ele>543.76</ele>
        <time>2014-06-04T09:00:00Z</time>
      </trkpt>
      <trkpt lat="44.58875" lon="2.35204">
        <ele>542.8</ele>
        <time>2014-06-04T09:00:20Z</time>
      </trkpt>
      <trkpt lat="44.58881" lon="2.35179">
        <ele>541.84</ele>
        <time>2014-06-04T09:00:38Z</time>
      </trkpt>
      <trkpt lat="44.58888" lon="2.35148">
        <ele>541.36</ele>
        <time>2014-06-04T09:00:57Z</time>
      </trkpt>
      <trkpt lat="44.58896" lon="2.35107">
        <ele>540.88</ele>
        <time>2014-06-04T09:01:18Z</time>
      </trkpt>
      <trkpt lat="44.589" lon="2.35077">
        <ele>540.4</ele>
        <time>2014-06-04T09:01:34Z</time>
      </trkpt>
      <trkpt lat="44.58903" lon="2.35038">
        <ele>540.4</ele>
        <time>2014-06-04T09:01:55Z</time>
      </trkpt>
      <trkpt lat="44.58905" lon="2.35003">
        <ele>539.92</ele>
        <time>2014-06-04T09:02:14Z</time>
      </trkpt>
      <trkpt lat="44.58906" lon="2.34966">
        <ele>540.4</ele>
        <time>2014-06-04T09:02:33Z</time>
      </trkpt>
      <trkpt lat="44.58911" lon="2.34929">
        <ele>540.88</ele>
        <time>2014-06-04T09:02:55Z</time>
      </trkpt>
      <trkpt lat="44.58911" lon="2.34913">
        <ele>541.36</ele>
        <time>2014-06-04T09:03:11Z</time>
      </trkpt>
      <trkpt lat="44.58909" lon="2.34907">
        <ele>541.36</ele>
        <time>2014-06-04T09:03:15Z</time>
      </trkpt>
      <trkpt lat="44.589" lon="2.34884">
        <ele>542.8</ele>
        <time>2014-06-04T09:03:31Z</time>
      </trkpt>
      <trkpt lat="44.58891" lon="2.34853">
        <ele>541.36</ele>
        <time>2014-06-04T09:03:50Z</time>
      </trkpt>
      <trkpt lat="44.5888" lon="2.34824">
        <ele>539.92</ele>
        <time>2014-06-04T09:04:09Z</time>
      </trkpt>
      <trkpt lat="44.58866" lon="2.34789">
        <ele>538.48</ele>
        <time>2014-06-04T09:04:31Z</time>
      </trkpt>
      <trkpt lat="44.58853" lon="2.34761">
        <ele>536.55</ele>
        <time>2014-06-04T09:04:51Z</time>
      </trkpt>
      <trkpt lat="44.58838" lon="2.34732">
        <ele>534.63</ele>
        <time>2014-06-04T09:05:10Z</time>
      </trkpt>
      <trkpt lat="44.5882" lon="2.34719">
        <ele>532.71</ele>
        <time>2014-06-04T09:05:27Z</time>
      </trkpt>
      <trkpt lat="44.58802" lon="2.34724">
        <ele>529.34</ele>
        <time>2014-06-04T09:05:44Z</time>
      </trkpt>
      <trkpt lat="44.58781" lon="2.34721">
        <ele>526.46</ele>
        <time>2014-06-04T09:06:00Z</time>
      </trkpt>
      <trkpt lat="44.5877" lon="2.34708">
        <ele>523.09</ele>
        <time>2014-06-04T09:06:13Z</time>
      </trkpt>
      <trkpt lat="44.58761" lon="2.3469">
        <ele>520.21</ele>
        <time>2014-06-04T09:06:27Z</time>
      </trkpt>
      <trkpt lat="44.5875" lon="2.3467">
        <ele>517.81</ele>
        <time>2014-06-04T09:06:43Z</time>
      </trkpt>
      <trkpt lat="44.5874" lon="2.34644">
        <ele>514.44</ele>
        <time>2014-06-04T09:07:01Z</time>
      </trkpt>
      <trkpt lat="44.58732" lon="2.34625">
        <ele>511.56</ele>
        <time>2014-06-04T09:07:17Z</time>
      </trkpt>
      <trkpt lat="44.58727" lon="2.34599">
        <ele>508.67</ele>
        <time>2014-06-04T09:07:33Z</time>
      </trkpt>
      <trkpt lat="44.58726" lon="2.34592">
        <ele>507.71</ele>
        <time>2014-06-04T09:07:36Z</time>
      </trkpt>
      <trkpt lat="44.58724" lon="2.3456">
        <ele>504.83</ele>
        <time>2014-06-04T09:07:54Z</time>
      </trkpt>
      <trkpt lat="44.5873" lon="2.34539">
        <ele>502.43</ele>
        <time>2014-06-04T09:08:09Z</time>
      </trkpt>
      <trkpt lat="44.58737" lon="2.34516">
        <ele>499.06</ele>
        <time>2014-06-04T09:08:26Z</time>
      </trkpt>
      <trkpt lat="44.58745" lon="2.34497">
        <ele>496.18</ele>
        <time>2014-06-04T09:08:39Z</time>
      </trkpt>
      <trkpt lat="44.58753" lon="2.34473">
        <ele>493.29</ele>
        <time>2014-06-04T09:08:55Z</time>
      </trkpt>
      <trkpt lat="44.58757" lon="2.34456">
        <ele>490.89</ele>
        <time>2014-06-04T09:09:04Z</time>
      </trkpt>
      <trkpt lat="44.58762" lon="2.34426">
        <ele>488.49</ele>
        <time>2014-06-04T09:09:20Z</time>
      </trkpt>
      <trkpt lat="44.58765" lon="2.34414">
        <ele>486.56</ele>
        <time>2014-06-04T09:09:27Z</time>
      </trkpt>
      <trkpt lat="44.58766" lon="2.34391">
        <ele>483.68</ele>
        <time>2014-06-04T09:09:38Z</time>
      </trkpt>
      <trkpt lat="44.5877" lon="2.34368">
        <ele>480.8</ele>
        <time>2014-06-04T09:09:50Z</time>
      </trkpt>
      <trkpt lat="44.58771" lon="2.34366">
        <ele>480.32</ele>
        <time>2014-06-04T09:09:51Z</time>
      </trkpt>
      <trkpt lat="44.58775" lon="2.3433">
        <ele>477.91</ele>
        <time>2014-06-04T09:10:09Z</time>
      </trkpt>
      <trkpt lat="44.58777" lon="2.34299">
        <ele>474.55</ele>
        <time>2014-06-04T09:10:27Z</time>
      </trkpt>
      <trkpt lat="44.58779" lon="2.34287">
        <ele>473.11</ele>
        <time>2014-06-04T09:10:40Z</time>
      </trkpt>
      <trkpt lat="44.58773" lon="2.34256">
        <ele>470.22</ele>
        <time>2014-06-04T09:10:59Z</time>
      </trkpt>
      <trkpt lat="44.58773" lon="2.34226">
        <ele>468.78</ele>
        <time>2014-06-04T09:11:14Z</time>
      </trkpt>
      <trkpt lat="44.58779" lon="2.34202">
        <ele>468.78</ele>
        <time>2014-06-04T09:11:32Z</time>
      </trkpt>
      <trkpt lat="44.58782" lon="2.34182">
        <ele>466.86</ele>
        <time>2014-06-04T09:11:51Z</time>
      </trkpt>
      <trkpt lat="44.58788" lon="2.3415">
        <ele>463.97</ele>
        <time>2014-06-04T09:12:08Z</time>
      </trkpt>
      <trkpt lat="44.58788" lon="2.34126">
        <ele>463.01</ele>
        <time>2014-06-04T09:12:27Z</time>
      </trkpt>
      <trkpt lat="44.58791" lon="2.34105">
        <ele>463.01</ele>
        <time>2014-06-04T09:12:43Z</time>
      </trkpt>
      <trkpt lat="44.58794" lon="2.34076">
        <ele>463.49</ele>
        <time>2014-06-04T09:13:01Z</time>
      </trkpt>
      <trkpt lat="44.58798" lon="2.34042">
        <ele>463.97</ele>
        <time>2014-06-04T09:13:22Z</time>
      </trkpt>
      <trkpt lat="44.58803" lon="2.34012">
        <ele>465.9</ele>
        <time>2014-06-04T09:13:41Z</time>
      </trkpt>
      <trkpt lat="44.58808" lon="2.33979">
        <ele>467.34</ele>
        <time>2014-06-04T09:14:01Z</time>
      </trkpt>
      <trkpt lat="44.58813" lon="2.33958">
        <ele>468.78</ele>
        <time>2014-06-04T09:14:17Z</time>
      </trkpt>
      <trkpt lat="44.5882" lon="2.33934">
        <ele>471.66</ele>
        <time>2014-06-04T09:14:36Z</time>
      </trkpt>
      <trkpt lat="44.58833" lon="2.3392">
        <ele>474.07</ele>
        <time>2014-06-04T09:14:53Z</time>
      </trkpt>
      <trkpt lat="44.58842" lon="2.3392">
        <ele>473.59</ele>
        <time>2014-06-04T09:15:00Z</time>
      </trkpt>
      <trkpt lat="44.58869" lon="2.33912">
        <ele>475.03</ele>
        <time>2014-06-04T09:15:22Z</time>
      </trkpt>
      <trkpt lat="44.58893" lon="2.339">
        <ele>475.03</ele>
        <time>2014-06-04T09:15:40Z</time>
      </trkpt>
      <trkpt lat="44.58915" lon="2.33885">
        <ele>475.51</ele>
        <time>2014-06-04T09:15:59Z</time>
      </trkpt>
      <trkpt lat="44.58934" lon="2.33882">
        <ele>473.11</ele>
        <time>2014-06-04T09:16:16Z</time>
      </trkpt>
      <trkpt lat="44.58959" lon="2.33883">
        <ele>470.22</ele>
        <time>2014-06-04T09:16:35Z</time>
      </trkpt>
      <trkpt lat="44.58963" lon="2.33881">
        <ele>469.74</ele>
        <time>2014-06-04T09:16:38Z</time>
      </trkpt>
      <trkpt lat="44.5899" lon="2.33874">
        <ele>468.78</ele>
        <time>2014-06-04T09:16:59Z</time>
      </trkpt>
      <trkpt lat="44.59011" lon="2.33856">
        <ele>467.82</ele>
        <time>2014-06-04T09:17:17Z</time>
      </trkpt>
      <trkpt lat="44.59029" lon="2.3384">
        <ele>470.7</ele>
        <time>2014-06-04T09:17:34Z</time>
      </trkpt>
      <trkpt lat="44.59054" lon="2.33825">
        <ele>472.14</ele>
        <time>2014-06-04T09:17:54Z</time>
      </trkpt>
      <trkpt lat="44.59071" lon="2.33818">
        <ele>473.11</ele>
        <time>2014-06-04T09:18:10Z</time>
      </trkpt>
      <trkpt lat="44.59088" lon="2.33808">
        <ele>473.59</ele>
        <time>2014-06-04T09:18:22Z</time>
      </trkpt>
      <trkpt lat="44.59091" lon="2.33805">
        <ele>473.59</ele>
        <time>2014-06-04T09:18:24Z</time>
      </trkpt>
      <trkpt lat="44.59104" lon="2.33785">
        <ele>474.55</ele>
        <time>2014-06-04T09:18:43Z</time>
      </trkpt>
      <trkpt lat="44.59109" lon="2.3378">
        <ele>475.51</ele>
        <time>2014-06-04T09:19:02Z</time>
      </trkpt>
      <trkpt lat="44.59124" lon="2.33775">
        <ele>476.47</ele>
        <time>2014-06-04T09:19:22Z</time>
      </trkpt>
      <trkpt lat="44.59123" lon="2.3378">
        <ele>476.95</ele>
        <time>2014-06-04T09:19:44Z</time>
      </trkpt>
      <trkpt lat="44.59126" lon="2.33764">
        <ele>475.03</ele>
        <time>2014-06-04T09:20:01Z</time>
      </trkpt>
      <trkpt lat="44.59131" lon="2.33753">
        <ele>474.07</ele>
        <time>2014-06-04T09:20:10Z</time>
      </trkpt>
      <trkpt lat="44.59145" lon="2.33726">
        <ele>472.63</ele>
        <time>2014-06-04T09:20:30Z</time>
      </trkpt>
      <trkpt lat="44.5916" lon="2.33723">
        <ele>474.07</ele>
        <time>2014-06-04T09:20:46Z</time>
      </trkpt>
      <trkpt lat="44.5917" lon="2.33709">
        <ele>474.55</ele>
        <time>2014-06-04T09:21:02Z</time>
      </trkpt>
      <trkpt lat="44.59181" lon="2.33685">
        <ele>471.18</ele>
        <time>2014-06-04T09:21:19Z</time>
      </trkpt>
      <trkpt lat="44.59192" lon="2.33677">
        <ele>467.82</ele>
        <time>2014-06-04T09:21:31Z</time>
      </trkpt>
      <trkpt lat="44.592" lon="2.33658">
        <ele>464.93</ele>
        <time>2014-06-04T09:21:44Z</time>
      </trkpt>
      <trkpt lat="44.59201" lon="2.33631">
        <ele>461.09</ele>
        <time>2014-06-04T09:21:57Z</time>
      </trkpt>
      <trkpt lat="44.59203" lon="2.33611">
        <ele>458.21</ele>
        <time>2014-06-04T09:22:10Z</time>
      </trkpt>
      <trkpt lat="44.59201" lon="2.33608">
        <ele>457.24</ele>
        <time>2014-06-04T09:22:12Z</time>
      </trkpt>
      <trkpt lat="44.59198" lon="2.33606">
        <ele>455.8</ele>
        <time>2014-06-04T09:22:16Z</time>
      </trkpt>
      <trkpt lat="44.59186" lon="2.33612">
        <ele>452.92</ele>
        <time>2014-06-04T09:22:27Z</time>
      </trkpt>
      <trkpt lat="44.5918" lon="2.33606">
        <ele>449.55</ele>
        <time>2014-06-04T09:22:35Z</time>
      </trkpt>
      <trkpt lat="44.59168" lon="2.33587">
        <ele>446.67</ele>
        <time>2014-06-04T09:22:51Z</time>
      </trkpt>
      <trkpt lat="44.59164" lon="2.33574">
        <ele>443.79</ele>
        <time>2014-06-04T09:23:00Z</time>
      </trkpt>
      <trkpt lat="44.59153" lon="2.33559">
        <ele>440.9</ele>
        <time>2014-06-04T09:23:12Z</time>
      </trkpt>
      <trkpt lat="44.59143" lon="2.33552">
        <ele>438.5</ele>
        <time>2014-06-04T09:23:22Z</time>
      </trkpt>
      <trkpt lat="44.59134" lon="2.33535">
        <ele>435.61</ele>
        <time>2014-06-04T09:23:34Z</time>
      </trkpt>
      <trkpt lat="44.59125" lon="2.33508">
        <ele>431.77</ele>
        <time>2014-06-04T09:23:51Z</time>
      </trkpt>
      <trkpt lat="44.59122" lon="2.33498">
        <ele>430.33</ele>
        <time>2014-06-04T09:23:56Z</time>
      </trkpt>
      <trkpt lat="44.59116" lon="2.33477">
        <ele>426.96</ele>
        <time>2014-06-04T09:24:08Z</time>
      </trkpt>
      <trkpt lat="44.59115" lon="2.33476">
        <ele>426.48</ele>
        <time>2014-06-04T09:24:09Z</time>
      </trkpt>
      <trkpt lat="44.59107" lon="2.33461">
        <ele>423.6</ele>
        <time>2014-06-04T09:24:21Z</time>
      </trkpt>
      <trkpt lat="44.59097" lon="2.33448">
        <ele>420.23</ele>
        <time>2014-06-04T09:24:37Z</time>
      </trkpt>
      <trkpt lat="44.59095" lon="2.3345">
        <ele>419.27</ele>
        <time>2014-06-04T09:24:39Z</time>
      </trkpt>
      <trkpt lat="44.59092" lon="2.33452">
        <ele>418.31</ele>
        <time>2014-06-04T09:24:43Z</time>
      </trkpt>
      <trkpt lat="44.59072" lon="2.33475">
        <ele>415.43</ele>
        <time>2014-06-04T09:25:01Z</time>
      </trkpt>
      <trkpt lat="44.59071" lon="2.33477">
        <ele>415.43</ele>
        <time>2014-06-04T09:25:02Z</time>
      </trkpt>
      <trkpt lat="44.59049" lon="2.33495">
        <ele>411.58</ele>
        <time>2014-06-04T09:25:20Z</time>
      </trkpt>
      <trkpt lat="44.59047" lon="2.33496">
        <ele>412.06</ele>
        <time>2014-06-04T09:25:22Z</time>
      </trkpt>
      <trkpt lat="44.59031" lon="2.335">
        <ele>408.7</ele>
        <time>2014-06-04T09:25:34Z</time>
      </trkpt>
      <trkpt lat="44.59011" lon="2.33517">
        <ele>406.29</ele>
        <time>2014-06-04T09:25:52Z</time>
      </trkpt>
      <trkpt lat="44.59001" lon="2.33505">
        <ele>402.93</ele>
        <time>2014-06-04T09:26:04Z</time>
      </trkpt>
      <trkpt lat="44.59004" lon="2.33486">
        <ele>400.53</ele>
        <time>2014-06-04T09:26:15Z</time>
      </trkpt>
      <trkpt lat="44.5901" lon="2.33475">
        <ele>398.12</ele>
        <time>2014-06-04T09:26:23Z</time>
      </trkpt>
      <trkpt lat="44.59017" lon="2.33458">
        <ele>395.24</ele>
        <time>2014-06-04T09:26:37Z</time>
      </trkpt>
      <trkpt lat="44.58999" lon="2.33464">
        <ele>391.39</ele>
        <time>2014-06-04T09:26:53Z</time>
      </trkpt>
      <trkpt lat="44.58986" lon="2.33487">
        <ele>388.51</ele>
        <time>2014-06-04T09:27:11Z</time>
      </trkpt>
      <trkpt lat="44.58981" lon="2.33506">
        <ele>385.15</ele>
        <time>2014-06-04T09:27:24Z</time>
      </trkpt>
      <trkpt lat="44.58961" lon="2.33525">
        <ele>382.74</ele>
        <time>2014-06-04T09:27:47Z</time>
      </trkpt>
      <trkpt lat="44.58935" lon="2.3353">
        <ele>382.74</ele>
        <time>2014-06-04T09:28:10Z</time>
      </trkpt>
      <trkpt lat="44.58913" lon="2.33537">
        <ele>383.22</ele>
        <time>2014-06-04T09:28:33Z</time>
      </trkpt>
      <trkpt lat="44.58907" lon="2.33536">
        <ele>382.74</ele>
        <time>2014-06-04T09:29:01Z</time>
      </trkpt>
      <trkpt lat="44.58928" lon="2.33524">
        <ele>385.15</ele>
        <time>2014-06-04T09:29:23Z</time>
      </trkpt>
      <trkpt lat="44.58927" lon="2.33511">
        <ele>388.51</ele>
        <time>2014-06-04T09:29:40Z</time>
      </trkpt>
      <trkpt lat="44.58931" lon="2.335">
        <ele>391.87</ele>
        <time>2014-06-04T09:29:54Z</time>
      </trkpt>
      <trkpt lat="44.58932" lon="2.33488">
        <ele>394.28</ele>
        <time>2014-06-04T09:30:10Z</time>
      </trkpt>
      <trkpt lat="44.58939" lon="2.33464">
        <ele>397.16</ele>
        <time>2014-06-04T09:30:26Z</time>
      </trkpt>
      <trkpt lat="44.58943" lon="2.33445">
        <ele>400.53</ele>
        <time>2014-06-04T09:30:41Z</time>
      </trkpt>
      <trkpt lat="44.58951" lon="2.33431">
        <ele>403.41</ele>
        <time>2014-06-04T09:30:57Z</time>
      </trkpt>
      <trkpt lat="44.58961" lon="2.33405">
        <ele>405.81</ele>
        <time>2014-06-04T09:31:18Z</time>
      </trkpt>
      <trkpt lat="44.58969" lon="2.3339">
        <ele>408.7</ele>
        <time>2014-06-04T09:31:32Z</time>
      </trkpt>
      <trkpt lat="44.58977" lon="2.33372">
        <ele>411.58</ele>
        <time>2014-06-04T09:31:50Z</time>
      </trkpt>
      <trkpt lat="44.58976" lon="2.33359">
        <ele>415.43</ele>
        <time>2014-06-04T09:32:04Z</time>
      </trkpt>
      <trkpt lat="44.58965" lon="2.33349">
        <ele>415.91</ele>
        <time>2014-06-04T09:32:23Z</time>
      </trkpt>
      <trkpt lat="44.58946" lon="2.33326">
        <ele>415.91</ele>
        <time>2014-06-04T09:32:42Z</time>
      </trkpt>
      <trkpt lat="44.58933" lon="2.33304">
        <ele>416.39</ele>
        <time>2014-06-04T09:33:03Z</time>
      </trkpt>
      <trkpt lat="44.58921" lon="2.33274">
        <ele>417.83</ele>
        <time>2014-06-04T09:33:24Z</time>
      </trkpt>
      <trkpt lat="44.58913" lon="2.33228">
        <ele>417.83</ele>
        <time>2014-06-04T09:33:46Z</time>
      </trkpt>
      <trkpt lat="44.58915" lon="2.33199">
        <ele>418.79</ele>
        <time>2014-06-04T09:34:05Z</time>
      </trkpt>
      <trkpt lat="44.589" lon="2.33182">
        <ele>418.79</ele>
        <time>2014-06-04T09:34:26Z</time>
      </trkpt>
      <trkpt lat="44.58886" lon="2.33163">
        <ele>420.71</ele>
        <time>2014-06-04T09:34:44Z</time>
      </trkpt>
      <trkpt lat="44.58867" lon="2.33138">
        <ele>423.12</ele>
        <time>2014-06-04T09:35:05Z</time>
      </trkpt>
      <trkpt lat="44.58854" lon="2.33117">
        <ele>424.08</ele>
        <time>2014-06-04T09:35:23Z</time>
      </trkpt>
      <trkpt lat="44.58836" lon="2.33082">
        <ele>426.48</ele>
        <time>2014-06-04T09:35:45Z</time>
      </trkpt>
      <trkpt lat="44.58822" lon="2.33059">
        <ele>428.89</ele>
        <time>2014-06-04T09:36:05Z</time>
      </trkpt>
      <trkpt lat="44.58807" lon="2.33037">
        <ele>429.85</ele>
        <time>2014-06-04T09:36:26Z</time>
      </trkpt>
      <trkpt lat="44.5879" lon="2.33008">
        <ele>431.29</ele>
        <time>2014-06-04T09:36:48Z</time>
      </trkpt>
      <trkpt lat="44.5878" lon="2.32972">
        <ele>432.25</ele>
        <time>2014-06-04T09:37:06Z</time>
      </trkpt>
      <trkpt lat="44.58779" lon="2.32937">
        <ele>433.69</ele>
        <time>2014-06-04T09:37:25Z</time>
      </trkpt>
      <trkpt lat="44.58769" lon="2.32912">
        <ele>437.06</ele>
        <time>2014-06-04T09:37:45Z</time>
      </trkpt>
      <trkpt lat="44.58753" lon="2.32894">
        <ele>438.98</ele>
        <time>2014-06-04T09:38:07Z</time>
      </trkpt>
      <trkpt lat="44.58734" lon="2.32872">
        <ele>442.34</ele>
        <time>2014-06-04T09:38:28Z</time>
      </trkpt>
      <trkpt lat="44.58722" lon="2.32855">
        <ele>444.75</ele>
        <time>2014-06-04T09:38:47Z</time>
      </trkpt>
      <trkpt lat="44.58709" lon="2.32834">
        <ele>447.15</ele>
        <time>2014-06-04T09:39:05Z</time>
      </trkpt>
      <trkpt lat="44.58687" lon="2.32817">
        <ele>449.55</ele>
        <time>2014-06-04T09:39:25Z</time>
      </trkpt>
      <trkpt lat="44.58665" lon="2.32809">
        <ele>451.96</ele>
        <time>2014-06-04T09:39:45Z</time>
      </trkpt>
      <trkpt lat="44.58638" lon="2.32801">
        <ele>454.36</ele>
        <time>2014-06-04T09:40:07Z</time>
      </trkpt>
      <trkpt lat="44.58613" lon="2.32795">
        <ele>456.76</ele>
        <time>2014-06-04T09:40:31Z</time>
      </trkpt>
      <trkpt lat="44.58591" lon="2.32782">
        <ele>459.65</ele>
        <time>2014-06-04T09:40:50Z</time>
      </trkpt>
      <trkpt lat="44.58581" lon="2.3277">
        <ele>460.61</ele>
        <time>2014-06-04T09:41:07Z</time>
      </trkpt>
      <trkpt lat="44.58578" lon="2.32746">
        <ele>461.57</ele>
        <time>2014-06-04T09:41:25Z</time>
      </trkpt>
      <trkpt lat="44.58584" lon="2.32708">
        <ele>463.49</ele>
        <time>2014-06-04T09:41:47Z</time>
      </trkpt>
      <trkpt lat="44.58598" lon="2.32675">
        <ele>464.45</ele>
        <time>2014-06-04T09:42:08Z</time>
      </trkpt>
      <trkpt lat="44.58601" lon="2.3266">
        <ele>465.42</ele>
        <time>2014-06-04T09:42:25Z</time>
      </trkpt>
      <trkpt lat="44.58606" lon="2.3264">
        <ele>464.93</ele>
        <time>2014-06-04T09:42:43Z</time>
      </trkpt>
      <trkpt lat="44.58612" lon="2.32616">
        <ele>463.97</ele>
        <time>2014-06-04T09:43:05Z</time>
      </trkpt>
      <trkpt lat="44.58614" lon="2.32603">
        <ele>460.61</ele>
        <time>2014-06-04T09:43:17Z</time>
      </trkpt>
      <trkpt lat="44.58606" lon="2.3258">
        <ele>457.24</ele>
        <time>2014-06-04T09:43:35Z</time>
      </trkpt>
      <trkpt lat="44.58601" lon="2.32574">
        <ele>455.8</ele>
        <time>2014-06-04T09:43:43Z</time>
      </trkpt>
      <trkpt lat="44.58603" lon="2.32564">
        <ele>453.4</ele>
        <time>2014-06-04T09:43:49Z</time>
      </trkpt>
      <trkpt lat="44.58598" lon="2.32549">
        <ele>450.03</ele>
        <time>2014-06-04T09:44:06Z</time>
      </trkpt>
      <trkpt lat="44.58587" lon="2.32534">
        <ele>447.15</ele>
        <time>2014-06-04T09:44:19Z</time>
      </trkpt>
      <trkpt lat="44.58585" lon="2.32533">
        <ele>446.19</ele>
        <time>2014-06-04T09:44:21Z</time>
      </trkpt>
      <trkpt lat="44.58566" lon="2.32521">
        <ele>442.82</ele>
        <time>2014-06-04T09:44:37Z</time>
      </trkpt>
      <trkpt lat="44.58544" lon="2.32512">
        <ele>441.38</ele>
        <time>2014-06-04T09:45:00Z</time>
      </trkpt>
      <trkpt lat="44.58553" lon="2.32498">
        <ele>444.27</ele>
        <time>2014-06-04T09:45:14Z</time>
      </trkpt>
      <trkpt lat="44.58559" lon="2.32488">
        <ele>448.11</ele>
        <time>2014-06-04T09:45:27Z</time>
      </trkpt>
      <trkpt lat="44.58571" lon="2.32469">
        <ele>451.48</ele>
        <time>2014-06-04T09:45:43Z</time>
      </trkpt>
      <trkpt lat="44.58577" lon="2.32457">
        <ele>454.84</ele>
        <time>2014-06-04T09:45:57Z</time>
      </trkpt>
      <trkpt lat="44.58582" lon="2.32448">
        <ele>457.72</ele>
        <time>2014-06-04T09:46:07Z</time>
      </trkpt>
      <trkpt lat="44.58591" lon="2.32439">
        <ele>461.57</ele>
        <time>2014-06-04T09:46:20Z</time>
      </trkpt>
      <trkpt lat="44.58611" lon="2.32432">
        <ele>463.49</ele>
        <time>2014-06-04T09:46:37Z</time>
      </trkpt>
      <trkpt lat="44.58621" lon="2.32422">
        <ele>466.86</ele>
        <time>2014-06-04T09:46:51Z</time>
      </trkpt>
      <trkpt lat="44.58635" lon="2.32402">
        <ele>468.78</ele>
        <time>2014-06-04T09:47:09Z</time>
      </trkpt>
      <trkpt lat="44.58647" lon="2.32384">
        <ele>471.66</ele>
        <time>2014-06-04T09:47:26Z</time>
      </trkpt>
      <trkpt lat="44.58651" lon="2.32361">
        <ele>475.03</ele>
        <time>2014-06-04T09:47:46Z</time>
      </trkpt>
      <trkpt lat="44.58652" lon="2.32336">
        <ele>477.91</ele>
        <time>2014-06-04T09:48:03Z</time>
      </trkpt>
      <trkpt lat="44.58656" lon="2.3231">
        <ele>480.8</ele>
        <time>2014-06-04T09:48:21Z</time>
      </trkpt>
      <trkpt lat="44.58654" lon="2.32287">
        <ele>483.68</ele>
        <time>2014-06-04T09:48:39Z</time>
      </trkpt>
      <trkpt lat="44.58648" lon="2.32266">
        <ele>487.05</ele>
        <time>2014-06-04T09:48:55Z</time>
      </trkpt>
      <trkpt lat="44.58645" lon="2.32244">
        <ele>489.93</ele>
        <time>2014-06-04T09:49:13Z</time>
      </trkpt>
      <trkpt lat="44.58636" lon="2.32216">
        <ele>493.29</ele>
        <time>2014-06-04T09:49:32Z</time>
      </trkpt>
      <trkpt lat="44.58635" lon="2.32213">
        <ele>493.29</ele>
        <time>2014-06-04T09:49:34Z</time>
      </trkpt>
      <trkpt lat="44.58621" lon="2.32184">
        <ele>493.77</ele>
        <time>2014-06-04T09:49:54Z</time>
      </trkpt>
      <trkpt lat="44.58607" lon="2.32166">
        <ele>496.66</ele>
        <time>2014-06-04T09:50:12Z</time>
      </trkpt>
      <trkpt lat="44.58587" lon="2.3214">
        <ele>499.54</ele>
        <time>2014-06-04T09:50:32Z</time>
      </trkpt>
      <trkpt lat="44.58567" lon="2.32114">
        <ele>500.5</ele>
        <time>2014-06-04T09:50:52Z</time>
      </trkpt>
      <trkpt lat="44.58552" lon="2.3209">
        <ele>501.46</ele>
        <time>2014-06-04T09:51:11Z</time>
      </trkpt>
      <trkpt lat="44.58538" lon="2.3206">
        <ele>502.43</ele>
        <time>2014-06-04T09:51:30Z</time>
      </trkpt>
      <trkpt lat="44.58521" lon="2.32029">
        <ele>504.83</ele>
        <time>2014-06-04T09:51:51Z</time>
      </trkpt>
      <trkpt lat="44.58513" lon="2.32003">
        <ele>507.71</ele>
        <time>2014-06-04T09:52:09Z</time>
      </trkpt>
      <trkpt lat="44.585" lon="2.31979">
        <ele>510.6</ele>
        <time>2014-06-04T09:52:27Z</time>
      </trkpt>
      <trkpt lat="44.58485" lon="2.31961">
        <ele>513.48</ele>
        <time>2014-06-04T09:52:44Z</time>
      </trkpt>
      <trkpt lat="44.58476" lon="2.31958">
        <ele>514.92</ele>
        <time>2014-06-04T09:53:00Z</time>
      </trkpt>
      <trkpt lat="44.58474" lon="2.31954">
        <ele>514.44</ele>
        <time>2014-06-04T09:53:18Z</time>
      </trkpt>
      <trkpt lat="44.58473" lon="2.3195">
        <ele>515.4</ele>
        <time>2014-06-04T09:53:36Z</time>
      </trkpt>
      <trkpt lat="44.58471" lon="2.31946">
        <ele>515.88</ele>
        <time>2014-06-04T09:53:59Z</time>
      </trkpt>
      <trkpt lat="44.58473" lon="2.31957">
        <ele>515.88</ele>
        <time>2014-06-04T09:54:18Z</time>
      </trkpt>
      <trkpt lat="44.58473" lon="2.31954">
        <ele>515.4</ele>
        <time>2014-06-04T09:54:38Z</time>
      </trkpt>
      <trkpt lat="44.58473" lon="2.31954">
        <ele>516.37</ele>
        <time>2014-06-04T09:54:57Z</time>
      </trkpt>
      <trkpt lat="44.58474" lon="2.31955">
        <ele>515.88</ele>
        <time>2014-06-04T09:55:19Z</time>
      </trkpt>
      <trkpt lat="44.58471" lon="2.31955">
        <ele>516.37</ele>
        <time>2014-06-04T09:55:39Z</time>
      </trkpt>
      <trkpt lat="44.58474" lon="2.31952">
        <ele>516.85</ele>
        <time>2014-06-04T09:56:00Z</time>
      </trkpt>
      <trkpt lat="44.58472" lon="2.31952">
        <ele>516.85</ele>
        <time>2014-06-04T09:56:14Z</time>
      </trkpt>
      <trkpt lat="44.58474" lon="2.31952">
        <ele>516.85</ele>
        <time>2014-06-04T09:56:39Z</time>
      </trkpt>
      <trkpt lat="44.58471" lon="2.31951">
        <ele>517.33</ele>
        <time>2014-06-04T09:56:57Z</time>
      </trkpt>
      <trkpt lat="44.5847" lon="2.31954">
        <ele>516.85</ele>
        <time>2014-06-04T09:57:19Z</time>
      </trkpt>
      <trkpt lat="44.58478" lon="2.31955">
        <ele>517.81</ele>
        <time>2014-06-04T09:57:34Z</time>
      </trkpt>
      <trkpt lat="44.58479" lon="2.31953">
        <ele>517.33</ele>
        <time>2014-06-04T09:57:49Z</time>
      </trkpt>
      <trkpt lat="44.5848" lon="2.31955">
        <ele>517.33</ele>
        <time>2014-06-04T09:58:11Z</time>
      </trkpt>
      <trkpt lat="44.58474" lon="2.31959">
        <ele>517.33</ele>
        <time>2014-06-04T09:58:35Z</time>
      </trkpt>
      <trkpt lat="44.58461" lon="2.31947">
        <ele>518.29</ele>
        <time>2014-06-04T09:58:51Z</time>
      </trkpt>
      <trkpt lat="44.58447" lon="2.3194">
        <ele>517.33</ele>
        <time>2014-06-04T09:59:10Z</time>
      </trkpt>
      <trkpt lat="44.58443" lon="2.31939">
        <ele>517.33</ele>
        <time>2014-06-04T09:59:32Z</time>
      </trkpt>
      <trkpt lat="44.58443" lon="2.31935">
        <ele>516.85</ele>
        <time>2014-06-04T09:59:58Z</time>
      </trkpt>
      <trkpt lat="44.58439" lon="2.31938">
        <ele>517.33</ele>
        <time>2014-06-04T10:00:26Z</time>
      </trkpt>
      <trkpt lat="44.58446" lon="2.31938">
        <ele>517.33</ele>
        <time>2014-06-04T10:00:52Z</time>
      </trkpt>
      <trkpt lat="44.58443" lon="2.3194">
        <ele>517.81</ele>
        <time>2014-06-04T10:01:22Z</time>
      </trkpt>
      <trkpt lat="44.58439" lon="2.3194">
        <ele>517.33</ele>
        <time>2014-06-04T10:01:49Z</time>
      </trkpt>
      <trkpt lat="44.58442" lon="2.31936">
        <ele>516.85</ele>
        <time>2014-06-04T10:02:21Z</time>
      </trkpt>
      <trkpt lat="44.58444" lon="2.31939">
        <ele>517.33</ele>
        <time>2014-06-04T10:02:51Z</time>
      </trkpt>
      <trkpt lat="44.5844" lon="2.31938">
        <ele>516.85</ele>
        <time>2014-06-04T10:03:12Z</time>
      </trkpt>
      <trkpt lat="44.58439" lon="2.31939">
        <ele>517.33</ele>
        <time>2014-06-04T10:03:14Z</time>
      </trkpt>
      <trkpt lat="44.58433" lon="2.31942">
        <ele>518.29</ele>
        <time>2014-06-04T10:03:38Z</time>
      </trkpt>
      <trkpt lat="44.58441" lon="2.31942">
        <ele>517.33</ele>
        <time>2014-06-04T10:03:59Z</time>
      </trkpt>
      <trkpt lat="44.58427" lon="2.31939">
        <ele>514.44</ele>
        <time>2014-06-04T10:04:12Z</time>
      </trkpt>
      <trkpt lat="44.5842" lon="2.31931">
        <ele>514.92</ele>
        <time>2014-06-04T10:04:31Z</time>
      </trkpt>
      <trkpt lat="44.58426" lon="2.3192">
        <ele>515.4</ele>
        <time>2014-06-04T10:04:53Z</time>
      </trkpt>
      <trkpt lat="44.58423" lon="2.31918">
        <ele>515.88</ele>
        <time>2014-06-04T10:05:06Z</time>
      </trkpt>
      <trkpt lat="44.58417" lon="2.31918">
        <ele>516.37</ele>
        <time>2014-06-04T10:05:18Z</time>
      </trkpt>
      <trkpt lat="44.5842" lon="2.31908">
        <ele>514.92</ele>
        <time>2014-06-04T10:05:51Z</time>
      </trkpt>
      <trkpt lat="44.58415" lon="2.31906">
        <ele>514.44</ele>
        <time>2014-06-04T10:06:17Z</time>
      </trkpt>
      <trkpt lat="44.58409" lon="2.3191">
        <ele>514.92</ele>
        <time>2014-06-04T10:06:41Z</time>
      </trkpt>
      <trkpt lat="44.58423" lon="2.31916">
        <ele>514.92</ele>
        <time>2014-06-04T10:07:03Z</time>
      </trkpt>
      <trkpt lat="44.58422" lon="2.31919">
        <ele>514.92</ele>
        <time>2014-06-04T10:07:26Z</time>
      </trkpt>
      <trkpt lat="44.58424" lon="2.31912">
        <ele>514.44</ele>
        <time>2014-06-04T10:07:52Z</time>
      </trkpt>
      <trkpt lat="44.58426" lon="2.3192">
        <ele>514.92</ele>
        <time>2014-06-04T10:08:16Z</time>
      </trkpt>
      <trkpt lat="44.58426" lon="2.31918">
        <ele>514.44</ele>
        <time>2014-06-04T10:08:33Z</time>
      </trkpt>
      <trkpt lat="44.58425" lon="2.31916">
        <ele>514.92</ele>
        <time>2014-06-04T10:08:58Z</time>
      </trkpt>
      <trkpt lat="44.58428" lon="2.31907">
        <ele>514.44</ele>
        <time>2014-06-04T10:09:07Z</time>
      </trkpt>
      <trkpt lat="44.5844" lon="2.31905">
        <ele>514.44</ele>
        <time>2014-06-04T10:09:28Z</time>
      </trkpt>
      <trkpt lat="44.58434" lon="2.31898">
        <ele>514.92</ele>
        <time>2014-06-04T10:09:50Z</time>
      </trkpt>
      <trkpt lat="44.58431" lon="2.31913">
        <ele>513.96</ele>
        <time>2014-06-04T10:10:12Z</time>
      </trkpt>
      <trkpt lat="44.58435" lon="2.31907">
        <ele>515.4</ele>
        <time>2014-06-04T10:10:33Z</time>
      </trkpt>
      <trkpt lat="44.58435" lon="2.31908">
        <ele>514.44</ele>
        <time>2014-06-04T10:10:52Z</time>
      </trkpt>
      <trkpt lat="44.58434" lon="2.31901">
        <ele>514.44</ele>
        <time>2014-06-04T10:11:11Z</time>
      </trkpt>
      <trkpt lat="44.58431" lon="2.31915">
        <ele>514.44</ele>
        <time>2014-06-04T10:11:32Z</time>
      </trkpt>
      <trkpt lat="44.58435" lon="2.3192">
        <ele>513.96</ele>
        <time>2014-06-04T10:11:55Z</time>
      </trkpt>
      <trkpt lat="44.58426" lon="2.31906">
        <ele>513.48</ele>
        <time>2014-06-04T10:26:24Z</time>
      </trkpt>
      <trkpt lat="44.58425" lon="2.31909">
        <ele>513.96</ele>
        <time>2014-06-04T10:26:44Z</time>
      </trkpt>
      <trkpt lat="44.58419" lon="2.31927">
        <ele>514.44</ele>
        <time>2014-06-04T10:27:03Z</time>
      </trkpt>
      <trkpt lat="44.58418" lon="2.31914">
        <ele>513</ele>
        <time>2014-06-04T10:27:24Z</time>
      </trkpt>
      <trkpt lat="44.58424" lon="2.31915">
        <ele>513.96</ele>
        <time>2014-06-04T10:27:42Z</time>
      </trkpt>
      <trkpt lat="44.58413" lon="2.31912">
        <ele>514.92</ele>
        <time>2014-06-04T10:28:01Z</time>
      </trkpt>
      <trkpt lat="44.58399" lon="2.31918">
        <ele>513.96</ele>
        <time>2014-06-04T10:28:19Z</time>
      </trkpt>
      <trkpt lat="44.58404" lon="2.31922">
        <ele>513.96</ele>
        <time>2014-06-04T10:28:42Z</time>
      </trkpt>
      <trkpt lat="44.58416" lon="2.31916">
        <ele>513.96</ele>
        <time>2014-06-04T10:29:07Z</time>
      </trkpt>
      <trkpt lat="44.58424" lon="2.31919">
        <ele>514.44</ele>
        <time>2014-06-04T10:29:33Z</time>
      </trkpt>
      <trkpt lat="44.58432" lon="2.31912">
        <ele>514.92</ele>
        <time>2014-06-04T10:29:57Z</time>
      </trkpt>
      <trkpt lat="44.58429" lon="2.31912">
        <ele>513.96</ele>
        <time>2014-06-04T10:30:22Z</time>
      </trkpt>
      <trkpt lat="44.58428" lon="2.31915">
        <ele>513.96</ele>
        <time>2014-06-04T10:30:44Z</time>
      </trkpt>
      <trkpt lat="44.58428" lon="2.31913">
        <ele>514.44</ele>
        <time>2014-06-04T10:31:04Z</time>
      </trkpt>
      <trkpt lat="44.58421" lon="2.31916">
        <ele>514.44</ele>
        <time>2014-06-04T10:31:19Z</time>
      </trkpt>
      <trkpt lat="44.58424" lon="2.31914">
        <ele>514.44</ele>
        <time>2014-06-04T10:31:39Z</time>
      </trkpt>
      <trkpt lat="44.58423" lon="2.31912">
        <ele>514.92</ele>
        <time>2014-06-04T10:32:04Z</time>
      </trkpt>
      <trkpt lat="44.58423" lon="2.31917">
        <ele>514.44</ele>
        <time>2014-06-04T10:32:30Z</time>
      </trkpt>
      <trkpt lat="44.58424" lon="2.31915">
        <ele>513.96</ele>
        <time>2014-06-04T10:32:56Z</time>
      </trkpt>
      <trkpt lat="44.58425" lon="2.3191">
        <ele>515.4</ele>
        <time>2014-06-04T10:33:13Z</time>
      </trkpt>
      <trkpt lat="44.58427" lon="2.31909">
        <ele>514.92</ele>
        <time>2014-06-04T10:33:36Z</time>
      </trkpt>
      <trkpt lat="44.58431" lon="2.3191">
        <ele>514.92</ele>
        <time>2014-06-04T10:33:52Z</time>
      </trkpt>
      <trkpt lat="44.58431" lon="2.31914">
        <ele>514.44</ele>
        <time>2014-06-04T10:34:16Z</time>
      </trkpt>
      <trkpt lat="44.5843" lon="2.31911">
        <ele>515.4</ele>
        <time>2014-06-04T10:34:39Z</time>
      </trkpt>
      <trkpt lat="44.58428" lon="2.31911">
        <ele>510.12</ele>
        <time>2014-06-04T10:34:57Z</time>
      </trkpt>
      <trkpt lat="44.58428" lon="2.31911">
        <ele>519.25</ele>
        <time>2014-06-04T10:34:58Z</time>
      </trkpt>
      <trkpt lat="44.58427" lon="2.3191">
        <ele>515.4</ele>
        <time>2014-06-04T10:34:59Z</time>
      </trkpt>
      <trkpt lat="44.58423" lon="2.31908">
        <ele>514.92</ele>
        <time>2014-06-04T10:35:23Z</time>
      </trkpt>
      <trkpt lat="44.58425" lon="2.31909">
        <ele>512.04</ele>
        <time>2014-06-04T10:35:28Z</time>
      </trkpt>
      <trkpt lat="44.58424" lon="2.31908">
        <ele>516.85</ele>
        <time>2014-06-04T10:35:30Z</time>
      </trkpt>
      <trkpt lat="44.58424" lon="2.31908">
        <ele>516.85</ele>
        <time>2014-06-04T10:35:31Z</time>
      </trkpt>
      <trkpt lat="44.58419" lon="2.31914">
        <ele>514.44</ele>
        <time>2014-06-04T10:35:45Z</time>
      </trkpt>
      <trkpt lat="44.58416" lon="2.31934">
        <ele>514.92</ele>
        <time>2014-06-04T10:36:03Z</time>
      </trkpt>
      <trkpt lat="44.58417" lon="2.31957">
        <ele>514.44</ele>
        <time>2014-06-04T10:36:20Z</time>
      </trkpt>
      <trkpt lat="44.5842" lon="2.31951">
        <ele>515.4</ele>
        <time>2014-06-04T10:36:36Z</time>
      </trkpt>
      <trkpt lat="44.58419" lon="2.31946">
        <ele>515.4</ele>
        <time>2014-06-04T10:36:47Z</time>
      </trkpt>
      <trkpt lat="44.58421" lon="2.31937">
        <ele>513.48</ele>
        <time>2014-06-04T10:36:58Z</time>
      </trkpt>
      <trkpt lat="44.58435" lon="2.31917">
        <ele>514.44</ele>
        <time>2014-06-04T10:37:18Z</time>
      </trkpt>
      <trkpt lat="44.58436" lon="2.31919">
        <ele>514.44</ele>
        <time>2014-06-04T10:37:40Z</time>
      </trkpt>
      <trkpt lat="44.58433" lon="2.31932">
        <ele>514.92</ele>
        <time>2014-06-04T10:37:59Z</time>
      </trkpt>
      <trkpt lat="44.58427" lon="2.31924">
        <ele>515.4</ele>
        <time>2014-06-04T10:38:13Z</time>
      </trkpt>
      <trkpt lat="44.58431" lon="2.31926">
        <ele>514.92</ele>
        <time>2014-06-04T10:38:34Z</time>
      </trkpt>
      <trkpt lat="44.58429" lon="2.31924">
        <ele>514.44</ele>
        <time>2014-06-04T10:39:03Z</time>
      </trkpt>
      <trkpt lat="44.5843" lon="2.3192">
        <ele>513.96</ele>
        <time>2014-06-04T10:39:30Z</time>
      </trkpt>
      <trkpt lat="44.58424" lon="2.31921">
        <ele>514.92</ele>
        <time>2014-06-04T10:39:56Z</time>
      </trkpt>
      <trkpt lat="44.58427" lon="2.31919">
        <ele>514.92</ele>
        <time>2014-06-04T10:40:25Z</time>
      </trkpt>
      <trkpt lat="44.58424" lon="2.31915">
        <ele>515.4</ele>
        <time>2014-06-04T10:40:32Z</time>
      </trkpt>
      <trkpt lat="44.58423" lon="2.31933">
        <ele>514.44</ele>
        <time>2014-06-04T10:40:48Z</time>
      </trkpt>
      <trkpt lat="44.58412" lon="2.31941">
        <ele>513.48</ele>
        <time>2014-06-04T10:41:03Z</time>
      </trkpt>
      <trkpt lat="44.5841" lon="2.31943">
        <ele>513</ele>
        <time>2014-06-04T10:41:05Z</time>
      </trkpt>
      <trkpt lat="44.58389" lon="2.31954">
        <ele>512.04</ele>
        <time>2014-06-04T10:41:22Z</time>
      </trkpt>
      <trkpt lat="44.58374" lon="2.31963">
        <ele>510.12</ele>
        <time>2014-06-04T10:41:39Z</time>
      </trkpt>
      <trkpt lat="44.58355" lon="2.31975">
        <ele>509.64</ele>
        <time>2014-06-04T10:41:58Z</time>
      </trkpt>
      <trkpt lat="44.58346" lon="2.31985">
        <ele>509.16</ele>
        <time>2014-06-04T10:42:21Z</time>
      </trkpt>
      <trkpt lat="44.58345" lon="2.31986">
        <ele>509.16</ele>
        <time>2014-06-04T10:42:22Z</time>
      </trkpt>
      <trkpt lat="44.58327" lon="2.32007">
        <ele>508.19</ele>
        <time>2014-06-04T10:42:42Z</time>
      </trkpt>
      <trkpt lat="44.58307" lon="2.32024">
        <ele>506.27</ele>
        <time>2014-06-04T10:43:03Z</time>
      </trkpt>
      <trkpt lat="44.58288" lon="2.32038">
        <ele>506.27</ele>
        <time>2014-06-04T10:43:20Z</time>
      </trkpt>
      <trkpt lat="44.58267" lon="2.3205">
        <ele>505.79</ele>
        <time>2014-06-04T10:43:38Z</time>
      </trkpt>
      <trkpt lat="44.58248" lon="2.32059">
        <ele>505.79</ele>
        <time>2014-06-04T10:43:54Z</time>
      </trkpt>
      <trkpt lat="44.58222" lon="2.32065">
        <ele>505.31</ele>
        <time>2014-06-04T10:44:14Z</time>
      </trkpt>
      <trkpt lat="44.58217" lon="2.32065">
        <ele>504.35</ele>
        <time>2014-06-04T10:44:18Z</time>
      </trkpt>
      <trkpt lat="44.58202" lon="2.32062">
        <ele>505.31</ele>
        <time>2014-06-04T10:44:29Z</time>
      </trkpt>
      <trkpt lat="44.58186" lon="2.32056">
        <ele>505.79</ele>
        <time>2014-06-04T10:44:44Z</time>
      </trkpt>
      <trkpt lat="44.58165" lon="2.32044">
        <ele>507.71</ele>
        <time>2014-06-04T10:45:03Z</time>
      </trkpt>
      <trkpt lat="44.58149" lon="2.32032">
        <ele>507.71</ele>
        <time>2014-06-04T10:45:21Z</time>
      </trkpt>
      <trkpt lat="44.58134" lon="2.3201">
        <ele>507.71</ele>
        <time>2014-06-04T10:45:39Z</time>
      </trkpt>
      <trkpt lat="44.58127" lon="2.32">
        <ele>509.16</ele>
        <time>2014-06-04T10:45:47Z</time>
      </trkpt>
      <trkpt lat="44.58118" lon="2.31981">
        <ele>509.64</ele>
        <time>2014-06-04T10:46:05Z</time>
      </trkpt>
      <trkpt lat="44.58119" lon="2.31978">
        <ele>505.79</ele>
        <time>2014-06-04T10:46:13Z</time>
      </trkpt>
      <trkpt lat="44.58119" lon="2.31977">
        <ele>514.44</ele>
        <time>2014-06-04T10:46:16Z</time>
      </trkpt>
      <trkpt lat="44.58118" lon="2.31976">
        <ele>514.44</ele>
        <time>2014-06-04T10:46:17Z</time>
      </trkpt>
      <trkpt lat="44.58118" lon="2.31976">
        <ele>511.56</ele>
        <time>2014-06-04T10:46:18Z</time>
      </trkpt>
      <trkpt lat="44.58118" lon="2.31976">
        <ele>509.16</ele>
        <time>2014-06-04T10:46:20Z</time>
      </trkpt>
      <trkpt lat="44.58118" lon="2.31974">
        <ele>510.6</ele>
        <time>2014-06-04T10:46:22Z</time>
      </trkpt>
      <trkpt lat="44.58112" lon="2.31976">
        <ele>508.67</ele>
        <time>2014-06-04T10:46:38Z</time>
      </trkpt>
      <trkpt lat="44.58115" lon="2.31977">
        <ele>508.67</ele>
        <time>2014-06-04T10:46:58Z</time>
      </trkpt>
      <trkpt lat="44.5811" lon="2.31979">
        <ele>508.67</ele>
        <time>2014-06-04T10:47:17Z</time>
      </trkpt>
      <trkpt lat="44.58108" lon="2.31984">
        <ele>508.67</ele>
        <time>2014-06-04T10:47:40Z</time>
      </trkpt>
      <trkpt lat="44.58107" lon="2.31977">
        <ele>508.67</ele>
        <time>2014-06-04T10:48:05Z</time>
      </trkpt>
      <trkpt lat="44.58109" lon="2.31974">
        <ele>507.71</ele>
        <time>2014-06-04T10:48:31Z</time>
      </trkpt>
      <trkpt lat="44.58105" lon="2.3198">
        <ele>507.71</ele>
        <time>2014-06-04T10:48:51Z</time>
      </trkpt>
      <trkpt lat="44.58106" lon="2.31972">
        <ele>507.71</ele>
        <time>2014-06-04T10:49:14Z</time>
      </trkpt>
      <trkpt lat="44.58103" lon="2.31973">
        <ele>508.67</ele>
        <time>2014-06-04T10:49:40Z</time>
      </trkpt>
      <trkpt lat="44.58103" lon="2.3197">
        <ele>508.19</ele>
        <time>2014-06-04T10:50:07Z</time>
      </trkpt>
      <trkpt lat="44.5811" lon="2.3197">
        <ele>508.19</ele>
        <time>2014-06-04T10:50:38Z</time>
      </trkpt>
      <trkpt lat="44.58109" lon="2.31968">
        <ele>508.67</ele>
        <time>2014-06-04T10:50:58Z</time>
      </trkpt>
      <trkpt lat="44.58111" lon="2.31975">
        <ele>508.67</ele>
        <time>2014-06-04T10:51:23Z</time>
      </trkpt>
      <trkpt lat="44.58111" lon="2.3198">
        <ele>508.19</ele>
        <time>2014-06-04T10:51:49Z</time>
      </trkpt>
      <trkpt lat="44.58108" lon="2.31977">
        <ele>508.19</ele>
        <time>2014-06-04T10:52:11Z</time>
      </trkpt>
      <trkpt lat="44.58111" lon="2.31986">
        <ele>508.19</ele>
        <time>2014-06-04T10:52:29Z</time>
      </trkpt>
      <trkpt lat="44.58109" lon="2.3198">
        <ele>508.19</ele>
        <time>2014-06-04T10:52:52Z</time>
      </trkpt>
      <trkpt lat="44.58106" lon="2.31972">
        <ele>508.67</ele>
        <time>2014-06-04T10:53:18Z</time>
      </trkpt>
      <trkpt lat="44.58119" lon="2.31983">
        <ele>509.16</ele>
        <time>2014-06-04T10:53:32Z</time>
      </trkpt>
      <trkpt lat="44.58125" lon="2.31975">
        <ele>509.16</ele>
        <time>2014-06-04T10:53:51Z</time>
      </trkpt>
      <trkpt lat="44.58123" lon="2.31974">
        <ele>509.16</ele>
        <time>2014-06-04T10:54:13Z</time>
      </trkpt>
      <trkpt lat="44.5812" lon="2.31985">
        <ele>508.67</ele>
        <time>2014-06-04T10:54:30Z</time>
      </trkpt>
      <trkpt lat="44.5812" lon="2.31982">
        <ele>508.67</ele>
        <time>2014-06-04T10:54:47Z</time>
      </trkpt>
      <trkpt lat="44.58112" lon="2.31981">
        <ele>507.71</ele>
        <time>2014-06-04T10:55:06Z</time>
      </trkpt>
      <trkpt lat="44.58109" lon="2.31977">
        <ele>508.19</ele>
        <time>2014-06-04T10:55:27Z</time>
      </trkpt>
      <trkpt lat="44.58109" lon="2.31974">
        <ele>507.71</ele>
        <time>2014-06-04T10:55:52Z</time>
      </trkpt>
      <trkpt lat="44.58111" lon="2.31973">
        <ele>507.71</ele>
        <time>2014-06-04T10:56:15Z</time>
      </trkpt>
      <trkpt lat="44.58116" lon="2.31982">
        <ele>508.67</ele>
        <time>2014-06-04T10:56:33Z</time>
      </trkpt>
      <trkpt lat="44.58118" lon="2.31982">
        <ele>508.67</ele>
        <time>2014-06-04T10:56:58Z</time>
      </trkpt>
      <trkpt lat="44.58118" lon="2.3198">
        <ele>509.16</ele>
        <time>2014-06-04T10:57:20Z</time>
      </trkpt>
      <trkpt lat="44.58116" lon="2.3198">
        <ele>508.67</ele>
        <time>2014-06-04T10:57:45Z</time>
      </trkpt>
      <trkpt lat="44.5811" lon="2.31993">
        <ele>510.6</ele>
        <time>2014-06-04T10:58:00Z</time>
      </trkpt>
      <trkpt lat="44.5811" lon="2.31998">
        <ele>511.08</ele>
        <time>2014-06-04T10:58:19Z</time>
      </trkpt>
      <trkpt lat="44.58102" lon="2.32004">
        <ele>510.6</ele>
        <time>2014-06-04T10:58:39Z</time>
      </trkpt>
      <trkpt lat="44.58083" lon="2.32009">
        <ele>511.08</ele>
        <time>2014-06-04T10:58:59Z</time>
      </trkpt>
      <trkpt lat="44.58079" lon="2.32015">
        <ele>511.08</ele>
        <time>2014-06-04T10:59:13Z</time>
      </trkpt>
      <trkpt lat="44.58066" lon="2.32032">
        <ele>510.12</ele>
        <time>2014-06-04T10:59:32Z</time>
      </trkpt>
      <trkpt lat="44.58057" lon="2.32047">
        <ele>509.64</ele>
        <time>2014-06-04T10:59:47Z</time>
      </trkpt>
      <trkpt lat="44.58052" lon="2.32059">
        <ele>509.64</ele>
        <time>2014-06-04T10:59:54Z</time>
      </trkpt>
      <trkpt lat="44.58045" lon="2.32079">
        <ele>509.16</ele>
        <time>2014-06-04T11:00:10Z</time>
      </trkpt>
      <trkpt lat="44.58032" lon="2.32104">
        <ele>509.64</ele>
        <time>2014-06-04T11:00:27Z</time>
      </trkpt>
      <trkpt lat="44.58028" lon="2.32113">
        <ele>509.16</ele>
        <time>2014-06-04T11:00:34Z</time>
      </trkpt>
      <trkpt lat="44.58014" lon="2.32141">
        <ele>508.19</ele>
        <time>2014-06-04T11:00:54Z</time>
      </trkpt>
      <trkpt lat="44.58005" lon="2.32165">
        <ele>508.67</ele>
        <time>2014-06-04T11:01:11Z</time>
      </trkpt>
      <trkpt lat="44.57995" lon="2.3218">
        <ele>508.67</ele>
        <time>2014-06-04T11:01:21Z</time>
      </trkpt>
      <trkpt lat="44.5798" lon="2.32193">
        <ele>507.71</ele>
        <time>2014-06-04T11:01:39Z</time>
      </trkpt>
      <trkpt lat="44.57958" lon="2.32207">
        <ele>505.79</ele>
        <time>2014-06-04T11:02:01Z</time>
      </trkpt>
      <trkpt lat="44.57934" lon="2.32227">
        <ele>503.39</ele>
        <time>2014-06-04T11:02:21Z</time>
      </trkpt>
      <trkpt lat="44.5792" lon="2.32243">
        <ele>501.95</ele>
        <time>2014-06-04T11:02:38Z</time>
      </trkpt>
      <trkpt lat="44.57895" lon="2.32255">
        <ele>499.06</ele>
        <time>2014-06-04T11:02:57Z</time>
      </trkpt>
      <trkpt lat="44.5787" lon="2.32265">
        <ele>496.18</ele>
        <time>2014-06-04T11:03:16Z</time>
      </trkpt>
      <trkpt lat="44.57865" lon="2.3229">
        <ele>494.74</ele>
        <time>2014-06-04T11:03:35Z</time>
      </trkpt>
      <trkpt lat="44.57865" lon="2.32323">
        <ele>492.33</ele>
        <time>2014-06-04T11:03:54Z</time>
      </trkpt>
      <trkpt lat="44.5786" lon="2.32342">
        <ele>491.85</ele>
        <time>2014-06-04T11:04:06Z</time>
      </trkpt>
      <trkpt lat="44.57841" lon="2.32367">
        <ele>490.41</ele>
        <time>2014-06-04T11:04:25Z</time>
      </trkpt>
      <trkpt lat="44.57839" lon="2.32371">
        <ele>491.37</ele>
        <time>2014-06-04T11:04:28Z</time>
      </trkpt>
      <trkpt lat="44.57814" lon="2.32386">
        <ele>490.41</ele>
        <time>2014-06-04T11:04:46Z</time>
      </trkpt>
      <trkpt lat="44.57794" lon="2.32392">
        <ele>489.45</ele>
        <time>2014-06-04T11:05:03Z</time>
      </trkpt>
      <trkpt lat="44.57773" lon="2.32394">
        <ele>488.01</ele>
        <time>2014-06-04T11:05:21Z</time>
      </trkpt>
      <trkpt lat="44.57767" lon="2.32397">
        <ele>488.01</ele>
        <time>2014-06-04T11:05:27Z</time>
      </trkpt>
      <trkpt lat="44.5775" lon="2.32421">
        <ele>487.05</ele>
        <time>2014-06-04T11:05:45Z</time>
      </trkpt>
      <trkpt lat="44.57731" lon="2.32448">
        <ele>486.08</ele>
        <time>2014-06-04T11:06:04Z</time>
      </trkpt>
      <trkpt lat="44.57717" lon="2.32446">
        <ele>486.08</ele>
        <time>2014-06-04T11:06:16Z</time>
      </trkpt>
      <trkpt lat="44.57697" lon="2.3244">
        <ele>485.12</ele>
        <time>2014-06-04T11:06:31Z</time>
      </trkpt>
      <trkpt lat="44.57673" lon="2.32439">
        <ele>483.68</ele>
        <time>2014-06-04T11:06:50Z</time>
      </trkpt>
      <trkpt lat="44.5765" lon="2.32431">
        <ele>481.76</ele>
        <time>2014-06-04T11:07:09Z</time>
      </trkpt>
      <trkpt lat="44.5763" lon="2.32423">
        <ele>481.76</ele>
        <time>2014-06-04T11:07:27Z</time>
      </trkpt>
      <trkpt lat="44.57611" lon="2.3241">
        <ele>481.28</ele>
        <time>2014-06-04T11:07:42Z</time>
      </trkpt>
      <trkpt lat="44.57593" lon="2.32412">
        <ele>480.8</ele>
        <time>2014-06-04T11:07:59Z</time>
      </trkpt>
      <trkpt lat="44.57573" lon="2.32416">
        <ele>479.35</ele>
        <time>2014-06-04T11:08:15Z</time>
      </trkpt>
      <trkpt lat="44.57566" lon="2.32403">
        <ele>478.87</ele>
        <time>2014-06-04T11:08:28Z</time>
      </trkpt>
      <trkpt lat="44.57555" lon="2.32389">
        <ele>478.39</ele>
        <time>2014-06-04T11:08:44Z</time>
      </trkpt>
      <trkpt lat="44.57542" lon="2.32377">
        <ele>476.47</ele>
        <time>2014-06-04T11:09:01Z</time>
      </trkpt>
      <trkpt lat="44.57529" lon="2.32362">
        <ele>475.03</ele>
        <time>2014-06-04T11:09:18Z</time>
      </trkpt>
      <trkpt lat="44.57523" lon="2.32356">
        <ele>474.55</ele>
        <time>2014-06-04T11:09:24Z</time>
      </trkpt>
      <trkpt lat="44.57508" lon="2.32345">
        <ele>473.11</ele>
        <time>2014-06-04T11:09:36Z</time>
      </trkpt>
      <trkpt lat="44.57494" lon="2.32343">
        <ele>471.18</ele>
        <time>2014-06-04T11:09:54Z</time>
      </trkpt>
      <trkpt lat="44.57479" lon="2.32342">
        <ele>470.7</ele>
        <time>2014-06-04T11:10:06Z</time>
      </trkpt>
      <trkpt lat="44.57459" lon="2.32345">
        <ele>469.26</ele>
        <time>2014-06-04T11:10:25Z</time>
      </trkpt>
      <trkpt lat="44.5744" lon="2.32352">
        <ele>468.3</ele>
        <time>2014-06-04T11:10:40Z</time>
      </trkpt>
      <trkpt lat="44.57415" lon="2.32357">
        <ele>465.9</ele>
        <time>2014-06-04T11:10:58Z</time>
      </trkpt>
      <trkpt lat="44.574" lon="2.32375">
        <ele>463.49</ele>
        <time>2014-06-04T11:11:18Z</time>
      </trkpt>
      <trkpt lat="44.57389" lon="2.32408">
        <ele>461.09</ele>
        <time>2014-06-04T11:11:39Z</time>
      </trkpt>
      <trkpt lat="44.57378" lon="2.32445">
        <ele>460.61</ele>
        <time>2014-06-04T11:11:57Z</time>
      </trkpt>
      <trkpt lat="44.57372" lon="2.32462">
        <ele>461.57</ele>
        <time>2014-06-04T11:12:14Z</time>
      </trkpt>
      <trkpt lat="44.5737" lon="2.325">
        <ele>463.97</ele>
        <time>2014-06-04T11:12:36Z</time>
      </trkpt>
      <trkpt lat="44.57367" lon="2.32532">
        <ele>465.9</ele>
        <time>2014-06-04T11:12:56Z</time>
      </trkpt>
      <trkpt lat="44.57353" lon="2.32561">
        <ele>467.82</ele>
        <time>2014-06-04T11:13:17Z</time>
      </trkpt>
      <trkpt lat="44.57342" lon="2.32574">
        <ele>470.7</ele>
        <time>2014-06-04T11:13:31Z</time>
      </trkpt>
      <trkpt lat="44.57323" lon="2.32589">
        <ele>473.11</ele>
        <time>2014-06-04T11:13:54Z</time>
      </trkpt>
      <trkpt lat="44.57305" lon="2.32604">
        <ele>475.51</ele>
        <time>2014-06-04T11:14:15Z</time>
      </trkpt>
      <trkpt lat="44.57288" lon="2.32632">
        <ele>478.39</ele>
        <time>2014-06-04T11:14:33Z</time>
      </trkpt>
      <trkpt lat="44.57279" lon="2.32663">
        <ele>481.28</ele>
        <time>2014-06-04T11:14:53Z</time>
      </trkpt>
      <trkpt lat="44.57269" lon="2.32683">
        <ele>483.68</ele>
        <time>2014-06-04T11:15:10Z</time>
      </trkpt>
      <trkpt lat="44.57257" lon="2.32712">
        <ele>486.08</ele>
        <time>2014-06-04T11:15:29Z</time>
      </trkpt>
      <trkpt lat="44.57242" lon="2.32731">
        <ele>488.01</ele>
        <time>2014-06-04T11:15:48Z</time>
      </trkpt>
      <trkpt lat="44.5722" lon="2.32744">
        <ele>490.41</ele>
        <time>2014-06-04T11:16:06Z</time>
      </trkpt>
      <trkpt lat="44.57201" lon="2.32741">
        <ele>492.33</ele>
        <time>2014-06-04T11:16:24Z</time>
      </trkpt>
      <trkpt lat="44.57182" lon="2.32743">
        <ele>494.74</ele>
        <time>2014-06-04T11:16:42Z</time>
      </trkpt>
      <trkpt lat="44.5716" lon="2.32744">
        <ele>497.62</ele>
        <time>2014-06-04T11:17:03Z</time>
      </trkpt>
      <trkpt lat="44.5714" lon="2.32744">
        <ele>499.54</ele>
        <time>2014-06-04T11:17:21Z</time>
      </trkpt>
      <trkpt lat="44.57117" lon="2.32745">
        <ele>501.46</ele>
        <time>2014-06-04T11:17:40Z</time>
      </trkpt>
      <trkpt lat="44.57095" lon="2.32744">
        <ele>504.35</ele>
        <time>2014-06-04T11:17:59Z</time>
      </trkpt>
      <trkpt lat="44.57077" lon="2.32738">
        <ele>507.23</ele>
        <time>2014-06-04T11:18:18Z</time>
      </trkpt>
      <trkpt lat="44.57073" lon="2.32737">
        <ele>508.19</ele>
        <time>2014-06-04T11:18:22Z</time>
      </trkpt>
      <trkpt lat="44.57046" lon="2.32729">
        <ele>510.12</ele>
        <time>2014-06-04T11:18:40Z</time>
      </trkpt>
      <trkpt lat="44.57027" lon="2.32722">
        <ele>512.04</ele>
        <time>2014-06-04T11:18:57Z</time>
      </trkpt>
      <trkpt lat="44.5701" lon="2.3272">
        <ele>514.44</ele>
        <time>2014-06-04T11:19:15Z</time>
      </trkpt>
      <trkpt lat="44.56983" lon="2.3272">
        <ele>516.85</ele>
        <time>2014-06-04T11:19:33Z</time>
      </trkpt>
      <trkpt lat="44.56964" lon="2.32732">
        <ele>519.73</ele>
        <time>2014-06-04T11:19:52Z</time>
      </trkpt>
      <trkpt lat="44.56937" lon="2.3274">
        <ele>522.13</ele>
        <time>2014-06-04T11:20:13Z</time>
      </trkpt>
      <trkpt lat="44.56917" lon="2.32742">
        <ele>524.54</ele>
        <time>2014-06-04T11:20:31Z</time>
      </trkpt>
      <trkpt lat="44.56903" lon="2.32739">
        <ele>525.98</ele>
        <time>2014-06-04T11:20:44Z</time>
      </trkpt>
      <trkpt lat="44.56884" lon="2.3274">
        <ele>528.38</ele>
        <time>2014-06-04T11:21:01Z</time>
      </trkpt>
      <trkpt lat="44.56895" lon="2.32727">
        <ele>529.82</ele>
        <time>2014-06-04T11:21:17Z</time>
      </trkpt>
      <trkpt lat="44.56913" lon="2.32726">
        <ele>530.79</ele>
        <time>2014-06-04T11:21:34Z</time>
      </trkpt>
      <trkpt lat="44.56937" lon="2.32706">
        <ele>531.75</ele>
        <time>2014-06-04T11:21:54Z</time>
      </trkpt>
      <trkpt lat="44.56954" lon="2.3268">
        <ele>534.15</ele>
        <time>2014-06-04T11:22:14Z</time>
      </trkpt>
      <trkpt lat="44.56972" lon="2.32665">
        <ele>536.55</ele>
        <time>2014-06-04T11:22:33Z</time>
      </trkpt>
      <trkpt lat="44.56993" lon="2.32657">
        <ele>537.99</ele>
        <time>2014-06-04T11:22:50Z</time>
      </trkpt>
      <trkpt lat="44.57006" lon="2.32652">
        <ele>539.92</ele>
        <time>2014-06-04T11:23:06Z</time>
      </trkpt>
      <trkpt lat="44.57026" lon="2.32648">
        <ele>541.84</ele>
        <time>2014-06-04T11:23:28Z</time>
      </trkpt>
      <trkpt lat="44.57038" lon="2.32643">
        <ele>542.8</ele>
        <time>2014-06-04T11:23:36Z</time>
      </trkpt>
      <trkpt lat="44.57049" lon="2.32636">
        <ele>543.76</ele>
        <time>2014-06-04T11:23:46Z</time>
      </trkpt>
      <trkpt lat="44.57051" lon="2.32634">
        <ele>543.76</ele>
        <time>2014-06-04T11:23:48Z</time>
      </trkpt>
      <trkpt lat="44.57067" lon="2.32603">
        <ele>545.69</ele>
        <time>2014-06-04T11:24:07Z</time>
      </trkpt>
      <trkpt lat="44.57078" lon="2.32576">
        <ele>547.61</ele>
        <time>2014-06-04T11:24:25Z</time>
      </trkpt>
      <trkpt lat="44.57081" lon="2.32554">
        <ele>548.09</ele>
        <time>2014-06-04T11:24:43Z</time>
      </trkpt>
      <trkpt lat="44.57083" lon="2.3254">
        <ele>548.57</ele>
        <time>2014-06-04T11:24:56Z</time>
      </trkpt>
      <trkpt lat="44.5708" lon="2.32537">
        <ele>549.53</ele>
        <time>2014-06-04T11:25:24Z</time>
      </trkpt>
      <trkpt lat="44.57078" lon="2.32538">
        <ele>549.53</ele>
        <time>2014-06-04T11:25:48Z</time>
      </trkpt>
      <trkpt lat="44.57085" lon="2.32541">
        <ele>549.53</ele>
        <time>2014-06-04T11:26:20Z</time>
      </trkpt>
      <trkpt lat="44.57084" lon="2.32536">
        <ele>549.53</ele>
        <time>2014-06-04T11:26:40Z</time>
      </trkpt>
      <trkpt lat="44.57085" lon="2.32525">
        <ele>550.01</ele>
        <time>2014-06-04T11:26:49Z</time>
      </trkpt>
      <trkpt lat="44.57085" lon="2.32522">
        <ele>550.49</ele>
        <time>2014-06-04T11:26:51Z</time>
      </trkpt>
      <trkpt lat="44.57083" lon="2.3252">
        <ele>550.49</ele>
        <time>2014-06-04T11:26:53Z</time>
      </trkpt>
      <trkpt lat="44.57083" lon="2.32514">
        <ele>550.97</ele>
        <time>2014-06-04T11:26:56Z</time>
      </trkpt>
      <trkpt lat="44.5708" lon="2.32507">
        <ele>550.97</ele>
        <time>2014-06-04T11:27:02Z</time>
      </trkpt>
      <trkpt lat="44.57075" lon="2.32502">
        <ele>552.41</ele>
        <time>2014-06-04T11:27:14Z</time>
      </trkpt>
      <trkpt lat="44.57072" lon="2.32502">
        <ele>551.45</ele>
        <time>2014-06-04T11:27:31Z</time>
      </trkpt>
      <trkpt lat="44.57071" lon="2.32505">
        <ele>551.45</ele>
        <time>2014-06-04T11:27:45Z</time>
      </trkpt>
      <trkpt lat="44.57074" lon="2.32504">
        <ele>551.93</ele>
        <time>2014-06-04T11:28:05Z</time>
      </trkpt>
      <trkpt lat="44.5707" lon="2.32509">
        <ele>551.93</ele>
        <time>2014-06-04T11:28:17Z</time>
      </trkpt>
      <trkpt lat="44.57065" lon="2.3251">
        <ele>551.93</ele>
        <time>2014-06-04T11:28:37Z</time>
      </trkpt>
      <trkpt lat="44.57065" lon="2.3251">
        <ele>553.38</ele>
        <time>2014-06-04T11:28:52Z</time>
      </trkpt>
      <trkpt lat="44.57066" lon="2.32506">
        <ele>552.41</ele>
        <time>2014-06-04T11:29:13Z</time>
      </trkpt>
      <trkpt lat="44.57065" lon="2.32507">
        <ele>551.93</ele>
        <time>2014-06-04T11:29:37Z</time>
      </trkpt>
      <trkpt lat="44.57065" lon="2.32511">
        <ele>552.9</ele>
        <time>2014-06-04T11:30:03Z</time>
      </trkpt>
      <trkpt lat="44.57064" lon="2.3251">
        <ele>552.41</ele>
        <time>2014-06-04T11:30:22Z</time>
      </trkpt>
      <trkpt lat="44.57061" lon="2.32508">
        <ele>552.9</ele>
        <time>2014-06-04T11:30:50Z</time>
      </trkpt>
      <trkpt lat="44.57057" lon="2.32506">
        <ele>552.9</ele>
        <time>2014-06-04T11:31:10Z</time>
      </trkpt>
      <trkpt lat="44.57053" lon="2.32514">
        <ele>553.38</ele>
        <time>2014-06-04T11:31:22Z</time>
      </trkpt>
      <trkpt lat="44.57042" lon="2.32523">
        <ele>554.34</ele>
        <time>2014-06-04T11:31:37Z</time>
      </trkpt>
      <trkpt lat="44.57029" lon="2.3253">
        <ele>555.78</ele>
        <time>2014-06-04T11:31:55Z</time>
      </trkpt>
      <trkpt lat="44.5703" lon="2.32529">
        <ele>554.82</ele>
        <time>2014-06-04T11:32:09Z</time>
      </trkpt>
      <trkpt lat="44.57026" lon="2.32532">
        <ele>555.3</ele>
        <time>2014-06-04T11:32:21Z</time>
      </trkpt>
      <trkpt lat="44.57013" lon="2.32538">
        <ele>555.78</ele>
        <time>2014-06-04T11:32:34Z</time>
      </trkpt>
      <trkpt lat="44.56997" lon="2.32548">
        <ele>557.22</ele>
        <time>2014-06-04T11:32:50Z</time>
      </trkpt>
      <trkpt lat="44.56996" lon="2.32549">
        <ele>554.34</ele>
        <time>2014-06-04T11:32:51Z</time>
      </trkpt>
      <trkpt lat="44.56996" lon="2.32549">
        <ele>559.14</ele>
        <time>2014-06-04T11:32:52Z</time>
      </trkpt>
      <trkpt lat="44.56995" lon="2.3255">
        <ele>558.66</ele>
        <time>2014-06-04T11:32:53Z</time>
      </trkpt>
      <trkpt lat="44.56976" lon="2.32558">
        <ele>557.7</ele>
        <time>2014-06-04T11:33:12Z</time>
      </trkpt>
      <trkpt lat="44.56962" lon="2.3256">
        <ele>556.26</ele>
        <time>2014-06-04T11:33:25Z</time>
      </trkpt>
      <trkpt lat="44.5696" lon="2.3256">
        <ele>558.18</ele>
        <time>2014-06-04T11:33:27Z</time>
      </trkpt>
      <trkpt lat="44.56939" lon="2.32551">
        <ele>560.11</ele>
        <time>2014-06-04T11:33:48Z</time>
      </trkpt>
      <trkpt lat="44.56931" lon="2.32547">
        <ele>560.59</ele>
        <time>2014-06-04T11:33:56Z</time>
      </trkpt>
      <trkpt lat="44.56915" lon="2.32539">
        <ele>561.55</ele>
        <time>2014-06-04T11:34:12Z</time>
      </trkpt>
      <trkpt lat="44.56897" lon="2.32529">
        <ele>562.99</ele>
        <time>2014-06-04T11:34:31Z</time>
      </trkpt>
      <trkpt lat="44.56877" lon="2.3252">
        <ele>564.91</ele>
        <time>2014-06-04T11:34:49Z</time>
      </trkpt>
      <trkpt lat="44.56876" lon="2.32519">
        <ele>564.43</ele>
        <time>2014-06-04T11:34:50Z</time>
      </trkpt>
      <trkpt lat="44.5685" lon="2.32507">
        <ele>564.91</ele>
        <time>2014-06-04T11:35:12Z</time>
      </trkpt>
      <trkpt lat="44.56821" lon="2.32487">
        <ele>566.35</ele>
        <time>2014-06-04T11:35:35Z</time>
      </trkpt>
      <trkpt lat="44.568" lon="2.32465">
        <ele>567.8</ele>
        <time>2014-06-04T11:35:55Z</time>
      </trkpt>
      <trkpt lat="44.5678" lon="2.32442">
        <ele>569.72</ele>
        <time>2014-06-04T11:36:15Z</time>
      </trkpt>
      <trkpt lat="44.5676" lon="2.32414">
        <ele>571.16</ele>
        <time>2014-06-04T11:36:37Z</time>
      </trkpt>
      <trkpt lat="44.56739" lon="2.32393">
        <ele>573.56</ele>
        <time>2014-06-04T11:36:57Z</time>
      </trkpt>
      <trkpt lat="44.56715" lon="2.32377">
        <ele>575.97</ele>
        <time>2014-06-04T11:37:20Z</time>
      </trkpt>
      <trkpt lat="44.56694" lon="2.32364">
        <ele>576.93</ele>
        <time>2014-06-04T11:37:41Z</time>
      </trkpt>
      <trkpt lat="44.56672" lon="2.3235">
        <ele>578.37</ele>
        <time>2014-06-04T11:38:00Z</time>
      </trkpt>
      <trkpt lat="44.56662" lon="2.32342">
        <ele>579.81</ele>
        <time>2014-06-04T11:38:06Z</time>
      </trkpt>
      <trkpt lat="44.56643" lon="2.32332">
        <ele>579.81</ele>
        <time>2014-06-04T11:38:24Z</time>
      </trkpt>
      <trkpt lat="44.5662" lon="2.32319">
        <ele>582.22</ele>
        <time>2014-06-04T11:38:44Z</time>
      </trkpt>
      <trkpt lat="44.56613" lon="2.32316">
        <ele>583.66</ele>
        <time>2014-06-04T11:38:52Z</time>
      </trkpt>
      <trkpt lat="44.56615" lon="2.32317">
        <ele>584.14</ele>
        <time>2014-06-04T11:39:09Z</time>
      </trkpt>
      <trkpt lat="44.56611" lon="2.3231">
        <ele>583.18</ele>
        <time>2014-06-04T11:39:34Z</time>
      </trkpt>
      <trkpt lat="44.56611" lon="2.3231">
        <ele>583.66</ele>
        <time>2014-06-04T11:39:51Z</time>
      </trkpt>
      <trkpt lat="44.56612" lon="2.32314">
        <ele>584.14</ele>
        <time>2014-06-04T11:40:05Z</time>
      </trkpt>
      <trkpt lat="44.56612" lon="2.32315">
        <ele>584.62</ele>
        <time>2014-06-04T11:40:34Z</time>
      </trkpt>
      <trkpt lat="44.56608" lon="2.32309">
        <ele>584.62</ele>
        <time>2014-06-04T11:40:57Z</time>
      </trkpt>
      <trkpt lat="44.56604" lon="2.32285">
        <ele>585.1</ele>
        <time>2014-06-04T11:41:12Z</time>
      </trkpt>
      <trkpt lat="44.56604" lon="2.32251">
        <ele>585.1</ele>
        <time>2014-06-04T11:41:33Z</time>
      </trkpt>
      <trkpt lat="44.56605" lon="2.32234">
        <ele>585.1</ele>
        <time>2014-06-04T11:41:42Z</time>
      </trkpt>
      <trkpt lat="44.56607" lon="2.32209">
        <ele>585.58</ele>
        <time>2014-06-04T11:41:58Z</time>
      </trkpt>
      <trkpt lat="44.5661" lon="2.32181">
        <ele>586.06</ele>
        <time>2014-06-04T11:42:18Z</time>
      </trkpt>
      <trkpt lat="44.56614" lon="2.32165">
        <ele>586.54</ele>
        <time>2014-06-04T11:42:32Z</time>
      </trkpt>
      <trkpt lat="44.56618" lon="2.32141">
        <ele>586.54</ele>
        <time>2014-06-04T11:42:48Z</time>
      </trkpt>
      <trkpt lat="44.56622" lon="2.32113">
        <ele>587.02</ele>
        <time>2014-06-04T11:43:06Z</time>
      </trkpt>
      <trkpt lat="44.56623" lon="2.32108">
        <ele>586.54</ele>
        <time>2014-06-04T11:43:09Z</time>
      </trkpt>
      <trkpt lat="44.56629" lon="2.32075">
        <ele>586.54</ele>
        <time>2014-06-04T11:43:30Z</time>
      </trkpt>
      <trkpt lat="44.5663" lon="2.32069">
        <ele>587.02</ele>
        <time>2014-06-04T11:43:34Z</time>
      </trkpt>
      <trkpt lat="44.56633" lon="2.32046">
        <ele>586.54</ele>
        <time>2014-06-04T11:43:48Z</time>
      </trkpt>
      <trkpt lat="44.56633" lon="2.3204">
        <ele>587.02</ele>
        <time>2014-06-04T11:43:56Z</time>
      </trkpt>
      <trkpt lat="44.56639" lon="2.32005">
        <ele>585.58</ele>
        <time>2014-06-04T11:44:16Z</time>
      </trkpt>
      <trkpt lat="44.56648" lon="2.3197">
        <ele>585.58</ele>
        <time>2014-06-04T11:44:37Z</time>
      </trkpt>
      <trkpt lat="44.56667" lon="2.31946">
        <ele>584.14</ele>
        <time>2014-06-04T11:44:57Z</time>
      </trkpt>
      <trkpt lat="44.56696" lon="2.31929">
        <ele>583.18</ele>
        <time>2014-06-04T11:45:20Z</time>
      </trkpt>
      <trkpt lat="44.5672" lon="2.31914">
        <ele>583.18</ele>
        <time>2014-06-04T11:45:41Z</time>
      </trkpt>
      <trkpt lat="44.56726" lon="2.3191">
        <ele>579.33</ele>
        <time>2014-06-04T11:45:46Z</time>
      </trkpt>
      <trkpt lat="44.56728" lon="2.31909">
        <ele>586.06</ele>
        <time>2014-06-04T11:45:47Z</time>
      </trkpt>
      <trkpt lat="44.56729" lon="2.31908">
        <ele>582.7</ele>
        <time>2014-06-04T11:45:48Z</time>
      </trkpt>
      <trkpt lat="44.56751" lon="2.3189">
        <ele>580.77</ele>
        <time>2014-06-04T11:46:08Z</time>
      </trkpt>
      <trkpt lat="44.56769" lon="2.31866">
        <ele>581.25</ele>
        <time>2014-06-04T11:46:25Z</time>
      </trkpt>
      <trkpt lat="44.56784" lon="2.31842">
        <ele>580.29</ele>
        <time>2014-06-04T11:46:44Z</time>
      </trkpt>
      <trkpt lat="44.56799" lon="2.3182">
        <ele>580.29</ele>
        <time>2014-06-04T11:47:01Z</time>
      </trkpt>
      <trkpt lat="44.56818" lon="2.31797">
        <ele>579.33</ele>
        <time>2014-06-04T11:47:21Z</time>
      </trkpt>
      <trkpt lat="44.56839" lon="2.31786">
        <ele>579.81</ele>
        <time>2014-06-04T11:47:40Z</time>
      </trkpt>
      <trkpt lat="44.56857" lon="2.31786">
        <ele>581.25</ele>
        <time>2014-06-04T11:47:56Z</time>
      </trkpt>
      <trkpt lat="44.56883" lon="2.31787">
        <ele>581.25</ele>
        <time>2014-06-04T11:48:15Z</time>
      </trkpt>
      <trkpt lat="44.56916" lon="2.31785">
        <ele>580.77</ele>
        <time>2014-06-04T11:48:41Z</time>
      </trkpt>
      <trkpt lat="44.56939" lon="2.31784">
        <ele>579.81</ele>
        <time>2014-06-04T11:49:00Z</time>
      </trkpt>
      <trkpt lat="44.56959" lon="2.31763">
        <ele>578.85</ele>
        <time>2014-06-04T11:49:20Z</time>
      </trkpt>
      <trkpt lat="44.56959" lon="2.31758">
        <ele>578.85</ele>
        <time>2014-06-04T11:49:23Z</time>
      </trkpt>
      <trkpt lat="44.56949" lon="2.31731">
        <ele>575.97</ele>
        <time>2014-06-04T11:49:42Z</time>
      </trkpt>
      <trkpt lat="44.56934" lon="2.3172">
        <ele>575.49</ele>
        <time>2014-06-04T11:49:56Z</time>
      </trkpt>
      <trkpt lat="44.56924" lon="2.31714">
        <ele>575.01</ele>
        <time>2014-06-04T11:50:05Z</time>
      </trkpt>
      <trkpt lat="44.56906" lon="2.31703">
        <ele>573.56</ele>
        <time>2014-06-04T11:50:25Z</time>
      </trkpt>
      <trkpt lat="44.56902" lon="2.31701">
        <ele>574.04</ele>
        <time>2014-06-04T11:50:43Z</time>
      </trkpt>
      <trkpt lat="44.569" lon="2.317">
        <ele>574.04</ele>
        <time>2014-06-04T11:50:45Z</time>
      </trkpt>
      <trkpt lat="44.56883" lon="2.31676">
        <ele>572.12</ele>
        <time>2014-06-04T11:51:05Z</time>
      </trkpt>
      <trkpt lat="44.56875" lon="2.31642">
        <ele>571.16</ele>
        <time>2014-06-04T11:51:25Z</time>
      </trkpt>
      <trkpt lat="44.56871" lon="2.31607">
        <ele>569.72</ele>
        <time>2014-06-04T11:51:46Z</time>
      </trkpt>
      <trkpt lat="44.56863" lon="2.31567">
        <ele>567.32</ele>
        <time>2014-06-04T11:52:10Z</time>
      </trkpt>
      <trkpt lat="44.56853" lon="2.31528">
        <ele>565.87</ele>
        <time>2014-06-04T11:52:32Z</time>
      </trkpt>
      <trkpt lat="44.56844" lon="2.31494">
        <ele>564.43</ele>
        <time>2014-06-04T11:52:53Z</time>
      </trkpt>
      <trkpt lat="44.56829" lon="2.31455">
        <ele>561.07</ele>
        <time>2014-06-04T11:53:17Z</time>
      </trkpt>
      <trkpt lat="44.56809" lon="2.31426">
        <ele>560.11</ele>
        <time>2014-06-04T11:53:39Z</time>
      </trkpt>
      <trkpt lat="44.56795" lon="2.31395">
        <ele>559.62</ele>
        <time>2014-06-04T11:53:57Z</time>
      </trkpt>
      <trkpt lat="44.56786" lon="2.31361">
        <ele>558.66</ele>
        <time>2014-06-04T11:54:16Z</time>
      </trkpt>
      <trkpt lat="44.56776" lon="2.31323">
        <ele>559.62</ele>
        <time>2014-06-04T11:54:38Z</time>
      </trkpt>
      <trkpt lat="44.5677" lon="2.31287">
        <ele>560.11</ele>
        <time>2014-06-04T11:54:57Z</time>
      </trkpt>
      <trkpt lat="44.56768" lon="2.31254">
        <ele>560.59</ele>
        <time>2014-06-04T11:55:15Z</time>
      </trkpt>
      <trkpt lat="44.56765" lon="2.31212">
        <ele>561.07</ele>
        <time>2014-06-04T11:55:37Z</time>
      </trkpt>
      <trkpt lat="44.56753" lon="2.31189">
        <ele>562.03</ele>
        <time>2014-06-04T11:55:53Z</time>
      </trkpt>
      <trkpt lat="44.56734" lon="2.31166">
        <ele>562.99</ele>
        <time>2014-06-04T11:56:11Z</time>
      </trkpt>
      <trkpt lat="44.56713" lon="2.3114">
        <ele>563.47</ele>
        <time>2014-06-04T11:56:32Z</time>
      </trkpt>
      <trkpt lat="44.56687" lon="2.31113">
        <ele>563.47</ele>
        <time>2014-06-04T11:56:55Z</time>
      </trkpt>
      <trkpt lat="44.56666" lon="2.31085">
        <ele>562.03</ele>
        <time>2014-06-04T11:57:14Z</time>
      </trkpt>
      <trkpt lat="44.56654" lon="2.3106">
        <ele>562.03</ele>
        <time>2014-06-04T11:57:30Z</time>
      </trkpt>
      <trkpt lat="44.56637" lon="2.31033">
        <ele>561.07</ele>
        <time>2014-06-04T11:57:48Z</time>
      </trkpt>
      <trkpt lat="44.56617" lon="2.31012">
        <ele>561.07</ele>
        <time>2014-06-04T11:58:06Z</time>
      </trkpt>
      <trkpt lat="44.56601" lon="2.30988">
        <ele>560.11</ele>
        <time>2014-06-04T11:58:23Z</time>
      </trkpt>
      <trkpt lat="44.56594" lon="2.30975">
        <ele>559.62</ele>
        <time>2014-06-04T11:58:31Z</time>
      </trkpt>
      <trkpt lat="44.5658" lon="2.30947">
        <ele>556.26</ele>
        <time>2014-06-04T11:58:50Z</time>
      </trkpt>
      <trkpt lat="44.56569" lon="2.30912">
        <ele>553.86</ele>
        <time>2014-06-04T11:59:11Z</time>
      </trkpt>
      <trkpt lat="44.56568" lon="2.30909">
        <ele>550.49</ele>
        <time>2014-06-04T11:59:13Z</time>
      </trkpt>
      <trkpt lat="44.56568" lon="2.30908">
        <ele>557.22</ele>
        <time>2014-06-04T11:59:14Z</time>
      </trkpt>
      <trkpt lat="44.56568" lon="2.30906">
        <ele>557.22</ele>
        <time>2014-06-04T11:59:15Z</time>
      </trkpt>
      <trkpt lat="44.56567" lon="2.30904">
        <ele>554.34</ele>
        <time>2014-06-04T11:59:16Z</time>
      </trkpt>
      <trkpt lat="44.56561" lon="2.30875">
        <ele>551.93</ele>
        <time>2014-06-04T11:59:34Z</time>
      </trkpt>
      <trkpt lat="44.5656" lon="2.30871">
        <ele>551.45</ele>
        <time>2014-06-04T11:59:37Z</time>
      </trkpt>
      <trkpt lat="44.5656" lon="2.30863">
        <ele>551.45</ele>
        <time>2014-06-04T11:59:42Z</time>
      </trkpt>
      <trkpt lat="44.56561" lon="2.30828">
        <ele>550.01</ele>
        <time>2014-06-04T12:00:01Z</time>
      </trkpt>
      <trkpt lat="44.56569" lon="2.30801">
        <ele>548.57</ele>
        <time>2014-06-04T12:00:19Z</time>
      </trkpt>
      <trkpt lat="44.56581" lon="2.30774">
        <ele>545.2</ele>
        <time>2014-06-04T12:00:36Z</time>
      </trkpt>
      <trkpt lat="44.56582" lon="2.30772">
        <ele>550.01</ele>
        <time>2014-06-04T12:00:37Z</time>
      </trkpt>
      <trkpt lat="44.56583" lon="2.30771">
        <ele>546.17</ele>
        <time>2014-06-04T12:00:38Z</time>
      </trkpt>
      <trkpt lat="44.56599" lon="2.30736">
        <ele>545.69</ele>
        <time>2014-06-04T12:01:00Z</time>
      </trkpt>
      <trkpt lat="44.56611" lon="2.30709">
        <ele>544.72</ele>
        <time>2014-06-04T12:01:17Z</time>
      </trkpt>
      <trkpt lat="44.56621" lon="2.30682">
        <ele>542.8</ele>
        <time>2014-06-04T12:01:33Z</time>
      </trkpt>
      <trkpt lat="44.56632" lon="2.30659">
        <ele>542.32</ele>
        <time>2014-06-04T12:01:49Z</time>
      </trkpt>
      <trkpt lat="44.56643" lon="2.30626">
        <ele>540.88</ele>
        <time>2014-06-04T12:02:09Z</time>
      </trkpt>
      <trkpt lat="44.56648" lon="2.30605">
        <ele>539.92</ele>
        <time>2014-06-04T12:02:25Z</time>
      </trkpt>
      <trkpt lat="44.5665" lon="2.30594">
        <ele>539.92</ele>
        <time>2014-06-04T12:02:39Z</time>
      </trkpt>
      <trkpt lat="44.5665" lon="2.30586">
        <ele>539.44</ele>
        <time>2014-06-04T12:02:52Z</time>
      </trkpt>
      <trkpt lat="44.56654" lon="2.30581">
        <ele>538.96</ele>
        <time>2014-06-04T12:03:17Z</time>
      </trkpt>
      <trkpt lat="44.56654" lon="2.30581">
        <ele>539.92</ele>
        <time>2014-06-04T12:03:39Z</time>
      </trkpt>
      <trkpt lat="44.56653" lon="2.30581">
        <ele>539.92</ele>
        <time>2014-06-04T12:03:55Z</time>
      </trkpt>
      <trkpt lat="44.56651" lon="2.30579">
        <ele>537.51</ele>
        <time>2014-06-04T12:04:18Z</time>
      </trkpt>
      <trkpt lat="44.5665" lon="2.30579">
        <ele>540.88</ele>
        <time>2014-06-04T12:04:19Z</time>
      </trkpt>
      <trkpt lat="44.56649" lon="2.30569">
        <ele>539.44</ele>
        <time>2014-06-04T12:04:43Z</time>
      </trkpt>
      <trkpt lat="44.56645" lon="2.30542">
        <ele>538.48</ele>
        <time>2014-06-04T12:05:00Z</time>
      </trkpt>
      <trkpt lat="44.56642" lon="2.30514">
        <ele>536.55</ele>
        <time>2014-06-04T12:05:16Z</time>
      </trkpt>
      <trkpt lat="44.56637" lon="2.30475">
        <ele>534.63</ele>
        <time>2014-06-04T12:05:38Z</time>
      </trkpt>
      <trkpt lat="44.56633" lon="2.30436">
        <ele>533.19</ele>
        <time>2014-06-04T12:05:59Z</time>
      </trkpt>
      <trkpt lat="44.56626" lon="2.30398">
        <ele>532.71</ele>
        <time>2014-06-04T12:06:21Z</time>
      </trkpt>
      <trkpt lat="44.56617" lon="2.30357">
        <ele>530.3</ele>
        <time>2014-06-04T12:06:43Z</time>
      </trkpt>
      <trkpt lat="44.56612" lon="2.30324">
        <ele>529.34</ele>
        <time>2014-06-04T12:07:02Z</time>
      </trkpt>
      <trkpt lat="44.56604" lon="2.30287">
        <ele>529.34</ele>
        <time>2014-06-04T12:07:21Z</time>
      </trkpt>
      <trkpt lat="44.56609" lon="2.30249">
        <ele>526.94</ele>
        <time>2014-06-04T12:07:44Z</time>
      </trkpt>
      <trkpt lat="44.56615" lon="2.30212">
        <ele>524.54</ele>
        <time>2014-06-04T12:08:06Z</time>
      </trkpt>
      <trkpt lat="44.56621" lon="2.3018">
        <ele>521.65</ele>
        <time>2014-06-04T12:08:25Z</time>
      </trkpt>
      <trkpt lat="44.56621" lon="2.30163">
        <ele>520.69</ele>
        <time>2014-06-04T12:08:35Z</time>
      </trkpt>
      <trkpt lat="44.56622" lon="2.30156">
        <ele>520.21</ele>
        <time>2014-06-04T12:08:39Z</time>
      </trkpt>
      <trkpt lat="44.56628" lon="2.30123">
        <ele>517.33</ele>
        <time>2014-06-04T12:08:58Z</time>
      </trkpt>
      <trkpt lat="44.56634" lon="2.30087">
        <ele>514.92</ele>
        <time>2014-06-04T12:09:19Z</time>
      </trkpt>
      <trkpt lat="44.56641" lon="2.30057">
        <ele>512.52</ele>
        <time>2014-06-04T12:09:38Z</time>
      </trkpt>
      <trkpt lat="44.56651" lon="2.30025">
        <ele>509.64</ele>
        <time>2014-06-04T12:09:58Z</time>
      </trkpt>
      <trkpt lat="44.5666" lon="2.29985">
        <ele>506.75</ele>
        <time>2014-06-04T12:10:22Z</time>
      </trkpt>
      <trkpt lat="44.56666" lon="2.29954">
        <ele>505.31</ele>
        <time>2014-06-04T12:10:40Z</time>
      </trkpt>
      <trkpt lat="44.56666" lon="2.29922">
        <ele>503.39</ele>
        <time>2014-06-04T12:11:00Z</time>
      </trkpt>
      <trkpt lat="44.56661" lon="2.2989">
        <ele>501.46</ele>
        <time>2014-06-04T12:11:20Z</time>
      </trkpt>
      <trkpt lat="44.56658" lon="2.29851">
        <ele>498.58</ele>
        <time>2014-06-04T12:11:43Z</time>
      </trkpt>
      <trkpt lat="44.56661" lon="2.29841">
        <ele>498.1</ele>
        <time>2014-06-04T12:11:50Z</time>
      </trkpt>
      <trkpt lat="44.56663" lon="2.29834">
        <ele>498.1</ele>
        <time>2014-06-04T12:11:54Z</time>
      </trkpt>
      <trkpt lat="44.56677" lon="2.298">
        <ele>496.66</ele>
        <time>2014-06-04T12:12:15Z</time>
      </trkpt>
      <trkpt lat="44.56693" lon="2.29766">
        <ele>494.74</ele>
        <time>2014-06-04T12:12:36Z</time>
      </trkpt>
      <trkpt lat="44.56706" lon="2.29736">
        <ele>491.85</ele>
        <time>2014-06-04T12:12:55Z</time>
      </trkpt>
      <trkpt lat="44.5672" lon="2.29707">
        <ele>490.41</ele>
        <time>2014-06-04T12:13:14Z</time>
      </trkpt>
      <trkpt lat="44.56734" lon="2.29678">
        <ele>487.05</ele>
        <time>2014-06-04T12:13:32Z</time>
      </trkpt>
      <trkpt lat="44.56745" lon="2.2965">
        <ele>485.6</ele>
        <time>2014-06-04T12:13:50Z</time>
      </trkpt>
      <trkpt lat="44.56751" lon="2.29615">
        <ele>484.64</ele>
        <time>2014-06-04T12:14:09Z</time>
      </trkpt>
      <trkpt lat="44.56755" lon="2.29573">
        <ele>484.64</ele>
        <time>2014-06-04T12:14:30Z</time>
      </trkpt>
      <trkpt lat="44.56758" lon="2.29536">
        <ele>484.16</ele>
        <time>2014-06-04T12:14:49Z</time>
      </trkpt>
      <trkpt lat="44.56761" lon="2.29498">
        <ele>484.16</ele>
        <time>2014-06-04T12:15:11Z</time>
      </trkpt>
      <trkpt lat="44.56765" lon="2.29457">
        <ele>485.12</ele>
        <time>2014-06-04T12:15:32Z</time>
      </trkpt>
      <trkpt lat="44.5677" lon="2.29425">
        <ele>484.16</ele>
        <time>2014-06-04T12:15:50Z</time>
      </trkpt>
      <trkpt lat="44.5678" lon="2.29393">
        <ele>484.16</ele>
        <time>2014-06-04T12:16:09Z</time>
      </trkpt>
      <trkpt lat="44.5679" lon="2.29361">
        <ele>483.2</ele>
        <time>2014-06-04T12:16:28Z</time>
      </trkpt>
      <trkpt lat="44.56802" lon="2.29331">
        <ele>483.2</ele>
        <time>2014-06-04T12:16:46Z</time>
      </trkpt>
      <trkpt lat="44.56812" lon="2.29306">
        <ele>481.76</ele>
        <time>2014-06-04T12:17:03Z</time>
      </trkpt>
      <trkpt lat="44.56825" lon="2.29275">
        <ele>481.76</ele>
        <time>2014-06-04T12:17:23Z</time>
      </trkpt>
      <trkpt lat="44.56834" lon="2.2924">
        <ele>480.32</ele>
        <time>2014-06-04T12:17:44Z</time>
      </trkpt>
      <trkpt lat="44.56845" lon="2.29205">
        <ele>479.84</ele>
        <time>2014-06-04T12:18:06Z</time>
      </trkpt>
      <trkpt lat="44.56848" lon="2.29173">
        <ele>478.39</ele>
        <time>2014-06-04T12:18:26Z</time>
      </trkpt>
      <trkpt lat="44.56847" lon="2.29154">
        <ele>477.43</ele>
        <time>2014-06-04T12:18:43Z</time>
      </trkpt>
      <trkpt lat="44.56848" lon="2.29126">
        <ele>476.47</ele>
        <time>2014-06-04T12:19:02Z</time>
      </trkpt>
      <trkpt lat="44.56849" lon="2.29119">
        <ele>475.51</ele>
        <time>2014-06-04T12:19:06Z</time>
      </trkpt>
      <trkpt lat="44.56851" lon="2.29089">
        <ele>474.07</ele>
        <time>2014-06-04T12:19:25Z</time>
      </trkpt>
      <trkpt lat="44.56854" lon="2.29079">
        <ele>473.59</ele>
        <time>2014-06-04T12:19:39Z</time>
      </trkpt>
      <trkpt lat="44.56855" lon="2.2907">
        <ele>473.11</ele>
        <time>2014-06-04T12:20:05Z</time>
      </trkpt>
      <trkpt lat="44.5686" lon="2.29052">
        <ele>471.66</ele>
        <time>2014-06-04T12:20:20Z</time>
      </trkpt>
      <trkpt lat="44.56868" lon="2.2903">
        <ele>470.22</ele>
        <time>2014-06-04T12:20:36Z</time>
      </trkpt>
      <trkpt lat="44.56874" lon="2.29021">
        <ele>469.26</ele>
        <time>2014-06-04T12:20:49Z</time>
      </trkpt>
      <trkpt lat="44.56879" lon="2.29011">
        <ele>468.3</ele>
        <time>2014-06-04T12:21:04Z</time>
      </trkpt>
      <trkpt lat="44.5688" lon="2.29009">
        <ele>467.82</ele>
        <time>2014-06-04T12:21:28Z</time>
      </trkpt>
      <trkpt lat="44.56883" lon="2.29009">
        <ele>467.82</ele>
        <time>2014-06-04T12:21:46Z</time>
      </trkpt>
      <trkpt lat="44.56881" lon="2.29001">
        <ele>467.34</ele>
        <time>2014-06-04T12:22:14Z</time>
      </trkpt>
      <trkpt lat="44.56886" lon="2.28986">
        <ele>465.9</ele>
        <time>2014-06-04T12:22:30Z</time>
      </trkpt>
      <trkpt lat="44.56893" lon="2.28962">
        <ele>464.45</ele>
        <time>2014-06-04T12:22:45Z</time>
      </trkpt>
      <trkpt lat="44.56898" lon="2.28945">
        <ele>463.01</ele>
        <time>2014-06-04T12:22:58Z</time>
      </trkpt>
      <trkpt lat="44.56901" lon="2.28927">
        <ele>459.65</ele>
        <time>2014-06-04T12:23:09Z</time>
      </trkpt>
      <trkpt lat="44.56906" lon="2.28895">
        <ele>458.21</ele>
        <time>2014-06-04T12:23:28Z</time>
      </trkpt>
      <trkpt lat="44.56911" lon="2.28866">
        <ele>456.28</ele>
        <time>2014-06-04T12:23:48Z</time>
      </trkpt>
      <trkpt lat="44.56912" lon="2.28855">
        <ele>455.8</ele>
        <time>2014-06-04T12:24:02Z</time>
      </trkpt>
      <trkpt lat="44.56913" lon="2.28825">
        <ele>453.4</ele>
        <time>2014-06-04T12:24:20Z</time>
      </trkpt>
      <trkpt lat="44.56908" lon="2.28796">
        <ele>450.03</ele>
        <time>2014-06-04T12:24:38Z</time>
      </trkpt>
      <trkpt lat="44.56899" lon="2.28772">
        <ele>448.59</ele>
        <time>2014-06-04T12:24:53Z</time>
      </trkpt>
      <trkpt lat="44.56885" lon="2.28744">
        <ele>446.67</ele>
        <time>2014-06-04T12:25:13Z</time>
      </trkpt>
      <trkpt lat="44.5687" lon="2.28725">
        <ele>444.75</ele>
        <time>2014-06-04T12:25:32Z</time>
      </trkpt>
      <trkpt lat="44.5685" lon="2.28699">
        <ele>442.82</ele>
        <time>2014-06-04T12:25:54Z</time>
      </trkpt>
      <trkpt lat="44.56836" lon="2.28666">
        <ele>441.86</ele>
        <time>2014-06-04T12:26:16Z</time>
      </trkpt>
      <trkpt lat="44.5683" lon="2.28635">
        <ele>441.38</ele>
        <time>2014-06-04T12:26:34Z</time>
      </trkpt>
      <trkpt lat="44.56825" lon="2.28605">
        <ele>440.9</ele>
        <time>2014-06-04T12:26:52Z</time>
      </trkpt>
      <trkpt lat="44.56826" lon="2.28573">
        <ele>440.9</ele>
        <time>2014-06-04T12:27:10Z</time>
      </trkpt>
      <trkpt lat="44.56831" lon="2.28538">
        <ele>439.94</ele>
        <time>2014-06-04T12:27:30Z</time>
      </trkpt>
      <trkpt lat="44.56839" lon="2.28497">
        <ele>438.5</ele>
        <time>2014-06-04T12:27:55Z</time>
      </trkpt>
      <trkpt lat="44.56845" lon="2.28463">
        <ele>438.02</ele>
        <time>2014-06-04T12:28:15Z</time>
      </trkpt>
      <trkpt lat="44.56852" lon="2.28426">
        <ele>437.54</ele>
        <time>2014-06-04T12:28:37Z</time>
      </trkpt>
      <trkpt lat="44.56859" lon="2.28388">
        <ele>436.1</ele>
        <time>2014-06-04T12:28:58Z</time>
      </trkpt>
      <trkpt lat="44.56865" lon="2.28353">
        <ele>435.61</ele>
        <time>2014-06-04T12:29:19Z</time>
      </trkpt>
      <trkpt lat="44.5687" lon="2.2832">
        <ele>435.61</ele>
        <time>2014-06-04T12:29:40Z</time>
      </trkpt>
      <trkpt lat="44.56877" lon="2.28285">
        <ele>435.61</ele>
        <time>2014-06-04T12:30:01Z</time>
      </trkpt>
      <trkpt lat="44.56886" lon="2.28249">
        <ele>436.58</ele>
        <time>2014-06-04T12:30:21Z</time>
      </trkpt>
      <trkpt lat="44.56895" lon="2.28225">
        <ele>437.06</ele>
        <time>2014-06-04T12:30:38Z</time>
      </trkpt>
      <trkpt lat="44.56911" lon="2.28197">
        <ele>436.58</ele>
        <time>2014-06-04T12:30:57Z</time>
      </trkpt>
      <trkpt lat="44.56929" lon="2.28174">
        <ele>436.58</ele>
        <time>2014-06-04T12:31:16Z</time>
      </trkpt>
      <trkpt lat="44.56938" lon="2.2816">
        <ele>437.06</ele>
        <time>2014-06-04T12:31:26Z</time>
      </trkpt>
      <trkpt lat="44.56953" lon="2.2814">
        <ele>436.58</ele>
        <time>2014-06-04T12:31:42Z</time>
      </trkpt>
      <trkpt lat="44.5697" lon="2.28119">
        <ele>434.65</ele>
        <time>2014-06-04T12:32:01Z</time>
      </trkpt>
      <trkpt lat="44.56984" lon="2.28095">
        <ele>434.17</ele>
        <time>2014-06-04T12:32:18Z</time>
      </trkpt>
      <trkpt lat="44.56998" lon="2.28068">
        <ele>431.77</ele>
        <time>2014-06-04T12:32:38Z</time>
      </trkpt>
      <trkpt lat="44.57004" lon="2.28038">
        <ele>430.81</ele>
        <time>2014-06-04T12:32:57Z</time>
      </trkpt>
      <trkpt lat="44.5701" lon="2.28009">
        <ele>427.92</ele>
        <time>2014-06-04T12:33:16Z</time>
      </trkpt>
      <trkpt lat="44.57017" lon="2.27977">
        <ele>426</ele>
        <time>2014-06-04T12:33:37Z</time>
      </trkpt>
      <trkpt lat="44.57023" lon="2.27946">
        <ele>423.12</ele>
        <time>2014-06-04T12:33:56Z</time>
      </trkpt>
      <trkpt lat="44.57032" lon="2.27918">
        <ele>420.23</ele>
        <time>2014-06-04T12:34:15Z</time>
      </trkpt>
      <trkpt lat="44.57045" lon="2.27893">
        <ele>417.83</ele>
        <time>2014-06-04T12:34:34Z</time>
      </trkpt>
      <trkpt lat="44.57058" lon="2.27866">
        <ele>416.39</ele>
        <time>2014-06-04T12:34:53Z</time>
      </trkpt>
      <trkpt lat="44.57073" lon="2.27843">
        <ele>415.43</ele>
        <time>2014-06-04T12:35:13Z</time>
      </trkpt>
      <trkpt lat="44.57087" lon="2.27822">
        <ele>413.98</ele>
        <time>2014-06-04T12:35:31Z</time>
      </trkpt>
      <trkpt lat="44.571" lon="2.27801">
        <ele>413.5</ele>
        <time>2014-06-04T12:35:48Z</time>
      </trkpt>
      <trkpt lat="44.5711" lon="2.27784">
        <ele>412.06</ele>
        <time>2014-06-04T12:36:05Z</time>
      </trkpt>
      <trkpt lat="44.57123" lon="2.27759">
        <ele>411.58</ele>
        <time>2014-06-04T12:36:22Z</time>
      </trkpt>
      <trkpt lat="44.57136" lon="2.27737">
        <ele>410.14</ele>
        <time>2014-06-04T12:36:38Z</time>
      </trkpt>
      <trkpt lat="44.57149" lon="2.27714">
        <ele>408.7</ele>
        <time>2014-06-04T12:36:53Z</time>
      </trkpt>
      <trkpt lat="44.57156" lon="2.27702">
        <ele>409.66</ele>
        <time>2014-06-04T12:37:09Z</time>
      </trkpt>
      <trkpt lat="44.57158" lon="2.277">
        <ele>408.7</ele>
        <time>2014-06-04T12:37:14Z</time>
      </trkpt>
      <trkpt lat="44.57168" lon="2.27679">
        <ele>408.22</ele>
        <time>2014-06-04T12:37:30Z</time>
      </trkpt>
      <trkpt lat="44.5718" lon="2.27645">
        <ele>406.77</ele>
        <time>2014-06-04T12:37:51Z</time>
      </trkpt>
      <trkpt lat="44.57192" lon="2.27626">
        <ele>405.81</ele>
        <time>2014-06-04T12:38:05Z</time>
      </trkpt>
      <trkpt lat="44.57206" lon="2.27602">
        <ele>405.33</ele>
        <time>2014-06-04T12:38:24Z</time>
      </trkpt>
      <trkpt lat="44.57225" lon="2.27577">
        <ele>403.89</ele>
        <time>2014-06-04T12:38:42Z</time>
      </trkpt>
      <trkpt lat="44.5724" lon="2.27556">
        <ele>402.45</ele>
        <time>2014-06-04T12:38:59Z</time>
      </trkpt>
      <trkpt lat="44.57256" lon="2.27531">
        <ele>401.49</ele>
        <time>2014-06-04T12:39:22Z</time>
      </trkpt>
      <trkpt lat="44.57267" lon="2.27509">
        <ele>399.57</ele>
        <time>2014-06-04T12:39:40Z</time>
      </trkpt>
      <trkpt lat="44.57277" lon="2.27483">
        <ele>398.6</ele>
        <time>2014-06-04T12:39:57Z</time>
      </trkpt>
      <trkpt lat="44.5728" lon="2.27479">
        <ele>398.12</ele>
        <time>2014-06-04T12:40:00Z</time>
      </trkpt>
      <trkpt lat="44.57288" lon="2.27449">
        <ele>398.12</ele>
        <time>2014-06-04T12:40:17Z</time>
      </trkpt>
      <trkpt lat="44.57298" lon="2.27425">
        <ele>396.68</ele>
        <time>2014-06-04T12:40:34Z</time>
      </trkpt>
      <trkpt lat="44.57298" lon="2.27422">
        <ele>396.68</ele>
        <time>2014-06-04T12:40:36Z</time>
      </trkpt>
      <trkpt lat="44.5731" lon="2.27394">
        <ele>395.24</ele>
        <time>2014-06-04T12:40:54Z</time>
      </trkpt>
      <trkpt lat="44.57325" lon="2.27366">
        <ele>392.84</ele>
        <time>2014-06-04T12:41:13Z</time>
      </trkpt>
      <trkpt lat="44.57344" lon="2.27342">
        <ele>390.91</ele>
        <time>2014-06-04T12:41:32Z</time>
      </trkpt>
      <trkpt lat="44.57361" lon="2.27326">
        <ele>389.47</ele>
        <time>2014-06-04T12:41:49Z</time>
      </trkpt>
      <trkpt lat="44.57382" lon="2.27309">
        <ele>387.55</ele>
        <time>2014-06-04T12:42:08Z</time>
      </trkpt>
      <trkpt lat="44.57396" lon="2.27289">
        <ele>385.15</ele>
        <time>2014-06-04T12:42:24Z</time>
      </trkpt>
      <trkpt lat="44.57407" lon="2.27263">
        <ele>382.26</ele>
        <time>2014-06-04T12:42:43Z</time>
      </trkpt>
      <trkpt lat="44.57417" lon="2.27238">
        <ele>382.74</ele>
        <time>2014-06-04T12:42:59Z</time>
      </trkpt>
      <trkpt lat="44.57418" lon="2.27233">
        <ele>381.78</ele>
        <time>2014-06-04T12:43:02Z</time>
      </trkpt>
      <trkpt lat="44.57422" lon="2.2721">
        <ele>380.82</ele>
        <time>2014-06-04T12:43:17Z</time>
      </trkpt>
      <trkpt lat="44.57426" lon="2.27176">
        <ele>380.82</ele>
        <time>2014-06-04T12:43:36Z</time>
      </trkpt>
      <trkpt lat="44.57426" lon="2.27173">
        <ele>380.34</ele>
        <time>2014-06-04T12:43:38Z</time>
      </trkpt>
      <trkpt lat="44.57425" lon="2.27163">
        <ele>379.38</ele>
        <time>2014-06-04T12:43:43Z</time>
      </trkpt>
      <trkpt lat="44.57428" lon="2.27144">
        <ele>379.86</ele>
        <time>2014-06-04T12:43:53Z</time>
      </trkpt>
      <trkpt lat="44.57431" lon="2.27126">
        <ele>373.13</ele>
        <time>2014-06-04T12:44:06Z</time>
      </trkpt>
      <trkpt lat="44.57431" lon="2.27125">
        <ele>382.26</ele>
        <time>2014-06-04T12:44:07Z</time>
      </trkpt>
      <trkpt lat="44.57431" lon="2.27123">
        <ele>378.42</ele>
        <time>2014-06-04T12:44:08Z</time>
      </trkpt>
      <trkpt lat="44.57434" lon="2.27111">
        <ele>375.05</ele>
        <time>2014-06-04T12:44:19Z</time>
      </trkpt>
      <trkpt lat="44.57434" lon="2.27111">
        <ele>379.38</ele>
        <time>2014-06-04T12:44:20Z</time>
      </trkpt>
      <trkpt lat="44.57435" lon="2.27109">
        <ele>378.42</ele>
        <time>2014-06-04T12:44:39Z</time>
      </trkpt>
      <trkpt lat="44.57439" lon="2.27108">
        <ele>377.94</ele>
        <time>2014-06-04T12:44:56Z</time>
      </trkpt>
      <trkpt lat="44.57439" lon="2.27108">
        <ele>378.9</ele>
        <time>2014-06-04T12:45:16Z</time>
      </trkpt>
      <trkpt lat="44.57436" lon="2.27109">
        <ele>378.9</ele>
        <time>2014-06-04T12:45:37Z</time>
      </trkpt>
      <trkpt lat="44.57434" lon="2.27108">
        <ele>377.45</ele>
        <time>2014-06-04T12:45:43Z</time>
      </trkpt>
      <trkpt lat="44.57434" lon="2.27101">
        <ele>377.45</ele>
        <time>2014-06-04T12:46:01Z</time>
      </trkpt>
      <trkpt lat="44.57434" lon="2.27096">
        <ele>376.97</ele>
        <time>2014-06-04T12:46:04Z</time>
      </trkpt>
      <trkpt lat="44.57438" lon="2.27068">
        <ele>375.05</ele>
        <time>2014-06-04T12:46:21Z</time>
      </trkpt>
      <trkpt lat="44.57439" lon="2.27065">
        <ele>375.53</ele>
        <time>2014-06-04T12:46:24Z</time>
      </trkpt>
      <trkpt lat="44.57445" lon="2.27037">
        <ele>373.13</ele>
        <time>2014-06-04T12:46:43Z</time>
      </trkpt>
      <trkpt lat="44.57446" lon="2.27032">
        <ele>371.69</ele>
        <time>2014-06-04T12:46:46Z</time>
      </trkpt>
      <trkpt lat="44.57457" lon="2.27002">
        <ele>369.28</ele>
        <time>2014-06-04T12:47:04Z</time>
      </trkpt>
      <trkpt lat="44.57473" lon="2.26978">
        <ele>367.36</ele>
        <time>2014-06-04T12:47:24Z</time>
      </trkpt>
      <trkpt lat="44.57497" lon="2.26948">
        <ele>366.4</ele>
        <time>2014-06-04T12:47:49Z</time>
      </trkpt>
      <trkpt lat="44.57519" lon="2.26914">
        <ele>365.44</ele>
        <time>2014-06-04T12:48:15Z</time>
      </trkpt>
      <trkpt lat="44.57538" lon="2.26885">
        <ele>364</ele>
        <time>2014-06-04T12:48:37Z</time>
      </trkpt>
      <trkpt lat="44.57555" lon="2.26858">
        <ele>363.04</ele>
        <time>2014-06-04T12:48:58Z</time>
      </trkpt>
      <trkpt lat="44.57568" lon="2.26839">
        <ele>363.04</ele>
        <time>2014-06-04T12:49:13Z</time>
      </trkpt>
      <trkpt lat="44.57576" lon="2.26819">
        <ele>363.04</ele>
        <time>2014-06-04T12:49:25Z</time>
      </trkpt>
      <trkpt lat="44.57577" lon="2.26813">
        <ele>364.48</ele>
        <time>2014-06-04T12:49:29Z</time>
      </trkpt>
      <trkpt lat="44.57578" lon="2.26808">
        <ele>361.11</ele>
        <time>2014-06-04T12:49:32Z</time>
      </trkpt>
      <trkpt lat="44.57579" lon="2.26806">
        <ele>366.88</ele>
        <time>2014-06-04T12:49:33Z</time>
      </trkpt>
      <trkpt lat="44.57579" lon="2.26805">
        <ele>363.52</ele>
        <time>2014-06-04T12:49:34Z</time>
      </trkpt>
      <trkpt lat="44.5758" lon="2.2678">
        <ele>362.55</ele>
        <time>2014-06-04T12:49:48Z</time>
      </trkpt>
      <trkpt lat="44.57579" lon="2.26747">
        <ele>362.55</ele>
        <time>2014-06-04T12:50:05Z</time>
      </trkpt>
      <trkpt lat="44.57581" lon="2.26722">
        <ele>361.59</ele>
        <time>2014-06-04T12:50:19Z</time>
      </trkpt>
      <trkpt lat="44.57578" lon="2.2669">
        <ele>358.71</ele>
        <time>2014-06-04T12:50:37Z</time>
      </trkpt>
      <trkpt lat="44.57575" lon="2.26664">
        <ele>357.27</ele>
        <time>2014-06-04T12:50:53Z</time>
      </trkpt>
      <trkpt lat="44.57572" lon="2.26661">
        <ele>357.27</ele>
        <time>2014-06-04T12:50:56Z</time>
      </trkpt>
      <trkpt lat="44.5756" lon="2.2663">
        <ele>355.83</ele>
        <time>2014-06-04T12:51:14Z</time>
      </trkpt>
      <trkpt lat="44.57553" lon="2.26607">
        <ele>352.46</ele>
        <time>2014-06-04T12:51:28Z</time>
      </trkpt>
      <trkpt lat="44.57553" lon="2.26606">
        <ele>357.75</ele>
        <time>2014-06-04T12:51:29Z</time>
      </trkpt>
      <trkpt lat="44.57552" lon="2.26603">
        <ele>352.94</ele>
        <time>2014-06-04T12:51:31Z</time>
      </trkpt>
      <trkpt lat="44.57551" lon="2.26602">
        <ele>356.79</ele>
        <time>2014-06-04T12:51:32Z</time>
      </trkpt>
      <trkpt lat="44.57542" lon="2.26575">
        <ele>353.9</ele>
        <time>2014-06-04T12:51:49Z</time>
      </trkpt>
      <trkpt lat="44.5754" lon="2.26569">
        <ele>351.02</ele>
        <time>2014-06-04T12:51:53Z</time>
      </trkpt>
      <trkpt lat="44.57539" lon="2.26568">
        <ele>355.83</ele>
        <time>2014-06-04T12:51:54Z</time>
      </trkpt>
      <trkpt lat="44.57538" lon="2.26564">
        <ele>352.46</ele>
        <time>2014-06-04T12:51:56Z</time>
      </trkpt>
      <trkpt lat="44.5753" lon="2.26537">
        <ele>352.94</ele>
        <time>2014-06-04T12:52:12Z</time>
      </trkpt>
      <trkpt lat="44.57526" lon="2.26519">
        <ele>351.98</ele>
        <time>2014-06-04T12:52:24Z</time>
      </trkpt>
      <trkpt lat="44.57525" lon="2.26507">
        <ele>351.5</ele>
        <time>2014-06-04T12:52:32Z</time>
      </trkpt>
      <trkpt lat="44.57525" lon="2.26485">
        <ele>349.1</ele>
        <time>2014-06-04T12:52:48Z</time>
      </trkpt>
      <trkpt lat="44.57522" lon="2.26455">
        <ele>347.65</ele>
        <time>2014-06-04T12:53:05Z</time>
      </trkpt>
      <trkpt lat="44.57521" lon="2.26431">
        <ele>347.17</ele>
        <time>2014-06-04T12:53:19Z</time>
      </trkpt>
      <trkpt lat="44.57521" lon="2.26421">
        <ele>346.21</ele>
        <time>2014-06-04T12:53:25Z</time>
      </trkpt>
      <trkpt lat="44.57523" lon="2.26417">
        <ele>345.25</ele>
        <time>2014-06-04T12:53:28Z</time>
      </trkpt>
      <trkpt lat="44.57526" lon="2.2639">
        <ele>344.29</ele>
        <time>2014-06-04T12:53:43Z</time>
      </trkpt>
      <trkpt lat="44.5753" lon="2.26363">
        <ele>342.37</ele>
        <time>2014-06-04T12:54:01Z</time>
      </trkpt>
      <trkpt lat="44.57527" lon="2.26344">
        <ele>339</ele>
        <time>2014-06-04T12:54:13Z</time>
      </trkpt>
      <trkpt lat="44.57527" lon="2.26343">
        <ele>341.89</ele>
        <time>2014-06-04T12:54:14Z</time>
      </trkpt>
      <trkpt lat="44.57525" lon="2.2634">
        <ele>337.56</ele>
        <time>2014-06-04T12:54:17Z</time>
      </trkpt>
      <trkpt lat="44.57524" lon="2.26339">
        <ele>344.29</ele>
        <time>2014-06-04T12:54:18Z</time>
      </trkpt>
      <trkpt lat="44.57523" lon="2.26335">
        <ele>338.04</ele>
        <time>2014-06-04T12:54:21Z</time>
      </trkpt>
      <trkpt lat="44.57523" lon="2.26334">
        <ele>342.37</ele>
        <time>2014-06-04T12:54:22Z</time>
      </trkpt>
      <trkpt lat="44.57523" lon="2.26331">
        <ele>340.92</ele>
        <time>2014-06-04T12:54:25Z</time>
      </trkpt>
      <trkpt lat="44.57515" lon="2.263">
        <ele>339.48</ele>
        <time>2014-06-04T12:54:44Z</time>
      </trkpt>
      <trkpt lat="44.57507" lon="2.26268">
        <ele>338.52</ele>
        <time>2014-06-04T12:55:04Z</time>
      </trkpt>
      <trkpt lat="44.57496" lon="2.2624">
        <ele>337.56</ele>
        <time>2014-06-04T12:55:22Z</time>
      </trkpt>
      <trkpt lat="44.57486" lon="2.26205">
        <ele>339</ele>
        <time>2014-06-04T12:55:43Z</time>
      </trkpt>
      <trkpt lat="44.57476" lon="2.26179">
        <ele>339.96</ele>
        <time>2014-06-04T12:56:00Z</time>
      </trkpt>
      <trkpt lat="44.5746" lon="2.2614">
        <ele>339</ele>
        <time>2014-06-04T12:56:21Z</time>
      </trkpt>
      <trkpt lat="44.57459" lon="2.26138">
        <ele>339</ele>
        <time>2014-06-04T12:56:22Z</time>
      </trkpt>
      <trkpt lat="44.57452" lon="2.26109">
        <ele>337.56</ele>
        <time>2014-06-04T12:56:39Z</time>
      </trkpt>
      <trkpt lat="44.57443" lon="2.26075">
        <ele>337.56</ele>
        <time>2014-06-04T12:56:59Z</time>
      </trkpt>
      <trkpt lat="44.57442" lon="2.2606">
        <ele>333.23</ele>
        <time>2014-06-04T12:57:09Z</time>
      </trkpt>
      <trkpt lat="44.57441" lon="2.26059">
        <ele>341.41</ele>
        <time>2014-06-04T12:57:10Z</time>
      </trkpt>
      <trkpt lat="44.5744" lon="2.26058">
        <ele>336.6</ele>
        <time>2014-06-04T12:57:11Z</time>
      </trkpt>
      <trkpt lat="44.57439" lon="2.26054">
        <ele>338.04</ele>
        <time>2014-06-04T12:57:14Z</time>
      </trkpt>
      <trkpt lat="44.57433" lon="2.26031">
        <ele>339</ele>
        <time>2014-06-04T12:57:31Z</time>
      </trkpt>
      <trkpt lat="44.57432" lon="2.26026">
        <ele>339</ele>
        <time>2014-06-04T12:57:34Z</time>
      </trkpt>
      <trkpt lat="44.5743" lon="2.26006">
        <ele>339.48</ele>
        <time>2014-06-04T12:57:49Z</time>
      </trkpt>
      <trkpt lat="44.57429" lon="2.25998">
        <ele>339.96</ele>
        <time>2014-06-04T12:57:55Z</time>
      </trkpt>
      <trkpt lat="44.57428" lon="2.25994">
        <ele>343.81</ele>
        <time>2014-06-04T12:57:57Z</time>
      </trkpt>
      <trkpt lat="44.57427" lon="2.25993">
        <ele>340.44</ele>
        <time>2014-06-04T12:57:58Z</time>
      </trkpt>
      <trkpt lat="44.57427" lon="2.25991">
        <ele>336.12</ele>
        <time>2014-06-04T12:57:59Z</time>
      </trkpt>
      <trkpt lat="44.57426" lon="2.25989">
        <ele>346.21</ele>
        <time>2014-06-04T12:58:00Z</time>
      </trkpt>
      <trkpt lat="44.57426" lon="2.25988">
        <ele>341.89</ele>
        <time>2014-06-04T12:58:01Z</time>
      </trkpt>
      <trkpt lat="44.57426" lon="2.25986">
        <ele>336.12</ele>
        <time>2014-06-04T12:58:02Z</time>
      </trkpt>
      <trkpt lat="44.57426" lon="2.25985">
        <ele>341.41</ele>
        <time>2014-06-04T12:58:03Z</time>
      </trkpt>
      <trkpt lat="44.57426" lon="2.25984">
        <ele>345.25</ele>
        <time>2014-06-04T12:58:04Z</time>
      </trkpt>
      <trkpt lat="44.57426" lon="2.25983">
        <ele>342.37</ele>
        <time>2014-06-04T12:58:05Z</time>
      </trkpt>
      <trkpt lat="44.57426" lon="2.25982">
        <ele>337.08</ele>
        <time>2014-06-04T12:58:06Z</time>
      </trkpt>
      <trkpt lat="44.57426" lon="2.2598">
        <ele>346.21</ele>
        <time>2014-06-04T12:58:07Z</time>
      </trkpt>
      <trkpt lat="44.57425" lon="2.25979">
        <ele>342.37</ele>
        <time>2014-06-04T12:58:08Z</time>
      </trkpt>
      <trkpt lat="44.57423" lon="2.25971">
        <ele>337.56</ele>
        <time>2014-06-04T12:58:14Z</time>
      </trkpt>
      <trkpt lat="44.57423" lon="2.25969">
        <ele>345.73</ele>
        <time>2014-06-04T12:58:15Z</time>
      </trkpt>
      <trkpt lat="44.57422" lon="2.25961">
        <ele>341.41</ele>
        <time>2014-06-04T12:58:20Z</time>
      </trkpt>
      <trkpt lat="44.57422" lon="2.2596">
        <ele>345.25</ele>
        <time>2014-06-04T12:58:21Z</time>
      </trkpt>
      <trkpt lat="44.57421" lon="2.25955">
        <ele>343.81</ele>
        <time>2014-06-04T12:58:24Z</time>
      </trkpt>
      <trkpt lat="44.57419" lon="2.25921">
        <ele>345.73</ele>
        <time>2014-06-04T12:58:44Z</time>
      </trkpt>
      <trkpt lat="44.57416" lon="2.25893">
        <ele>346.69</ele>
        <time>2014-06-04T12:58:59Z</time>
      </trkpt>
      <trkpt lat="44.57411" lon="2.25861">
        <ele>348.13</ele>
        <time>2014-06-04T12:59:18Z</time>
      </trkpt>
      <trkpt lat="44.5741" lon="2.25843">
        <ele>348.62</ele>
        <time>2014-06-04T12:59:32Z</time>
      </trkpt>
      <trkpt lat="44.57412" lon="2.25814">
        <ele>349.58</ele>
        <time>2014-06-04T12:59:48Z</time>
      </trkpt>
      <trkpt lat="44.57413" lon="2.25788">
        <ele>349.58</ele>
        <time>2014-06-04T13:00:05Z</time>
      </trkpt>
      <trkpt lat="44.57421" lon="2.25763">
        <ele>349.58</ele>
        <time>2014-06-04T13:00:23Z</time>
      </trkpt>
      <trkpt lat="44.57423" lon="2.25761">
        <ele>348.62</ele>
        <time>2014-06-04T13:00:25Z</time>
      </trkpt>
      <trkpt lat="44.57439" lon="2.25731">
        <ele>347.17</ele>
        <time>2014-06-04T13:00:46Z</time>
      </trkpt>
      <trkpt lat="44.57455" lon="2.25705">
        <ele>341.41</ele>
        <time>2014-06-04T13:01:07Z</time>
      </trkpt>
      <trkpt lat="44.57456" lon="2.25704">
        <ele>341.41</ele>
        <time>2014-06-04T13:01:08Z</time>
      </trkpt>
      <trkpt lat="44.57457" lon="2.25703">
        <ele>346.21</ele>
        <time>2014-06-04T13:01:09Z</time>
      </trkpt>
      <trkpt lat="44.57457" lon="2.25702">
        <ele>342.85</ele>
        <time>2014-06-04T13:01:10Z</time>
      </trkpt>
      <trkpt lat="44.5746" lon="2.25699">
        <ele>346.21</ele>
        <time>2014-06-04T13:01:13Z</time>
      </trkpt>
      <trkpt lat="44.57463" lon="2.25688">
        <ele>342.37</ele>
        <time>2014-06-04T13:01:20Z</time>
      </trkpt>
      <trkpt lat="44.57473" lon="2.25667">
        <ele>340.92</ele>
        <time>2014-06-04T13:01:35Z</time>
      </trkpt>
      <trkpt lat="44.57484" lon="2.25642">
        <ele>338.52</ele>
        <time>2014-06-04T13:01:53Z</time>
      </trkpt>
      <trkpt lat="44.57492" lon="2.25619">
        <ele>337.08</ele>
        <time>2014-06-04T13:02:13Z</time>
      </trkpt>
      <trkpt lat="44.57504" lon="2.25592">
        <ele>336.6</ele>
        <time>2014-06-04T13:02:29Z</time>
      </trkpt>
      <trkpt lat="44.57512" lon="2.25571">
        <ele>336.6</ele>
        <time>2014-06-04T13:02:44Z</time>
      </trkpt>
      <trkpt lat="44.57515" lon="2.25543">
        <ele>335.64</ele>
        <time>2014-06-04T13:03:02Z</time>
      </trkpt>
      <trkpt lat="44.57515" lon="2.2552">
        <ele>334.2</ele>
        <time>2014-06-04T13:03:19Z</time>
      </trkpt>
      <trkpt lat="44.57514" lon="2.25512">
        <ele>334.68</ele>
        <time>2014-06-04T13:03:24Z</time>
      </trkpt>
      <trkpt lat="44.57514" lon="2.25481">
        <ele>331.31</ele>
        <time>2014-06-04T13:03:45Z</time>
      </trkpt>
      <trkpt lat="44.57511" lon="2.25452">
        <ele>330.35</ele>
        <time>2014-06-04T13:04:05Z</time>
      </trkpt>
      <trkpt lat="44.57511" lon="2.2545">
        <ele>329.87</ele>
        <time>2014-06-04T13:04:06Z</time>
      </trkpt>
      <trkpt lat="44.57508" lon="2.25419">
        <ele>327.95</ele>
        <time>2014-06-04T13:04:26Z</time>
      </trkpt>
      <trkpt lat="44.57504" lon="2.25389">
        <ele>324.58</ele>
        <time>2014-06-04T13:04:46Z</time>
      </trkpt>
      <trkpt lat="44.57503" lon="2.25364">
        <ele>323.14</ele>
        <time>2014-06-04T13:05:04Z</time>
      </trkpt>
      <trkpt lat="44.57502" lon="2.25358">
        <ele>322.18</ele>
        <time>2014-06-04T13:05:09Z</time>
      </trkpt>
      <trkpt lat="44.57498" lon="2.25328">
        <ele>323.14</ele>
        <time>2014-06-04T13:05:27Z</time>
      </trkpt>
      <trkpt lat="44.57495" lon="2.25293">
        <ele>322.66</ele>
        <time>2014-06-04T13:05:48Z</time>
      </trkpt>
      <trkpt lat="44.57494" lon="2.25271">
        <ele>323.62</ele>
        <time>2014-06-04T13:06:01Z</time>
      </trkpt>
      <trkpt lat="44.57498" lon="2.25241">
        <ele>324.58</ele>
        <time>2014-06-04T13:06:18Z</time>
      </trkpt>
      <trkpt lat="44.57503" lon="2.25221">
        <ele>325.54</ele>
        <time>2014-06-04T13:06:33Z</time>
      </trkpt>
      <trkpt lat="44.57505" lon="2.25215">
        <ele>325.54</ele>
        <time>2014-06-04T13:06:37Z</time>
      </trkpt>
      <trkpt lat="44.57515" lon="2.25189">
        <ele>326.5</ele>
        <time>2014-06-04T13:06:55Z</time>
      </trkpt>
      <trkpt lat="44.57526" lon="2.25161">
        <ele>326.99</ele>
        <time>2014-06-04T13:07:14Z</time>
      </trkpt>
      <trkpt lat="44.57529" lon="2.25157">
        <ele>326.99</ele>
        <time>2014-06-04T13:07:17Z</time>
      </trkpt>
      <trkpt lat="44.57534" lon="2.25149">
        <ele>326.99</ele>
        <time>2014-06-04T13:07:22Z</time>
      </trkpt>
      <trkpt lat="44.57545" lon="2.25126">
        <ele>326.5</ele>
        <time>2014-06-04T13:07:38Z</time>
      </trkpt>
      <trkpt lat="44.57556" lon="2.25106">
        <ele>326.02</ele>
        <time>2014-06-04T13:07:54Z</time>
      </trkpt>
      <trkpt lat="44.57566" lon="2.25091">
        <ele>325.06</ele>
        <time>2014-06-04T13:08:14Z</time>
      </trkpt>
      <trkpt lat="44.57575" lon="2.25078">
        <ele>324.58</ele>
        <time>2014-06-04T13:08:36Z</time>
      </trkpt>
      <trkpt lat="44.57592" lon="2.25056">
        <ele>323.62</ele>
        <time>2014-06-04T13:08:54Z</time>
      </trkpt>
      <trkpt lat="44.57606" lon="2.25042">
        <ele>322.66</ele>
        <time>2014-06-04T13:09:10Z</time>
      </trkpt>
      <trkpt lat="44.57621" lon="2.25025">
        <ele>321.22</ele>
        <time>2014-06-04T13:09:28Z</time>
      </trkpt>
      <trkpt lat="44.57633" lon="2.25008">
        <ele>319.78</ele>
        <time>2014-06-04T13:09:47Z</time>
      </trkpt>
      <trkpt lat="44.57638" lon="2.25">
        <ele>319.3</ele>
        <time>2014-06-04T13:09:55Z</time>
      </trkpt>
      <trkpt lat="44.57653" lon="2.24981">
        <ele>317.37</ele>
        <time>2014-06-04T13:10:15Z</time>
      </trkpt>
      <trkpt lat="44.57664" lon="2.24963">
        <ele>316.89</ele>
        <time>2014-06-04T13:10:34Z</time>
      </trkpt>
      <trkpt lat="44.57682" lon="2.24943">
        <ele>313.53</ele>
        <time>2014-06-04T13:10:52Z</time>
      </trkpt>
      <trkpt lat="44.577" lon="2.2493">
        <ele>312.57</ele>
        <time>2014-06-04T13:11:06Z</time>
      </trkpt>
      <trkpt lat="44.5772" lon="2.24904">
        <ele>311.6</ele>
        <time>2014-06-04T13:11:25Z</time>
      </trkpt>
      <trkpt lat="44.57728" lon="2.24894">
        <ele>310.64</ele>
        <time>2014-06-04T13:11:38Z</time>
      </trkpt>
      <trkpt lat="44.57727" lon="2.24893">
        <ele>304.39</ele>
        <time>2014-06-04T13:11:44Z</time>
      </trkpt>
      <trkpt lat="44.57728" lon="2.24893">
        <ele>316.41</ele>
        <time>2014-06-04T13:11:45Z</time>
      </trkpt>
      <trkpt lat="44.57728" lon="2.24893">
        <ele>311.12</ele>
        <time>2014-06-04T13:11:46Z</time>
      </trkpt>
      <trkpt lat="44.57728" lon="2.24888">
        <ele>308.24</ele>
        <time>2014-06-04T13:11:50Z</time>
      </trkpt>
      <trkpt lat="44.57728" lon="2.24887">
        <ele>312.09</ele>
        <time>2014-06-04T13:11:51Z</time>
      </trkpt>
      <trkpt lat="44.57728" lon="2.24886">
        <ele>306.8</ele>
        <time>2014-06-04T13:11:52Z</time>
      </trkpt>
      <trkpt lat="44.57728" lon="2.24884">
        <ele>313.53</ele>
        <time>2014-06-04T13:11:53Z</time>
      </trkpt>
      <trkpt lat="44.57728" lon="2.24883">
        <ele>302.95</ele>
        <time>2014-06-04T13:11:54Z</time>
      </trkpt>
      <trkpt lat="44.57728" lon="2.24882">
        <ele>302.47</ele>
        <time>2014-06-04T13:11:55Z</time>
      </trkpt>
      <trkpt lat="44.57729" lon="2.24881">
        <ele>316.41</ele>
        <time>2014-06-04T13:11:56Z</time>
      </trkpt>
      <trkpt lat="44.57729" lon="2.24881">
        <ele>310.64</ele>
        <time>2014-06-04T13:11:57Z</time>
      </trkpt>
      <trkpt lat="44.57745" lon="2.24858">
        <ele>310.16</ele>
        <time>2014-06-04T13:12:18Z</time>
      </trkpt>
      <trkpt lat="44.5776" lon="2.2484">
        <ele>309.2</ele>
        <time>2014-06-04T13:12:33Z</time>
      </trkpt>
      <trkpt lat="44.57777" lon="2.24818">
        <ele>309.2</ele>
        <time>2014-06-04T13:12:50Z</time>
      </trkpt>
      <trkpt lat="44.57792" lon="2.24805">
        <ele>309.68</ele>
        <time>2014-06-04T13:13:10Z</time>
      </trkpt>
      <trkpt lat="44.57808" lon="2.24804">
        <ele>311.12</ele>
        <time>2014-06-04T13:13:30Z</time>
      </trkpt>
      <trkpt lat="44.57831" lon="2.24815">
        <ele>313.05</ele>
        <time>2014-06-04T13:13:49Z</time>
      </trkpt>
      <trkpt lat="44.57839" lon="2.24817">
        <ele>314.01</ele>
        <time>2014-06-04T13:14:09Z</time>
      </trkpt>
      <trkpt lat="44.57847" lon="2.24823">
        <ele>314.49</ele>
        <time>2014-06-04T13:14:27Z</time>
      </trkpt>
      <trkpt lat="44.57846" lon="2.2482">
        <ele>317.37</ele>
        <time>2014-06-04T13:14:43Z</time>
      </trkpt>
      <trkpt lat="44.57846" lon="2.2482">
        <ele>312.57</ele>
        <time>2014-06-04T13:14:46Z</time>
      </trkpt>
      <trkpt lat="44.57846" lon="2.2482">
        <ele>315.93</ele>
        <time>2014-06-04T13:14:47Z</time>
      </trkpt>
      <trkpt lat="44.57846" lon="2.24818">
        <ele>307.28</ele>
        <time>2014-06-04T13:15:00Z</time>
      </trkpt>
      <trkpt lat="44.57846" lon="2.24818">
        <ele>319.78</ele>
        <time>2014-06-04T13:15:01Z</time>
      </trkpt>
      <trkpt lat="44.57846" lon="2.24818">
        <ele>314.97</ele>
        <time>2014-06-04T13:15:02Z</time>
      </trkpt>
      <trkpt lat="44.57849" lon="2.24821">
        <ele>311.12</ele>
        <time>2014-06-04T13:15:06Z</time>
      </trkpt>
      <trkpt lat="44.57849" lon="2.24821">
        <ele>318.81</ele>
        <time>2014-06-04T13:15:07Z</time>
      </trkpt>
      <trkpt lat="44.5785" lon="2.24821">
        <ele>314.97</ele>
        <time>2014-06-04T13:15:08Z</time>
      </trkpt>
      <trkpt lat="44.57851" lon="2.24822">
        <ele>314.97</ele>
        <time>2014-06-04T13:15:12Z</time>
      </trkpt>
      <trkpt lat="44.57851" lon="2.24822">
        <ele>312.09</ele>
        <time>2014-06-04T13:15:14Z</time>
      </trkpt>
      <trkpt lat="44.57851" lon="2.24822">
        <ele>315.93</ele>
        <time>2014-06-04T13:15:17Z</time>
      </trkpt>
      <trkpt lat="44.57851" lon="2.24821">
        <ele>311.12</ele>
        <time>2014-06-04T13:15:19Z</time>
      </trkpt>
      <trkpt lat="44.57851" lon="2.24821">
        <ele>317.37</ele>
        <time>2014-06-04T13:15:20Z</time>
      </trkpt>
      <trkpt lat="44.57851" lon="2.24821">
        <ele>313.05</ele>
        <time>2014-06-04T13:15:22Z</time>
      </trkpt>
      <trkpt lat="44.57851" lon="2.24821">
        <ele>316.41</ele>
        <time>2014-06-04T13:15:23Z</time>
      </trkpt>
      <trkpt lat="44.5785" lon="2.24821">
        <ele>307.28</ele>
        <time>2014-06-04T13:15:26Z</time>
      </trkpt>
      <trkpt lat="44.5785" lon="2.24821">
        <ele>321.22</ele>
        <time>2014-06-04T13:15:27Z</time>
      </trkpt>
      <trkpt lat="44.5785" lon="2.24821">
        <ele>314.97</ele>
        <time>2014-06-04T13:15:28Z</time>
      </trkpt>
      <trkpt lat="44.5785" lon="2.24821">
        <ele>308.72</ele>
        <time>2014-06-04T13:15:29Z</time>
      </trkpt>
      <trkpt lat="44.5785" lon="2.24821">
        <ele>319.3</ele>
        <time>2014-06-04T13:15:30Z</time>
      </trkpt>
      <trkpt lat="44.5785" lon="2.24821">
        <ele>315.93</ele>
        <time>2014-06-04T13:15:31Z</time>
      </trkpt>
      <trkpt lat="44.5785" lon="2.24821">
        <ele>309.68</ele>
        <time>2014-06-04T13:15:33Z</time>
      </trkpt>
      <trkpt lat="44.57851" lon="2.24821">
        <ele>316.41</ele>
        <time>2014-06-04T13:15:34Z</time>
      </trkpt>
      <trkpt lat="44.57853" lon="2.24822">
        <ele>311.6</ele>
        <time>2014-06-04T13:15:39Z</time>
      </trkpt>
      <trkpt lat="44.57853" lon="2.24822">
        <ele>311.6</ele>
        <time>2014-06-04T13:15:40Z</time>
      </trkpt>
      <trkpt lat="44.57853" lon="2.24822">
        <ele>315.45</ele>
        <time>2014-06-04T13:15:41Z</time>
      </trkpt>
      <trkpt lat="44.57853" lon="2.24822">
        <ele>314.49</ele>
        <time>2014-06-04T13:15:42Z</time>
      </trkpt>
      <trkpt lat="44.57854" lon="2.24823">
        <ele>313.53</ele>
        <time>2014-06-04T13:15:44Z</time>
      </trkpt>
      <trkpt lat="44.57854" lon="2.24823">
        <ele>318.33</ele>
        <time>2014-06-04T13:15:45Z</time>
      </trkpt>
      <trkpt lat="44.57854" lon="2.24823">
        <ele>309.2</ele>
        <time>2014-06-04T13:15:46Z</time>
      </trkpt>
      <trkpt lat="44.57854" lon="2.24824">
        <ele>320.74</ele>
        <time>2014-06-04T13:15:47Z</time>
      </trkpt>
      <trkpt lat="44.57854" lon="2.24824">
        <ele>314.97</ele>
        <time>2014-06-04T13:15:48Z</time>
      </trkpt>
      <trkpt lat="44.57853" lon="2.24823">
        <ele>309.68</ele>
        <time>2014-06-04T13:16:02Z</time>
      </trkpt>
      <trkpt lat="44.57853" lon="2.24823">
        <ele>320.74</ele>
        <time>2014-06-04T13:16:03Z</time>
      </trkpt>
      <trkpt lat="44.57853" lon="2.24823">
        <ele>315.45</ele>
        <time>2014-06-04T13:16:04Z</time>
      </trkpt>
      <trkpt lat="44.57853" lon="2.24823">
        <ele>314.49</ele>
        <time>2014-06-04T13:16:06Z</time>
      </trkpt>
      <trkpt lat="44.57853" lon="2.24822">
        <ele>308.24</ele>
        <time>2014-06-04T13:16:07Z</time>
      </trkpt>
      <trkpt lat="44.57853" lon="2.24823">
        <ele>318.81</ele>
        <time>2014-06-04T13:16:08Z</time>
      </trkpt>
      <trkpt lat="44.57856" lon="2.24818">
        <ele>314.49</ele>
        <time>2014-06-04T13:16:14Z</time>
      </trkpt>
      <trkpt lat="44.57858" lon="2.24815">
        <ele>315.45</ele>
        <time>2014-06-04T13:16:17Z</time>
      </trkpt>
      <trkpt lat="44.57865" lon="2.24806">
        <ele>315.45</ele>
        <time>2014-06-04T13:16:28Z</time>
      </trkpt>
      <trkpt lat="44.57875" lon="2.24796">
        <ele>315.93</ele>
        <time>2014-06-04T13:16:39Z</time>
      </trkpt>
      <trkpt lat="44.57884" lon="2.24781">
        <ele>316.41</ele>
        <time>2014-06-04T13:16:52Z</time>
      </trkpt>
      <trkpt lat="44.5789" lon="2.24764">
        <ele>316.41</ele>
        <time>2014-06-04T13:17:06Z</time>
      </trkpt>
      <trkpt lat="44.57891" lon="2.24754">
        <ele>315.93</ele>
        <time>2014-06-04T13:17:13Z</time>
      </trkpt>
      <trkpt lat="44.5789" lon="2.24735">
        <ele>316.89</ele>
        <time>2014-06-04T13:17:26Z</time>
      </trkpt>
      <trkpt lat="44.5789" lon="2.24724">
        <ele>317.37</ele>
        <time>2014-06-04T13:17:34Z</time>
      </trkpt>
      <trkpt lat="44.5789" lon="2.24704">
        <ele>319.3</ele>
        <time>2014-06-04T13:17:48Z</time>
      </trkpt>
      <trkpt lat="44.57893" lon="2.24677">
        <ele>319.3</ele>
        <time>2014-06-04T13:18:08Z</time>
      </trkpt>
      <trkpt lat="44.57897" lon="2.24659">
        <ele>318.81</ele>
        <time>2014-06-04T13:18:23Z</time>
      </trkpt>
      <trkpt lat="44.57898" lon="2.24641">
        <ele>319.3</ele>
        <time>2014-06-04T13:18:39Z</time>
      </trkpt>
      <trkpt lat="44.57897" lon="2.24632">
        <ele>319.3</ele>
        <time>2014-06-04T13:18:54Z</time>
      </trkpt>
      <trkpt lat="44.57897" lon="2.24631">
        <ele>319.3</ele>
        <time>2014-06-04T13:18:55Z</time>
      </trkpt>
      <trkpt lat="44.57894" lon="2.24616">
        <ele>319.3</ele>
        <time>2014-06-04T13:19:09Z</time>
      </trkpt>
      <trkpt lat="44.57894" lon="2.24616">
        <ele>320.74</ele>
        <time>2014-06-04T13:19:12Z</time>
      </trkpt>
      <trkpt lat="44.57894" lon="2.24616">
        <ele>320.26</ele>
        <time>2014-06-04T13:19:13Z</time>
      </trkpt>
      <trkpt lat="44.57891" lon="2.24606">
        <ele>308.72</ele>
        <time>2014-06-04T13:19:21Z</time>
      </trkpt>
      <trkpt lat="44.5789" lon="2.24605">
        <ele>328.91</ele>
        <time>2014-06-04T13:19:22Z</time>
      </trkpt>
      <trkpt lat="44.5789" lon="2.24604">
        <ele>328.91</ele>
        <time>2014-06-04T13:19:23Z</time>
      </trkpt>
      <trkpt lat="44.57889" lon="2.24603">
        <ele>320.26</ele>
        <time>2014-06-04T13:19:24Z</time>
      </trkpt>
      <trkpt lat="44.57889" lon="2.24602">
        <ele>320.26</ele>
        <time>2014-06-04T13:19:25Z</time>
      </trkpt>
      <trkpt lat="44.57888" lon="2.24599">
        <ele>315.93</ele>
        <time>2014-06-04T13:19:27Z</time>
      </trkpt>
      <trkpt lat="44.57887" lon="2.24599">
        <ele>323.14</ele>
        <time>2014-06-04T13:19:28Z</time>
      </trkpt>
      <trkpt lat="44.57887" lon="2.24597">
        <ele>319.3</ele>
        <time>2014-06-04T13:19:29Z</time>
      </trkpt>
      <trkpt lat="44.57876" lon="2.24579">
        <ele>318.81</ele>
        <time>2014-06-04T13:19:46Z</time>
      </trkpt>
      <trkpt lat="44.57873" lon="2.24574">
        <ele>318.81</ele>
        <time>2014-06-04T13:20:09Z</time>
      </trkpt>
      <trkpt lat="44.57865" lon="2.24566">
        <ele>318.33</ele>
        <time>2014-06-04T13:20:26Z</time>
      </trkpt>
      <trkpt lat="44.57854" lon="2.2455">
        <ele>316.89</ele>
        <time>2014-06-04T13:20:42Z</time>
      </trkpt>
      <trkpt lat="44.57852" lon="2.24553">
        <ele>318.81</ele>
        <time>2014-06-04T13:21:02Z</time>
      </trkpt>
      <trkpt lat="44.57852" lon="2.24554">
        <ele>314.97</ele>
        <time>2014-06-04T13:21:07Z</time>
      </trkpt>
      <trkpt lat="44.57852" lon="2.24555">
        <ele>319.3</ele>
        <time>2014-06-04T13:21:08Z</time>
      </trkpt>
      <trkpt lat="44.57852" lon="2.24555">
        <ele>315.93</ele>
        <time>2014-06-04T13:21:09Z</time>
      </trkpt>
      <trkpt lat="44.57848" lon="2.24549">
        <ele>316.89</ele>
        <time>2014-06-04T13:21:26Z</time>
      </trkpt>
      <trkpt lat="44.57839" lon="2.24539">
        <ele>315.93</ele>
        <time>2014-06-04T13:21:43Z</time>
      </trkpt>
      <trkpt lat="44.57825" lon="2.24532">
        <ele>315.45</ele>
        <time>2014-06-04T13:22:01Z</time>
      </trkpt>
      <trkpt lat="44.57812" lon="2.24525">
        <ele>314.49</ele>
        <time>2014-06-04T13:22:22Z</time>
      </trkpt>
      <trkpt lat="44.57792" lon="2.24519">
        <ele>314.01</ele>
        <time>2014-06-04T13:22:42Z</time>
      </trkpt>
      <trkpt lat="44.57774" lon="2.24505">
        <ele>313.05</ele>
        <time>2014-06-04T13:23:01Z</time>
      </trkpt>
      <trkpt lat="44.57753" lon="2.24491">
        <ele>312.09</ele>
        <time>2014-06-04T13:23:21Z</time>
      </trkpt>
      <trkpt lat="44.57744" lon="2.24485">
        <ele>312.09</ele>
        <time>2014-06-04T13:23:30Z</time>
      </trkpt>
      <trkpt lat="44.57722" lon="2.24472">
        <ele>311.6</ele>
        <time>2014-06-04T13:23:52Z</time>
      </trkpt>
      <trkpt lat="44.57705" lon="2.24462">
        <ele>309.68</ele>
        <time>2014-06-04T13:24:10Z</time>
      </trkpt>
      <trkpt lat="44.57691" lon="2.24454">
        <ele>307.76</ele>
        <time>2014-06-04T13:24:30Z</time>
      </trkpt>
      <trkpt lat="44.57678" lon="2.24454">
        <ele>307.28</ele>
        <time>2014-06-04T13:24:47Z</time>
      </trkpt>
      <trkpt lat="44.57666" lon="2.24437">
        <ele>306.32</ele>
        <time>2014-06-04T13:25:06Z</time>
      </trkpt>
      <trkpt lat="44.57663" lon="2.24437">
        <ele>305.84</ele>
        <time>2014-06-04T13:25:28Z</time>
      </trkpt>
      <trkpt lat="44.57664" lon="2.24426">
        <ele>306.8</ele>
        <time>2014-06-04T13:25:51Z</time>
      </trkpt>
      <trkpt lat="44.57668" lon="2.24416">
        <ele>307.76</ele>
        <time>2014-06-04T13:26:08Z</time>
      </trkpt>
      <trkpt lat="44.57664" lon="2.2442">
        <ele>307.76</ele>
        <time>2014-06-04T13:26:22Z</time>
      </trkpt>
      <trkpt lat="44.57666" lon="2.24419">
        <ele>308.24</ele>
        <time>2014-06-04T13:26:36Z</time>
      </trkpt>
      <trkpt lat="44.57665" lon="2.24418">
        <ele>307.76</ele>
        <time>2014-06-04T13:26:54Z</time>
      </trkpt>
      <trkpt lat="44.57669" lon="2.24408">
        <ele>308.72</ele>
        <time>2014-06-04T13:27:09Z</time>
      </trkpt>
      <trkpt lat="44.57674" lon="2.24394">
        <ele>309.68</ele>
        <time>2014-06-04T13:27:26Z</time>
      </trkpt>
      <trkpt lat="44.57677" lon="2.24372">
        <ele>310.16</ele>
        <time>2014-06-04T13:27:41Z</time>
      </trkpt>
      <trkpt lat="44.57683" lon="2.24357">
        <ele>312.57</ele>
        <time>2014-06-04T13:27:56Z</time>
      </trkpt>
      <trkpt lat="44.57682" lon="2.2434">
        <ele>314.01</ele>
        <time>2014-06-04T13:28:13Z</time>
      </trkpt>
      <trkpt lat="44.57692" lon="2.24316">
        <ele>316.89</ele>
        <time>2014-06-04T13:28:34Z</time>
      </trkpt>
      <trkpt lat="44.57698" lon="2.24299">
        <ele>317.85</ele>
        <time>2014-06-04T13:28:51Z</time>
      </trkpt>
      <trkpt lat="44.577" lon="2.24279">
        <ele>318.81</ele>
        <time>2014-06-04T13:29:10Z</time>
      </trkpt>
      <trkpt lat="44.57703" lon="2.24262">
        <ele>320.74</ele>
        <time>2014-06-04T13:29:28Z</time>
      </trkpt>
      <trkpt lat="44.57704" lon="2.24256">
        <ele>321.22</ele>
        <time>2014-06-04T13:29:33Z</time>
      </trkpt>
      <trkpt lat="44.57702" lon="2.24235">
        <ele>323.14</ele>
        <time>2014-06-04T13:29:50Z</time>
      </trkpt>
      <trkpt lat="44.57704" lon="2.24216">
        <ele>325.54</ele>
        <time>2014-06-04T13:30:09Z</time>
      </trkpt>
      <trkpt lat="44.57693" lon="2.2421">
        <ele>327.95</ele>
        <time>2014-06-04T13:30:28Z</time>
      </trkpt>
      <trkpt lat="44.57686" lon="2.24199">
        <ele>329.87</ele>
        <time>2014-06-04T13:30:46Z</time>
      </trkpt>
      <trkpt lat="44.5767" lon="2.24184">
        <ele>333.23</ele>
        <time>2014-06-04T13:31:04Z</time>
      </trkpt>
      <trkpt lat="44.57652" lon="2.24162">
        <ele>336.6</ele>
        <time>2014-06-04T13:31:23Z</time>
      </trkpt>
      <trkpt lat="44.57651" lon="2.24158">
        <ele>336.6</ele>
        <time>2014-06-04T13:31:25Z</time>
      </trkpt>
      <trkpt lat="44.57642" lon="2.24138">
        <ele>338.04</ele>
        <time>2014-06-04T13:31:33Z</time>
      </trkpt>
      <trkpt lat="44.57619" lon="2.24122">
        <ele>340.92</ele>
        <time>2014-06-04T13:31:51Z</time>
      </trkpt>
      <trkpt lat="44.57604" lon="2.24105">
        <ele>343.81</ele>
        <time>2014-06-04T13:32:06Z</time>
      </trkpt>
      <trkpt lat="44.57604" lon="2.24097">
        <ele>345.25</ele>
        <time>2014-06-04T13:32:11Z</time>
      </trkpt>
      <trkpt lat="44.57609" lon="2.24076">
        <ele>348.13</ele>
        <time>2014-06-04T13:32:26Z</time>
      </trkpt>
      <trkpt lat="44.57618" lon="2.2405">
        <ele>350.54</ele>
        <time>2014-06-04T13:32:45Z</time>
      </trkpt>
      <trkpt lat="44.57625" lon="2.2402">
        <ele>351.98</ele>
        <time>2014-06-04T13:33:03Z</time>
      </trkpt>
      <trkpt lat="44.5763" lon="2.23998">
        <ele>354.38</ele>
        <time>2014-06-04T13:33:17Z</time>
      </trkpt>
      <trkpt lat="44.57633" lon="2.23992">
        <ele>354.38</ele>
        <time>2014-06-04T13:33:21Z</time>
      </trkpt>
      <trkpt lat="44.57637" lon="2.23975">
        <ele>355.34</ele>
        <time>2014-06-04T13:33:33Z</time>
      </trkpt>
      <trkpt lat="44.57651" lon="2.23956">
        <ele>355.34</ele>
        <time>2014-06-04T13:33:50Z</time>
      </trkpt>
      <trkpt lat="44.57651" lon="2.23955">
        <ele>354.38</ele>
        <time>2014-06-04T13:33:51Z</time>
      </trkpt>
      <trkpt lat="44.57654" lon="2.23932">
        <ele>354.38</ele>
        <time>2014-06-04T13:34:05Z</time>
      </trkpt>
      <trkpt lat="44.57663" lon="2.23914">
        <ele>352.94</ele>
        <time>2014-06-04T13:34:23Z</time>
      </trkpt>
      <trkpt lat="44.57663" lon="2.23901">
        <ele>352.46</ele>
        <time>2014-06-04T13:34:40Z</time>
      </trkpt>
      <trkpt lat="44.57666" lon="2.23916">
        <ele>352.94</ele>
        <time>2014-06-04T13:34:59Z</time>
      </trkpt>
      <trkpt lat="44.57665" lon="2.2392">
        <ele>353.42</ele>
        <time>2014-06-04T13:35:15Z</time>
      </trkpt>
      <trkpt lat="44.57666" lon="2.2392">
        <ele>354.86</ele>
        <time>2014-06-04T13:35:23Z</time>
      </trkpt>
      <trkpt lat="44.57697" lon="2.23932">
        <ele>352.46</ele>
        <time>2014-06-04T13:35:54Z</time>
      </trkpt>
      <trkpt lat="44.57668" lon="2.23922">
        <ele>353.42</ele>
        <time>2014-06-04T13:37:14Z</time>
      </trkpt>
      <trkpt lat="44.57667" lon="2.23921">
        <ele>351.5</ele>
        <time>2014-06-04T13:37:15Z</time>
      </trkpt>
      <trkpt lat="44.57649" lon="2.23914">
        <ele>353.9</ele>
        <time>2014-06-04T13:37:34Z</time>
      </trkpt>
      <trkpt lat="44.57651" lon="2.23911">
        <ele>352.94</ele>
        <time>2014-06-04T13:37:59Z</time>
      </trkpt>
      <trkpt lat="44.57655" lon="2.23913">
        <ele>352.94</ele>
        <time>2014-06-04T13:38:18Z</time>
      </trkpt>
      <trkpt lat="44.57652" lon="2.23912">
        <ele>352.46</ele>
        <time>2014-06-04T13:38:41Z</time>
      </trkpt>
      <trkpt lat="44.57653" lon="2.23912">
        <ele>353.42</ele>
        <time>2014-06-04T13:39:01Z</time>
      </trkpt>
      <trkpt lat="44.57652" lon="2.23912">
        <ele>352.94</ele>
        <time>2014-06-04T13:39:26Z</time>
      </trkpt>
      <trkpt lat="44.57651" lon="2.23911">
        <ele>352.94</ele>
        <time>2014-06-04T13:39:42Z</time>
      </trkpt>
      <trkpt lat="44.57651" lon="2.2391">
        <ele>352.94</ele>
        <time>2014-06-04T13:40:06Z</time>
      </trkpt>
      <trkpt lat="44.57649" lon="2.23912">
        <ele>352.46</ele>
        <time>2014-06-04T13:40:28Z</time>
      </trkpt>
      <trkpt lat="44.57648" lon="2.23914">
        <ele>352.94</ele>
        <time>2014-06-04T13:40:49Z</time>
      </trkpt>
      <trkpt lat="44.57652" lon="2.23913">
        <ele>352.94</ele>
        <time>2014-06-04T13:41:04Z</time>
      </trkpt>
      <trkpt lat="44.57651" lon="2.23914">
        <ele>352.94</ele>
        <time>2014-06-04T13:41:29Z</time>
      </trkpt>
      <trkpt lat="44.57657" lon="2.23911">
        <ele>352.94</ele>
        <time>2014-06-04T13:41:50Z</time>
      </trkpt>
      <trkpt lat="44.57661" lon="2.23905">
        <ele>352.94</ele>
        <time>2014-06-04T13:42:05Z</time>
      </trkpt>
      <trkpt lat="44.57662" lon="2.23906">
        <ele>352.46</ele>
        <time>2014-06-04T13:42:08Z</time>
      </trkpt>
      <trkpt lat="44.57662" lon="2.23903">
        <ele>352.46</ele>
        <time>2014-06-04T13:42:26Z</time>
      </trkpt>
      <trkpt lat="44.57654" lon="2.23914">
        <ele>352.94</ele>
        <time>2014-06-04T13:42:44Z</time>
      </trkpt>
      <trkpt lat="44.57653" lon="2.23914">
        <ele>352.46</ele>
        <time>2014-06-04T13:43:01Z</time>
      </trkpt>
      <trkpt lat="44.57656" lon="2.23914">
        <ele>352.46</ele>
        <time>2014-06-04T13:43:26Z</time>
      </trkpt>
      <trkpt lat="44.57654" lon="2.23919">
        <ele>352.94</ele>
        <time>2014-06-04T13:44:00Z</time>
      </trkpt>
      <trkpt lat="44.57652" lon="2.23914">
        <ele>352.94</ele>
        <time>2014-06-04T13:44:32Z</time>
      </trkpt>
      <trkpt lat="44.5765" lon="2.23917">
        <ele>353.42</ele>
        <time>2014-06-04T13:45:09Z</time>
      </trkpt>
      <trkpt lat="44.57649" lon="2.23919">
        <ele>351.98</ele>
        <time>2014-06-04T13:45:18Z</time>
      </trkpt>
      <trkpt lat="44.57649" lon="2.23919">
        <ele>353.9</ele>
        <time>2014-06-04T13:45:19Z</time>
      </trkpt>
      <trkpt lat="44.57646" lon="2.23922">
        <ele>353.42</ele>
        <time>2014-06-04T13:45:28Z</time>
      </trkpt>
      <trkpt lat="44.57645" lon="2.23923">
        <ele>354.38</ele>
        <time>2014-06-04T13:45:32Z</time>
      </trkpt>
      <trkpt lat="44.57644" lon="2.23924">
        <ele>355.83</ele>
        <time>2014-06-04T13:45:35Z</time>
      </trkpt>
      <trkpt lat="44.57654" lon="2.23913">
        <ele>353.9</ele>
        <time>2014-06-04T13:46:02Z</time>
      </trkpt>
      <trkpt lat="44.57655" lon="2.23914">
        <ele>354.38</ele>
        <time>2014-06-04T13:46:28Z</time>
      </trkpt>
      <trkpt lat="44.57652" lon="2.23915">
        <ele>354.38</ele>
        <time>2014-06-04T13:47:01Z</time>
      </trkpt>
      <trkpt lat="44.57654" lon="2.23915">
        <ele>353.9</ele>
        <time>2014-06-04T13:47:24Z</time>
      </trkpt>
      <trkpt lat="44.57651" lon="2.23914">
        <ele>354.38</ele>
        <time>2014-06-04T13:47:44Z</time>
      </trkpt>
      <trkpt lat="44.57649" lon="2.23915">
        <ele>354.38</ele>
        <time>2014-06-04T13:48:04Z</time>
      </trkpt>
      <trkpt lat="44.57651" lon="2.23916">
        <ele>354.86</ele>
        <time>2014-06-04T13:48:31Z</time>
      </trkpt>
      <trkpt lat="44.57649" lon="2.23917">
        <ele>354.86</ele>
        <time>2014-06-04T13:49:00Z</time>
      </trkpt>
      <trkpt lat="44.57655" lon="2.23912">
        <ele>354.86</ele>
        <time>2014-06-04T13:49:25Z</time>
      </trkpt>
      <trkpt lat="44.57655" lon="2.23914">
        <ele>355.34</ele>
        <time>2014-06-04T13:49:45Z</time>
      </trkpt>
      <trkpt lat="44.57657" lon="2.23911">
        <ele>356.31</ele>
        <time>2014-06-04T13:50:06Z</time>
      </trkpt>
      <trkpt lat="44.57657" lon="2.23913">
        <ele>355.34</ele>
        <time>2014-06-04T13:50:29Z</time>
      </trkpt>
      <trkpt lat="44.57656" lon="2.2391">
        <ele>354.86</ele>
        <time>2014-06-04T13:50:58Z</time>
      </trkpt>
      <trkpt lat="44.57658" lon="2.23911">
        <ele>354.86</ele>
        <time>2014-06-04T13:51:18Z</time>
      </trkpt>
      <trkpt lat="44.57665" lon="2.23895">
        <ele>354.86</ele>
        <time>2014-06-04T13:51:37Z</time>
      </trkpt>
      <trkpt lat="44.57671" lon="2.23878">
        <ele>354.86</ele>
        <time>2014-06-04T13:51:53Z</time>
      </trkpt>
      <trkpt lat="44.57674" lon="2.23867">
        <ele>355.34</ele>
        <time>2014-06-04T13:52:11Z</time>
      </trkpt>
      <trkpt lat="44.57679" lon="2.23851">
        <ele>356.31</ele>
        <time>2014-06-04T13:52:30Z</time>
      </trkpt>
      <trkpt lat="44.5768" lon="2.23832">
        <ele>357.27</ele>
        <time>2014-06-04T13:52:50Z</time>
      </trkpt>
      <trkpt lat="44.57678" lon="2.23812">
        <ele>359.19</ele>
        <time>2014-06-04T13:53:08Z</time>
      </trkpt>
      <trkpt lat="44.57678" lon="2.23789">
        <ele>358.71</ele>
        <time>2014-06-04T13:53:25Z</time>
      </trkpt>
      <trkpt lat="44.57684" lon="2.23764">
        <ele>357.75</ele>
        <time>2014-06-04T13:53:45Z</time>
      </trkpt>
      <trkpt lat="44.57687" lon="2.23746">
        <ele>356.31</ele>
        <time>2014-06-04T13:53:56Z</time>
      </trkpt>
      <trkpt lat="44.57691" lon="2.23721">
        <ele>353.9</ele>
        <time>2014-06-04T13:54:16Z</time>
      </trkpt>
      <trkpt lat="44.57693" lon="2.23705">
        <ele>352.46</ele>
        <time>2014-06-04T13:54:36Z</time>
      </trkpt>
      <trkpt lat="44.57692" lon="2.23705">
        <ele>354.38</ele>
        <time>2014-06-04T13:54:49Z</time>
      </trkpt>
      <trkpt lat="44.57692" lon="2.23706">
        <ele>352.94</ele>
        <time>2014-06-04T13:54:51Z</time>
      </trkpt>
      <trkpt lat="44.57693" lon="2.237">
        <ele>351.98</ele>
        <time>2014-06-04T13:54:57Z</time>
      </trkpt>
      <trkpt lat="44.57693" lon="2.23695">
        <ele>351.98</ele>
        <time>2014-06-04T13:55:01Z</time>
      </trkpt>
      <trkpt lat="44.57696" lon="2.23694">
        <ele>351.5</ele>
        <time>2014-06-04T13:55:17Z</time>
      </trkpt>
      <trkpt lat="44.57692" lon="2.23692">
        <ele>351.5</ele>
        <time>2014-06-04T13:55:36Z</time>
      </trkpt>
      <trkpt lat="44.57699" lon="2.23676">
        <ele>351.02</ele>
        <time>2014-06-04T13:55:50Z</time>
      </trkpt>
      <trkpt lat="44.57704" lon="2.23657">
        <ele>350.54</ele>
        <time>2014-06-04T13:56:03Z</time>
      </trkpt>
      <trkpt lat="44.57707" lon="2.23646">
        <ele>350.54</ele>
        <time>2014-06-04T13:56:16Z</time>
      </trkpt>
      <trkpt lat="44.57711" lon="2.23629">
        <ele>351.5</ele>
        <time>2014-06-04T13:56:29Z</time>
      </trkpt>
      <trkpt lat="44.57715" lon="2.23623">
        <ele>351.98</ele>
        <time>2014-06-04T13:56:34Z</time>
      </trkpt>
      <trkpt lat="44.57719" lon="2.2361">
        <ele>352.94</ele>
        <time>2014-06-04T13:56:44Z</time>
      </trkpt>
      <trkpt lat="44.5772" lon="2.23605">
        <ele>352.94</ele>
        <time>2014-06-04T13:56:47Z</time>
      </trkpt>
      <trkpt lat="44.57723" lon="2.23597">
        <ele>352.94</ele>
        <time>2014-06-04T13:56:53Z</time>
      </trkpt>
      <trkpt lat="44.57726" lon="2.2359">
        <ele>353.42</ele>
        <time>2014-06-04T13:56:58Z</time>
      </trkpt>
      <trkpt lat="44.57732" lon="2.23574">
        <ele>353.9</ele>
        <time>2014-06-04T13:57:11Z</time>
      </trkpt>
      <trkpt lat="44.57732" lon="2.23572">
        <ele>354.38</ele>
        <time>2014-06-04T13:57:13Z</time>
      </trkpt>
      <trkpt lat="44.57733" lon="2.23568">
        <ele>354.38</ele>
        <time>2014-06-04T13:57:16Z</time>
      </trkpt>
      <trkpt lat="44.57737" lon="2.23557">
        <ele>354.86</ele>
        <time>2014-06-04T13:57:24Z</time>
      </trkpt>
      <trkpt lat="44.57742" lon="2.23548">
        <ele>354.86</ele>
        <time>2014-06-04T13:57:31Z</time>
      </trkpt>
      <trkpt lat="44.57747" lon="2.23543">
        <ele>355.34</ele>
        <time>2014-06-04T13:57:35Z</time>
      </trkpt>
      <trkpt lat="44.57748" lon="2.23539">
        <ele>355.34</ele>
        <time>2014-06-04T13:57:38Z</time>
      </trkpt>
      <trkpt lat="44.57752" lon="2.23535">
        <ele>355.83</ele>
        <time>2014-06-04T13:57:50Z</time>
      </trkpt>
      <trkpt lat="44.57752" lon="2.23533">
        <ele>355.34</ele>
        <time>2014-06-04T13:57:51Z</time>
      </trkpt>
      <trkpt lat="44.57754" lon="2.23527">
        <ele>354.86</ele>
        <time>2014-06-04T13:58:04Z</time>
      </trkpt>
      <trkpt lat="44.57755" lon="2.23525">
        <ele>355.34</ele>
        <time>2014-06-04T13:58:06Z</time>
      </trkpt>
      <trkpt lat="44.57757" lon="2.23517">
        <ele>354.38</ele>
        <time>2014-06-04T13:58:12Z</time>
      </trkpt>
      <trkpt lat="44.57758" lon="2.23511">
        <ele>354.86</ele>
        <time>2014-06-04T13:58:16Z</time>
      </trkpt>
      <trkpt lat="44.5777" lon="2.2349">
        <ele>353.42</ele>
        <time>2014-06-04T13:58:32Z</time>
      </trkpt>
      <trkpt lat="44.57779" lon="2.23469">
        <ele>351.98</ele>
        <time>2014-06-04T13:58:48Z</time>
      </trkpt>
      <trkpt lat="44.57787" lon="2.23451">
        <ele>350.54</ele>
        <time>2014-06-04T13:59:02Z</time>
      </trkpt>
      <trkpt lat="44.57794" lon="2.2343">
        <ele>348.62</ele>
        <time>2014-06-04T13:59:18Z</time>
      </trkpt>
      <trkpt lat="44.57801" lon="2.23401">
        <ele>346.69</ele>
        <time>2014-06-04T13:59:38Z</time>
      </trkpt>
      <trkpt lat="44.57808" lon="2.23377">
        <ele>345.73</ele>
        <time>2014-06-04T13:59:56Z</time>
      </trkpt>
      <trkpt lat="44.57816" lon="2.23358">
        <ele>343.33</ele>
        <time>2014-06-04T14:00:12Z</time>
      </trkpt>
      <trkpt lat="44.57824" lon="2.23338">
        <ele>342.37</ele>
        <time>2014-06-04T14:00:28Z</time>
      </trkpt>
      <trkpt lat="44.57834" lon="2.23316">
        <ele>339.96</ele>
        <time>2014-06-04T14:00:46Z</time>
      </trkpt>
      <trkpt lat="44.57834" lon="2.23316">
        <ele>339.48</ele>
        <time>2014-06-04T14:00:47Z</time>
      </trkpt>
      <trkpt lat="44.57835" lon="2.23314">
        <ele>339</ele>
        <time>2014-06-04T14:00:49Z</time>
      </trkpt>
      <trkpt lat="44.57843" lon="2.23295">
        <ele>338.04</ele>
        <time>2014-06-04T14:01:06Z</time>
      </trkpt>
      <trkpt lat="44.57855" lon="2.23278">
        <ele>335.64</ele>
        <time>2014-06-04T14:01:22Z</time>
      </trkpt>
      <trkpt lat="44.57864" lon="2.23259">
        <ele>334.2</ele>
        <time>2014-06-04T14:01:39Z</time>
      </trkpt>
      <trkpt lat="44.57872" lon="2.23243">
        <ele>332.75</ele>
        <time>2014-06-04T14:01:53Z</time>
      </trkpt>
      <trkpt lat="44.57881" lon="2.23227">
        <ele>330.83</ele>
        <time>2014-06-04T14:02:08Z</time>
      </trkpt>
      <trkpt lat="44.57893" lon="2.23207">
        <ele>329.87</ele>
        <time>2014-06-04T14:02:26Z</time>
      </trkpt>
      <trkpt lat="44.57904" lon="2.2319">
        <ele>328.91</ele>
        <time>2014-06-04T14:02:41Z</time>
      </trkpt>
      <trkpt lat="44.57914" lon="2.23175">
        <ele>329.39</ele>
        <time>2014-06-04T14:02:55Z</time>
      </trkpt>
      <trkpt lat="44.57923" lon="2.23165">
        <ele>328.91</ele>
        <time>2014-06-04T14:03:06Z</time>
      </trkpt>
      <trkpt lat="44.57929" lon="2.2315">
        <ele>330.35</ele>
        <time>2014-06-04T14:03:19Z</time>
      </trkpt>
      <trkpt lat="44.57935" lon="2.23143">
        <ele>331.31</ele>
        <time>2014-06-04T14:03:37Z</time>
      </trkpt>
      <trkpt lat="44.57949" lon="2.23125">
        <ele>332.75</ele>
        <time>2014-06-04T14:03:55Z</time>
      </trkpt>
      <trkpt lat="44.57962" lon="2.23106">
        <ele>333.23</ele>
        <time>2014-06-04T14:04:12Z</time>
      </trkpt>
      <trkpt lat="44.57975" lon="2.2308">
        <ele>334.68</ele>
        <time>2014-06-04T14:04:35Z</time>
      </trkpt>
      <trkpt lat="44.57986" lon="2.23053">
        <ele>334.68</ele>
        <time>2014-06-04T14:04:55Z</time>
      </trkpt>
      <trkpt lat="44.57988" lon="2.23049">
        <ele>335.16</ele>
        <time>2014-06-04T14:04:57Z</time>
      </trkpt>
      <trkpt lat="44.57995" lon="2.23026">
        <ele>334.2</ele>
        <time>2014-06-04T14:05:14Z</time>
      </trkpt>
      <trkpt lat="44.58002" lon="2.22999">
        <ele>333.71</ele>
        <time>2014-06-04T14:05:32Z</time>
      </trkpt>
      <trkpt lat="44.58011" lon="2.22973">
        <ele>334.2</ele>
        <time>2014-06-04T14:05:50Z</time>
      </trkpt>
      <trkpt lat="44.58023" lon="2.22947">
        <ele>332.75</ele>
        <time>2014-06-04T14:06:11Z</time>
      </trkpt>
      <trkpt lat="44.58028" lon="2.22929">
        <ele>332.75</ele>
        <time>2014-06-04T14:06:23Z</time>
      </trkpt>
      <trkpt lat="44.58029" lon="2.22918">
        <ele>332.75</ele>
        <time>2014-06-04T14:06:40Z</time>
      </trkpt>
      <trkpt lat="44.5804" lon="2.22898">
        <ele>331.31</ele>
        <time>2014-06-04T14:07:00Z</time>
      </trkpt>
      <trkpt lat="44.58052" lon="2.22871">
        <ele>329.39</ele>
        <time>2014-06-04T14:07:19Z</time>
      </trkpt>
      <trkpt lat="44.58059" lon="2.22858">
        <ele>329.87</ele>
        <time>2014-06-04T14:07:34Z</time>
      </trkpt>
      <trkpt lat="44.5806" lon="2.2286">
        <ele>330.35</ele>
        <time>2014-06-04T14:07:53Z</time>
      </trkpt>
      <trkpt lat="44.58076" lon="2.22849">
        <ele>327.95</ele>
        <time>2014-06-04T14:08:14Z</time>
      </trkpt>
      <trkpt lat="44.58092" lon="2.22842">
        <ele>326.5</ele>
        <time>2014-06-04T14:08:33Z</time>
      </trkpt>
      <trkpt lat="44.58113" lon="2.22845">
        <ele>324.58</ele>
        <time>2014-06-04T14:08:54Z</time>
      </trkpt>
      <trkpt lat="44.58129" lon="2.22847">
        <ele>322.18</ele>
        <time>2014-06-04T14:09:12Z</time>
      </trkpt>
      <trkpt lat="44.58141" lon="2.2285">
        <ele>319.78</ele>
        <time>2014-06-04T14:09:28Z</time>
      </trkpt>
      <trkpt lat="44.58153" lon="2.22844">
        <ele>317.37</ele>
        <time>2014-06-04T14:09:47Z</time>
      </trkpt>
      <trkpt lat="44.58166" lon="2.22822">
        <ele>314.49</ele>
        <time>2014-06-04T14:10:06Z</time>
      </trkpt>
      <trkpt lat="44.58177" lon="2.22804">
        <ele>313.53</ele>
        <time>2014-06-04T14:10:23Z</time>
      </trkpt>
      <trkpt lat="44.58189" lon="2.22784">
        <ele>311.6</ele>
        <time>2014-06-04T14:10:42Z</time>
      </trkpt>
      <trkpt lat="44.58197" lon="2.22764">
        <ele>310.64</ele>
        <time>2014-06-04T14:11:00Z</time>
      </trkpt>
      <trkpt lat="44.58202" lon="2.22744">
        <ele>309.68</ele>
        <time>2014-06-04T14:11:18Z</time>
      </trkpt>
      <trkpt lat="44.58205" lon="2.22724">
        <ele>308.24</ele>
        <time>2014-06-04T14:11:33Z</time>
      </trkpt>
      <trkpt lat="44.58209" lon="2.22702">
        <ele>305.84</ele>
        <time>2014-06-04T14:11:51Z</time>
      </trkpt>
      <trkpt lat="44.58213" lon="2.22683">
        <ele>304.39</ele>
        <time>2014-06-04T14:12:08Z</time>
      </trkpt>
      <trkpt lat="44.58219" lon="2.22671">
        <ele>301.51</ele>
        <time>2014-06-04T14:12:22Z</time>
      </trkpt>
      <trkpt lat="44.58223" lon="2.22657">
        <ele>299.59</ele>
        <time>2014-06-04T14:12:37Z</time>
      </trkpt>
      <trkpt lat="44.5823" lon="2.22646">
        <ele>298.15</ele>
        <time>2014-06-04T14:12:53Z</time>
      </trkpt>
      <trkpt lat="44.58237" lon="2.22637">
        <ele>296.22</ele>
        <time>2014-06-04T14:13:08Z</time>
      </trkpt>
      <trkpt lat="44.58246" lon="2.22628">
        <ele>294.3</ele>
        <time>2014-06-04T14:13:27Z</time>
      </trkpt>
      <trkpt lat="44.58256" lon="2.22612">
        <ele>291.9</ele>
        <time>2014-06-04T14:13:46Z</time>
      </trkpt>
      <trkpt lat="44.58266" lon="2.226">
        <ele>289.49</ele>
        <time>2014-06-04T14:14:04Z</time>
      </trkpt>
      <trkpt lat="44.58269" lon="2.2258">
        <ele>287.57</ele>
        <time>2014-06-04T14:14:23Z</time>
      </trkpt>
      <trkpt lat="44.58272" lon="2.22565">
        <ele>286.13</ele>
        <time>2014-06-04T14:14:38Z</time>
      </trkpt>
      <trkpt lat="44.58269" lon="2.22547">
        <ele>282.77</ele>
        <time>2014-06-04T14:14:55Z</time>
      </trkpt>
      <trkpt lat="44.58267" lon="2.22525">
        <ele>279.4</ele>
        <time>2014-06-04T14:15:13Z</time>
      </trkpt>
      <trkpt lat="44.58263" lon="2.22497">
        <ele>276.52</ele>
        <time>2014-06-04T14:15:35Z</time>
      </trkpt>
      <trkpt lat="44.58266" lon="2.22474">
        <ele>275.07</ele>
        <time>2014-06-04T14:15:54Z</time>
      </trkpt>
      <trkpt lat="44.58275" lon="2.22477">
        <ele>271.71</ele>
        <time>2014-06-04T14:16:09Z</time>
      </trkpt>
      <trkpt lat="44.58286" lon="2.22478">
        <ele>268.83</ele>
        <time>2014-06-04T14:16:30Z</time>
      </trkpt>
      <trkpt lat="44.5828" lon="2.22461">
        <ele>266.9</ele>
        <time>2014-06-04T14:16:50Z</time>
      </trkpt>
      <trkpt lat="44.58273" lon="2.22441">
        <ele>264.5</ele>
        <time>2014-06-04T14:17:09Z</time>
      </trkpt>
      <trkpt lat="44.58261" lon="2.22428">
        <ele>262.1</ele>
        <time>2014-06-04T14:17:29Z</time>
      </trkpt>
      <trkpt lat="44.58264" lon="2.22424">
        <ele>262.1</ele>
        <time>2014-06-04T14:17:57Z</time>
      </trkpt>
      <trkpt lat="44.5826" lon="2.2243">
        <ele>262.1</ele>
        <time>2014-06-04T14:18:25Z</time>
      </trkpt>
      <trkpt lat="44.58264" lon="2.22426">
        <ele>261.14</ele>
        <time>2014-06-04T14:18:51Z</time>
      </trkpt>
      <trkpt lat="44.58279" lon="2.22425">
        <ele>259.69</ele>
        <time>2014-06-04T14:19:12Z</time>
      </trkpt>
      <trkpt lat="44.58294" lon="2.22441">
        <ele>256.81</ele>
        <time>2014-06-04T14:19:32Z</time>
      </trkpt>
      <trkpt lat="44.58305" lon="2.22453">
        <ele>254.41</ele>
        <time>2014-06-04T14:19:52Z</time>
      </trkpt>
      <trkpt lat="44.58314" lon="2.22467">
        <ele>252</ele>
        <time>2014-06-04T14:20:12Z</time>
      </trkpt>
      <trkpt lat="44.58326" lon="2.22483">
        <ele>249.6</ele>
        <time>2014-06-04T14:20:32Z</time>
      </trkpt>
      <trkpt lat="44.58345" lon="2.22495">
        <ele>247.68</ele>
        <time>2014-06-04T14:20:52Z</time>
      </trkpt>
      <trkpt lat="44.58352" lon="2.22512">
        <ele>244.79</ele>
        <time>2014-06-04T14:21:08Z</time>
      </trkpt>
      <trkpt lat="44.5836" lon="2.22523">
        <ele>241.43</ele>
        <time>2014-06-04T14:21:23Z</time>
      </trkpt>
      <trkpt lat="44.58368" lon="2.22538">
        <ele>238.54</ele>
        <time>2014-06-04T14:21:40Z</time>
      </trkpt>
      <trkpt lat="44.58378" lon="2.22554">
        <ele>235.66</ele>
        <time>2014-06-04T14:21:56Z</time>
      </trkpt>
      <trkpt lat="44.58388" lon="2.22572">
        <ele>232.3</ele>
        <time>2014-06-04T14:22:17Z</time>
      </trkpt>
      <trkpt lat="44.58389" lon="2.22585">
        <ele>228.93</ele>
        <time>2014-06-04T14:22:31Z</time>
      </trkpt>
      <trkpt lat="44.58387" lon="2.22612">
        <ele>227.01</ele>
        <time>2014-06-04T14:22:52Z</time>
      </trkpt>
      <trkpt lat="44.584" lon="2.22613">
        <ele>223.64</ele>
        <time>2014-06-04T14:23:12Z</time>
      </trkpt>
      <trkpt lat="44.58415" lon="2.22626">
        <ele>220.76</ele>
        <time>2014-06-04T14:23:30Z</time>
      </trkpt>
      <trkpt lat="44.58431" lon="2.22646">
        <ele>218.84</ele>
        <time>2014-06-04T14:23:51Z</time>
      </trkpt>
      <trkpt lat="44.58431" lon="2.22661">
        <ele>217.4</ele>
        <time>2014-06-04T14:24:06Z</time>
      </trkpt>
      <trkpt lat="44.58429" lon="2.2268">
        <ele>216.43</ele>
        <time>2014-06-04T14:24:21Z</time>
      </trkpt>
      <trkpt lat="44.58434" lon="2.22702">
        <ele>214.99</ele>
        <time>2014-06-04T14:24:38Z</time>
      </trkpt>
      <trkpt lat="44.58437" lon="2.22709">
        <ele>213.55</ele>
        <time>2014-06-04T14:24:46Z</time>
      </trkpt>
      <trkpt lat="44.58444" lon="2.22723">
        <ele>213.07</ele>
        <time>2014-06-04T14:25:01Z</time>
      </trkpt>
      <trkpt lat="44.58445" lon="2.22728">
        <ele>212.11</ele>
        <time>2014-06-04T14:25:18Z</time>
      </trkpt>
      <trkpt lat="44.58458" lon="2.22745">
        <ele>210.19</ele>
        <time>2014-06-04T14:25:33Z</time>
      </trkpt>
      <trkpt lat="44.58459" lon="2.22747">
        <ele>210.19</ele>
        <time>2014-06-04T14:25:35Z</time>
      </trkpt>
      <trkpt lat="44.58467" lon="2.22762">
        <ele>207.3</ele>
        <time>2014-06-04T14:25:49Z</time>
      </trkpt>
      <trkpt lat="44.5847" lon="2.22779">
        <ele>204.42</ele>
        <time>2014-06-04T14:26:04Z</time>
      </trkpt>
      <trkpt lat="44.5847" lon="2.22795">
        <ele>202.01</ele>
        <time>2014-06-04T14:26:17Z</time>
      </trkpt>
      <trkpt lat="44.58469" lon="2.2281">
        <ele>200.57</ele>
        <time>2014-06-04T14:26:29Z</time>
      </trkpt>
      <trkpt lat="44.58469" lon="2.22813">
        <ele>199.61</ele>
        <time>2014-06-04T14:26:31Z</time>
      </trkpt>
      <trkpt lat="44.58471" lon="2.22829">
        <ele>197.21</ele>
        <time>2014-06-04T14:26:44Z</time>
      </trkpt>
      <trkpt lat="44.58474" lon="2.22854">
        <ele>195.28</ele>
        <time>2014-06-04T14:26:58Z</time>
      </trkpt>
      <trkpt lat="44.58472" lon="2.2287">
        <ele>192.88</ele>
        <time>2014-06-04T14:27:15Z</time>
      </trkpt>
      <trkpt lat="44.58473" lon="2.22878">
        <ele>192.88</ele>
        <time>2014-06-04T14:27:25Z</time>
      </trkpt>
      <trkpt lat="44.58475" lon="2.2288">
        <ele>192.4</ele>
        <time>2014-06-04T14:27:28Z</time>
      </trkpt>
      <trkpt lat="44.58477" lon="2.22882">
        <ele>191.92</ele>
        <time>2014-06-04T14:27:32Z</time>
      </trkpt>
      <trkpt lat="44.58481" lon="2.22893">
        <ele>192.4</ele>
        <time>2014-06-04T14:27:48Z</time>
      </trkpt>
      <trkpt lat="44.58488" lon="2.22884">
        <ele>191.92</ele>
        <time>2014-06-04T14:28:05Z</time>
      </trkpt>
      <trkpt lat="44.58499" lon="2.22872">
        <ele>191.92</ele>
        <time>2014-06-04T14:28:22Z</time>
      </trkpt>
      <trkpt lat="44.58511" lon="2.22869">
        <ele>192.4</ele>
        <time>2014-06-04T14:28:36Z</time>
      </trkpt>
      <trkpt lat="44.58517" lon="2.22869">
        <ele>192.88</ele>
        <time>2014-06-04T14:28:53Z</time>
      </trkpt>
      <trkpt lat="44.5852" lon="2.22867">
        <ele>192.88</ele>
        <time>2014-06-04T14:29:11Z</time>
      </trkpt>
      <trkpt lat="44.58514" lon="2.22875">
        <ele>193.36</ele>
        <time>2014-06-04T14:29:35Z</time>
      </trkpt>
      <trkpt lat="44.58514" lon="2.22873">
        <ele>193.36</ele>
        <time>2014-06-04T14:29:54Z</time>
      </trkpt>
      <trkpt lat="44.58521" lon="2.22873">
        <ele>192.88</ele>
        <time>2014-06-04T14:30:10Z</time>
      </trkpt>
      <trkpt lat="44.58536" lon="2.2287">
        <ele>193.84</ele>
        <time>2014-06-04T14:30:26Z</time>
      </trkpt>
      <trkpt lat="44.58549" lon="2.22876">
        <ele>193.84</ele>
        <time>2014-06-04T14:30:41Z</time>
      </trkpt>
      <trkpt lat="44.58556" lon="2.22884">
        <ele>194.32</ele>
        <time>2014-06-04T14:30:54Z</time>
      </trkpt>
      <trkpt lat="44.58564" lon="2.22889">
        <ele>194.32</ele>
        <time>2014-06-04T14:31:07Z</time>
      </trkpt>
      <trkpt lat="44.58561" lon="2.22887">
        <ele>194.32</ele>
        <time>2014-06-04T14:31:37Z</time>
      </trkpt>
      <trkpt lat="44.58565" lon="2.22878">
        <ele>193.84</ele>
        <time>2014-06-04T14:32:14Z</time>
      </trkpt>
      <trkpt lat="44.5856" lon="2.22884">
        <ele>193.36</ele>
        <time>2014-06-04T14:32:58Z</time>
      </trkpt>
      <trkpt lat="44.58567" lon="2.22883">
        <ele>194.32</ele>
        <time>2014-06-04T14:33:30Z</time>
      </trkpt>
      <trkpt lat="44.58558" lon="2.22884">
        <ele>193.36</ele>
        <time>2014-06-04T14:33:58Z</time>
      </trkpt>
      <trkpt lat="44.58548" lon="2.22879">
        <ele>193.84</ele>
        <time>2014-06-04T14:34:12Z</time>
      </trkpt>
      <trkpt lat="44.58539" lon="2.22874">
        <ele>193.36</ele>
        <time>2014-06-04T14:34:27Z</time>
      </trkpt>
      <trkpt lat="44.58529" lon="2.22867">
        <ele>192.88</ele>
        <time>2014-06-04T14:34:46Z</time>
      </trkpt>
      <trkpt lat="44.58528" lon="2.22867">
        <ele>192.4</ele>
        <time>2014-06-04T14:35:06Z</time>
      </trkpt>
      <trkpt lat="44.58527" lon="2.22871">
        <ele>192.4</ele>
        <time>2014-06-04T14:35:31Z</time>
      </trkpt>
      <trkpt lat="44.58528" lon="2.22873">
        <ele>192.88</ele>
        <time>2014-06-04T14:35:51Z</time>
      </trkpt>
      <trkpt lat="44.58534" lon="2.22869">
        <ele>193.36</ele>
        <time>2014-06-04T14:36:11Z</time>
      </trkpt>
      <trkpt lat="44.58534" lon="2.22861">
        <ele>192.88</ele>
        <time>2014-06-04T14:36:34Z</time>
      </trkpt>
      <trkpt lat="44.58546" lon="2.22876">
        <ele>192.88</ele>
        <time>2014-06-04T14:36:50Z</time>
      </trkpt>
      <trkpt lat="44.58558" lon="2.2288">
        <ele>193.36</ele>
        <time>2014-06-04T14:37:05Z</time>
      </trkpt>
      <trkpt lat="44.58567" lon="2.22887">
        <ele>193.36</ele>
        <time>2014-06-04T14:37:19Z</time>
      </trkpt>
      <trkpt lat="44.5858" lon="2.22896">
        <ele>192.88</ele>
        <time>2014-06-04T14:37:34Z</time>
      </trkpt>
      <trkpt lat="44.58597" lon="2.22908">
        <ele>192.88</ele>
        <time>2014-06-04T14:37:56Z</time>
      </trkpt>
      <trkpt lat="44.58617" lon="2.2292">
        <ele>193.36</ele>
        <time>2014-06-04T14:38:16Z</time>
      </trkpt>
      <trkpt lat="44.58634" lon="2.22928">
        <ele>192.88</ele>
        <time>2014-06-04T14:38:33Z</time>
      </trkpt>
      <trkpt lat="44.58652" lon="2.22939">
        <ele>193.36</ele>
        <time>2014-06-04T14:38:53Z</time>
      </trkpt>
      <trkpt lat="44.58669" lon="2.22952">
        <ele>192.4</ele>
        <time>2014-06-04T14:39:12Z</time>
      </trkpt>
      <trkpt lat="44.58685" lon="2.22965">
        <ele>191.92</ele>
        <time>2014-06-04T14:39:31Z</time>
      </trkpt>
      <trkpt lat="44.587" lon="2.22984">
        <ele>191.92</ele>
        <time>2014-06-04T14:39:50Z</time>
      </trkpt>
      <trkpt lat="44.58715" lon="2.23005">
        <ele>191.44</ele>
        <time>2014-06-04T14:40:08Z</time>
      </trkpt>
      <trkpt lat="44.58723" lon="2.23024">
        <ele>190.48</ele>
        <time>2014-06-04T14:40:25Z</time>
      </trkpt>
      <trkpt lat="44.58733" lon="2.23044">
        <ele>190</ele>
        <time>2014-06-04T14:40:41Z</time>
      </trkpt>
      <trkpt lat="44.58743" lon="2.23071">
        <ele>189.04</ele>
        <time>2014-06-04T14:41:00Z</time>
      </trkpt>
      <trkpt lat="44.58748" lon="2.23093">
        <ele>188.08</ele>
        <time>2014-06-04T14:41:21Z</time>
      </trkpt>
      <trkpt lat="44.58755" lon="2.23094">
        <ele>188.56</ele>
        <time>2014-06-04T14:41:28Z</time>
      </trkpt>
      <trkpt lat="44.58764" lon="2.23106">
        <ele>188.08</ele>
        <time>2014-06-04T14:41:47Z</time>
      </trkpt>
      <trkpt lat="44.58764" lon="2.23106">
        <ele>188.56</ele>
        <time>2014-06-04T14:42:15Z</time>
      </trkpt>
      <trkpt lat="44.58766" lon="2.23094">
        <ele>188.56</ele>
        <time>2014-06-04T14:42:38Z</time>
      </trkpt>
      <trkpt lat="44.58779" lon="2.231">
        <ele>188.56</ele>
        <time>2014-06-04T14:42:55Z</time>
      </trkpt>
      <trkpt lat="44.58801" lon="2.23109">
        <ele>188.08</ele>
        <time>2014-06-04T14:43:18Z</time>
      </trkpt>
      <trkpt lat="44.58814" lon="2.23123">
        <ele>188.56</ele>
        <time>2014-06-04T14:43:38Z</time>
      </trkpt>
      <trkpt lat="44.58833" lon="2.23139">
        <ele>188.56</ele>
        <time>2014-06-04T14:43:54Z</time>
      </trkpt>
      <trkpt lat="44.5884" lon="2.23144">
        <ele>189.04</ele>
        <time>2014-06-04T14:44:09Z</time>
      </trkpt>
      <trkpt lat="44.5886" lon="2.23156">
        <ele>189.52</ele>
        <time>2014-06-04T14:44:29Z</time>
      </trkpt>
      <trkpt lat="44.58866" lon="2.23162">
        <ele>190.48</ele>
        <time>2014-06-04T14:44:38Z</time>
      </trkpt>
      <trkpt lat="44.58881" lon="2.23169">
        <ele>191.44</ele>
        <time>2014-06-04T14:44:56Z</time>
      </trkpt>
      <trkpt lat="44.58891" lon="2.23181">
        <ele>191.92</ele>
        <time>2014-06-04T14:45:10Z</time>
      </trkpt>
      <trkpt lat="44.58905" lon="2.23198">
        <ele>193.84</ele>
        <time>2014-06-04T14:45:29Z</time>
      </trkpt>
      <trkpt lat="44.58914" lon="2.23217">
        <ele>194.32</ele>
        <time>2014-06-04T14:45:45Z</time>
      </trkpt>
      <trkpt lat="44.58924" lon="2.23226">
        <ele>194.8</ele>
        <time>2014-06-04T14:46:01Z</time>
      </trkpt>
      <trkpt lat="44.58932" lon="2.23232">
        <ele>195.28</ele>
        <time>2014-06-04T14:46:18Z</time>
      </trkpt>
      <trkpt lat="44.58943" lon="2.23236">
        <ele>196.73</ele>
        <time>2014-06-04T14:46:38Z</time>
      </trkpt>
      <trkpt lat="44.58954" lon="2.23236">
        <ele>197.21</ele>
        <time>2014-06-04T14:46:54Z</time>
      </trkpt>
      <trkpt lat="44.58969" lon="2.23235">
        <ele>198.65</ele>
        <time>2014-06-04T14:47:08Z</time>
      </trkpt>
      <trkpt lat="44.58977" lon="2.23238">
        <ele>198.17</ele>
        <time>2014-06-04T14:47:13Z</time>
      </trkpt>
      <trkpt lat="44.58998" lon="2.23238">
        <ele>199.61</ele>
        <time>2014-06-04T14:47:32Z</time>
      </trkpt>
      <trkpt lat="44.59021" lon="2.23237">
        <ele>201.53</ele>
        <time>2014-06-04T14:47:54Z</time>
      </trkpt>
      <trkpt lat="44.5904" lon="2.23231">
        <ele>204.42</ele>
        <time>2014-06-04T14:48:14Z</time>
      </trkpt>
      <trkpt lat="44.59063" lon="2.23228">
        <ele>206.34</ele>
        <time>2014-06-04T14:48:33Z</time>
      </trkpt>
      <trkpt lat="44.5908" lon="2.23224">
        <ele>208.74</ele>
        <time>2014-06-04T14:48:56Z</time>
      </trkpt>
      <trkpt lat="44.59104" lon="2.23214">
        <ele>211.15</ele>
        <time>2014-06-04T14:49:17Z</time>
      </trkpt>
      <trkpt lat="44.59109" lon="2.23205">
        <ele>212.11</ele>
        <time>2014-06-04T14:49:24Z</time>
      </trkpt>
      <trkpt lat="44.5912" lon="2.23179">
        <ele>214.99</ele>
        <time>2014-06-04T14:49:45Z</time>
      </trkpt>
      <trkpt lat="44.59122" lon="2.23153">
        <ele>216.43</ele>
        <time>2014-06-04T14:49:59Z</time>
      </trkpt>
      <trkpt lat="44.59131" lon="2.23142">
        <ele>215.95</ele>
        <time>2014-06-04T14:50:16Z</time>
      </trkpt>
      <trkpt lat="44.59134" lon="2.23143">
        <ele>217.4</ele>
        <time>2014-06-04T14:50:31Z</time>
      </trkpt>
      <trkpt lat="44.5914" lon="2.23152">
        <ele>217.4</ele>
        <time>2014-06-04T14:50:51Z</time>
      </trkpt>
      <trkpt lat="44.59138" lon="2.23161">
        <ele>217.4</ele>
        <time>2014-06-04T14:51:23Z</time>
      </trkpt>
      <trkpt lat="44.59141" lon="2.23149">
        <ele>217.4</ele>
        <time>2014-06-04T14:51:59Z</time>
      </trkpt>
      <trkpt lat="44.59137" lon="2.23144">
        <ele>216.91</ele>
        <time>2014-06-04T14:52:16Z</time>
      </trkpt>
      <trkpt lat="44.59131" lon="2.23137">
        <ele>217.88</ele>
        <time>2014-06-04T14:52:44Z</time>
      </trkpt>
      <trkpt lat="44.59129" lon="2.23142">
        <ele>217.88</ele>
        <time>2014-06-04T14:53:12Z</time>
      </trkpt>
      <trkpt lat="44.59126" lon="2.23142">
        <ele>217.88</ele>
        <time>2014-06-04T14:53:44Z</time>
      </trkpt>
      <trkpt lat="44.59126" lon="2.23134">
        <ele>218.84</ele>
        <time>2014-06-04T14:54:24Z</time>
      </trkpt>
      <trkpt lat="44.59129" lon="2.23141">
        <ele>218.36</ele>
        <time>2014-06-04T14:54:55Z</time>
      </trkpt>
      <trkpt lat="44.59131" lon="2.23143">
        <ele>218.84</ele>
        <time>2014-06-04T14:55:31Z</time>
      </trkpt>
      <trkpt lat="44.59129" lon="2.23143">
        <ele>218.36</ele>
        <time>2014-06-04T14:55:59Z</time>
      </trkpt>
      <trkpt lat="44.59121" lon="2.23136">
        <ele>217.88</ele>
        <time>2014-06-04T14:56:30Z</time>
      </trkpt>
      <trkpt lat="44.59128" lon="2.23135">
        <ele>218.36</ele>
        <time>2014-06-04T14:56:59Z</time>
      </trkpt>
      <trkpt lat="44.59131" lon="2.23138">
        <ele>218.36</ele>
        <time>2014-06-04T14:57:35Z</time>
      </trkpt>
      <trkpt lat="44.59128" lon="2.2314">
        <ele>218.36</ele>
        <time>2014-06-04T14:58:03Z</time>
      </trkpt>
    </trkseg>
  </trk>
</gpx>